Wetterdaten: Mittwoch, 02.01.2019
Datum Zeit Temp. A. Pool Temp. Temp. 5cm Feuchte A. Luftdruck Regen Wind Richtung Richtung Sonnenschein ET UV Solar Taupunkt Windchill Windben Empfang
02.01.2019 00:00 4,8 C 4,4 C 3,9 C 87 % 1019,2 hPa 0,0 l/m 8,8 km/h (2 Bft) NW 309 0 min 0,000 mm 0,0 UV-I 0 W/m 2,8 C 2,7 C 19,3 km/h (3 Bft) 100,00 %
02.01.2019 00:02 4,7 C 4,4 C 3,9 C 88 % 1019,2 hPa 0,0 l/m 7,5 km/h (2 Bft) N-NW 340 0 min 0,000 mm 0,0 UV-I 0 W/m 2,9 C 3,7 C 19,3 km/h (3 Bft) 97,56 %
02.01.2019 00:04 4,3 C 4,4 C 3,3 C 87 % 1019,2 hPa 0,0 l/m 6,7 km/h (2 Bft) NW 309 0 min 0,000 mm 0,0 UV-I 0 W/m 2,3 C 4,0 C 12,9 km/h (3 Bft) 98,11 %
02.01.2019 00:06 3,7 C 4,4 C 2,8 C 87 % 1019,2 hPa 0,0 l/m 8,0 km/h (2 Bft) NW 319 0 min 0,000 mm 0,0 UV-I 0 W/m 1,7 C 2,2 C 12,9 km/h (3 Bft) 100,00 %
02.01.2019 00:08 3,3 C 4,4 C 2,8 C 88 % 1019,3 hPa 0,0 l/m 14,2 km/h (3 Bft) N-NW 327 0 min 0,000 mm 0,0 UV-I 0 W/m 1,5 C -2,5 C 24,1 km/h (4 Bft) 100,00 %
02.01.2019 00:10 2,9 C 4,4 C 2,2 C 89 % 1019,5 hPa 0,0 l/m 11,7 km/h (2 Bft) W-NW 296 0 min 0,000 mm 0,0 UV-I 0 W/m 1,3 C -1,5 C 19,3 km/h (3 Bft) 100,00 %
02.01.2019 00:12 2,7 C 4,4 C 2,2 C 90 % 1019,4 hPa 0,0 l/m 14,8 km/h (3 Bft) N-NW 332 0 min 0,000 mm 0,0 UV-I 0 W/m 1,2 C -3,6 C 27,4 km/h (4 Bft) 100,00 %
02.01.2019 00:14 2,6 C 4,4 C 1,7 C 90 % 1019,5 hPa 0,0 l/m 16,3 km/h (3 Bft) W-NW 285 0 min 0,000 mm 0,0 UV-I 0 W/m 1,1 C -4,5 C 40,2 km/h (6 Bft) 94,29 %
02.01.2019 00:16 2,3 C 4,4 C 1,1 C 91 % 1019,6 hPa 0,0 l/m 18,6 km/h (3 Bft) W-NW 293 0 min 0,000 mm 0,0 UV-I 0 W/m 1,0 C -6,0 C 32,2 km/h (5 Bft) 96,23 %
02.01.2019 00:18 2,0 C 4,4 C 0,0 C 91 % 1019,7 hPa 0,0 l/m 15,3 km/h (3 Bft) NW 308 0 min 0,000 mm 0,0 UV-I 0 W/m 0,7 C -4,7 C 25,7 km/h (4 Bft) 96,23 %
02.01.2019 00:20 1,7 C 4,4 C 0,0 C 91 % 1019,6 hPa 0,2 l/m 19,5 km/h (3 Bft) W 277 0 min 0,000 mm 0,0 UV-I 0 W/m 0,4 C -7,2 C 33,8 km/h (5 Bft) 97,73 %
02.01.2019 00:22 1,4 C 4,4 C 0,0 C 91 % 1019,8 hPa 0,0 l/m 20,0 km/h (4 Bft) NW 304 0 min 0,000 mm 0,0 UV-I 0 W/m 0,1 C -7,8 C 43,5 km/h (6 Bft) 94,74 %
02.01.2019 00:24 1,2 C 4,4 C 0,0 C 91 % 1019,7 hPa 0,0 l/m 19,3 km/h (3 Bft) W-NW 292 0 min 0,000 mm 0,0 UV-I 0 W/m -0,1 C -7,8 C 30,6 km/h (5 Bft) 96,00 %
02.01.2019 00:26 1,0 C 4,4 C 0,0 C 92 % 1019,6 hPa 0,0 l/m 17,6 km/h (3 Bft) W 273 0 min 0,000 mm 0,0 UV-I 0 W/m -0,2 C -7,2 C 25,7 km/h (4 Bft) 95,74 %
02.01.2019 00:28 0,9 C 4,4 C 0,0 C 92 % 1019,6 hPa 0,0 l/m 22,8 km/h (4 Bft) W-NW 296 0 min 0,000 mm 0,0 UV-I 0 W/m -0,2 C -9,7 C 37,0 km/h (5 Bft) 94,00 %
02.01.2019 00:30 0,9 C 4,4 C 0,0 C 93 % 1019,5 hPa 0,0 l/m 22,1 km/h (4 Bft) NW 308 0 min 0,000 mm 0,0 UV-I 0 W/m -0,1 C -9,4 C 46,7 km/h (6 Bft) 94,00 %
02.01.2019 00:32 1,0 C 4,4 C 0,0 C 93 % 1019,5 hPa 0,0 l/m 20,2 km/h (4 Bft) W-NW 295 0 min 0,000 mm 0,0 UV-I 0 W/m -0,0 C -8,4 C 35,4 km/h (5 Bft) 96,00 %
02.01.2019 00:34 1,0 C 4,4 C 0,0 C 93 % 1019,4 hPa 0,0 l/m 19,5 km/h (3 Bft) W-NW 296 0 min 0,000 mm 0,0 UV-I 0 W/m -0,0 C -8,1 C 33,8 km/h (5 Bft) 94,87 %
02.01.2019 00:36 1,1 C 4,4 C 0,0 C 94 % 1019,4 hPa 0,0 l/m 19,7 km/h (3 Bft) W-NW 292 0 min 0,000 mm 0,0 UV-I 0 W/m 0,2 C -8,1 C 35,4 km/h (5 Bft) 98,11 %
02.01.2019 00:38 1,2 C 4,4 C 0,0 C 94 % 1019,4 hPa 0,0 l/m 13,9 km/h (3 Bft) W-NW 284 0 min 0,000 mm 0,0 UV-I 0 W/m 0,3 C -4,9 C 20,9 km/h (4 Bft) 94,74 %
02.01.2019 00:40 1,3 C 4,4 C 0,0 C 94 % 1019,3 hPa 0,0 l/m 13,5 km/h (3 Bft) W 277 0 min 0,000 mm 0,0 UV-I 0 W/m 0,4 C -4,5 C 27,4 km/h (4 Bft) 97,87 %
02.01.2019 00:42 1,3 C 4,4 C 0,0 C 94 % 1019,3 hPa 0,0 l/m 21,7 km/h (4 Bft) W-NW 300 0 min 0,000 mm 0,0 UV-I 0 W/m 0,4 C -8,7 C 38,6 km/h (5 Bft) 94,34 %
02.01.2019 00:44 1,5 C 4,4 C 0,0 C 94 % 1019,3 hPa 0,0 l/m 22,4 km/h (4 Bft) NW 310 0 min 0,000 mm 0,0 UV-I 0 W/m 0,6 C -8,7 C 40,2 km/h (6 Bft) 95,45 %
02.01.2019 00:46 1,6 C 4,4 C 0,0 C 94 % 1019,3 hPa 0,0 l/m 20,1 km/h (4 Bft) W 275 0 min 0,000 mm 0,0 UV-I 0 W/m 0,7 C -7,6 C 40,2 km/h (6 Bft) 97,56 %
02.01.2019 00:48 1,7 C 4,4 C 0,6 C 94 % 1019,3 hPa 0,0 l/m 24,0 km/h (4 Bft) W-NW 303 0 min 0,000 mm 0,0 UV-I 0 W/m 0,8 C -9,1 C 48,3 km/h (6 Bft) 94,00 %
02.01.2019 00:50 1,7 C 4,4 C 0,0 C 94 % 1019,3 hPa 0,0 l/m 21,2 km/h (4 Bft) W-NW 297 0 min 0,000 mm 0,0 UV-I 0 W/m 0,8 C -8,0 C 33,8 km/h (5 Bft) 97,73 %
02.01.2019 00:52 1,8 C 4,4 C 0,6 C 94 % 1019,3 hPa 0,0 l/m 15,7 km/h (3 Bft) W-SW 252 0 min 0,000 mm 0,0 UV-I 0 W/m 0,9 C -5,2 C 32,2 km/h (5 Bft) 94,34 %
02.01.2019 00:54 1,8 C 4,4 C 0,6 C 94 % 1019,4 hPa 0,0 l/m 13,1 km/h (3 Bft) W-NW 298 0 min 0,000 mm 0,0 UV-I 0 W/m 0,9 C -3,7 C 22,5 km/h (4 Bft) 98,00 %
02.01.2019 00:56 1,9 C 4,4 C 0,6 C 94 % 1019,4 hPa 0,0 l/m 15,1 km/h (3 Bft) W 277 0 min 0,000 mm 0,0 UV-I 0 W/m 1,0 C -4,7 C 24,1 km/h (4 Bft) 97,56 %
02.01.2019 00:58 1,9 C 4,4 C 0,6 C 94 % 1019,4 hPa 0,0 l/m 15,0 km/h (3 Bft) W-NW 300 0 min 0,000 mm 0,0 UV-I 0 W/m 1,0 C -4,7 C 24,1 km/h (4 Bft) 100,00 %
02.01.2019 01:00 2,0 C 4,4 C 0,6 C 94 % 1019,4 hPa 0,0 l/m 17,2 km/h (3 Bft) W 271 0 min 0,000 mm 0,0 UV-I 0 W/m 1,1 C -5,7 C 20,9 km/h (4 Bft) 100,00 %
02.01.2019 01:02 2,1 C 4,4 C 0,6 C 94 % 1019,5 hPa 0,0 l/m 17,1 km/h (3 Bft) W-NW 292 0 min 0,000 mm 0,0 UV-I 0 W/m 1,2 C -5,6 C 29,0 km/h (5 Bft) 100,00 %
02.01.2019 01:04 2,1 C 4,4 C 1,1 C 94 % 1019,5 hPa 0,0 l/m 15,9 km/h (3 Bft) W-NW 284 0 min 0,000 mm 0,0 UV-I 0 W/m 1,2 C -4,9 C 24,1 km/h (4 Bft) 92,68 %
02.01.2019 01:06 2,1 C 4,4 C 1,1 C 94 % 1019,4 hPa 0,0 l/m 17,7 km/h (3 Bft) W-NW 292 0 min 0,000 mm 0,0 UV-I 0 W/m 1,2 C -5,9 C 22,5 km/h (4 Bft) 100,00 %
02.01.2019 01:08 2,1 C 4,4 C 1,1 C 94 % 1019,3 hPa 0,0 l/m 15,9 km/h (3 Bft) W-SW 243 0 min 0,000 mm 0,0 UV-I 0 W/m 1,2 C -4,9 C 22,5 km/h (4 Bft) 100,00 %
02.01.2019 01:10 2,1 C 4,4 C 1,1 C 94 % 1019,3 hPa 0,0 l/m 14,3 km/h (3 Bft) W 273 0 min 0,000 mm 0,0 UV-I 0 W/m 1,2 C -4,0 C 20,9 km/h (4 Bft) 98,00 %
02.01.2019 01:12 2,1 C 4,4 C 1,1 C 94 % 1019,4 hPa 0,0 l/m 16,8 km/h (3 Bft) W 273 0 min 0,000 mm 0,0 UV-I 0 W/m 1,2 C -5,4 C 25,7 km/h (4 Bft) 100,00 %
02.01.2019 01:14 2,2 C 4,4 C 1,1 C 94 % 1019,3 hPa 0,0 l/m 14,1 km/h (3 Bft) W 277 0 min 0,000 mm 0,0 UV-I 0 W/m 1,3 C -3,8 C 19,3 km/h (3 Bft) 98,11 %
02.01.2019 01:16 2,2 C 4,4 C 1,1 C 94 % 1019,3 hPa 0,0 l/m 15,4 km/h (3 Bft) W-NW 284 0 min 0,000 mm 0,0 UV-I 0 W/m 1,3 C -4,5 C 24,1 km/h (4 Bft) 100,00 %
02.01.2019 01:18 2,2 C 4,4 C 1,1 C 94 % 1019,3 hPa 0,0 l/m 11,4 km/h (2 Bft) W-SW 255 0 min 0,000 mm 0,0 UV-I 0 W/m 1,3 C -2,1 C 16,1 km/h (3 Bft) 100,00 %
02.01.2019 01:20 2,3 C 4,4 C 1,7 C 94 % 1019,3 hPa 0,2 l/m 18,5 km/h (3 Bft) W-SW 254 0 min 0,000 mm 0,0 UV-I 0 W/m 1,4 C -6,0 C 32,2 km/h (5 Bft) 98,21 %
02.01.2019 01:22 2,3 C 4,4 C 1,7 C 94 % 1019,2 hPa 0,0 l/m 12,2 km/h (2 Bft) W-NW 283 0 min 0,000 mm 0,0 UV-I 0 W/m 1,4 C -2,5 C 17,7 km/h (3 Bft) 97,87 %
02.01.2019 01:24 2,3 C 4,4 C 1,7 C 94 % 1019,1 hPa 0,0 l/m 15,9 km/h (3 Bft) W-NW 292 0 min 0,000 mm 0,0 UV-I 0 W/m 1,4 C -4,7 C 20,9 km/h (4 Bft) 100,00 %
02.01.2019 01:26 2,3 C 4,4 C 1,7 C 94 % 1019,0 hPa 0,0 l/m 18,4 km/h (3 Bft) W 259 0 min 0,000 mm 0,0 UV-I 0 W/m 1,4 C -5,9 C 27,4 km/h (4 Bft) 100,00 %
02.01.2019 01:28 2,3 C 4,4 C 1,7 C 94 % 1019,1 hPa 0,2 l/m 15,2 km/h (3 Bft) W 275 0 min 0,000 mm 0,0 UV-I 0 W/m 1,4 C -4,3 C 20,9 km/h (4 Bft) 100,00 %
02.01.2019 01:30 2,4 C 4,4 C 1,7 C 94 % 1019,1 hPa 0,0 l/m 14,0 km/h (3 Bft) W 259 0 min 0,000 mm 0,0 UV-I 0 W/m 1,5 C -3,5 C 22,5 km/h (4 Bft) 100,00 %
02.01.2019 01:32 2,4 C 4,4 C 1,7 C 94 % 1018,9 hPa 0,0 l/m 14,5 km/h (3 Bft) W-SW 250 0 min 0,000 mm 0,0 UV-I 0 W/m 1,5 C -3,8 C 20,9 km/h (4 Bft) 96,00 %
02.01.2019 01:34 2,4 C 4,4 C 1,7 C 94 % 1018,8 hPa 0,0 l/m 16,6 km/h (3 Bft) NW 306 0 min 0,000 mm 0,0 UV-I 0 W/m 1,5 C -4,9 C 25,7 km/h (4 Bft) 98,00 %
02.01.2019 01:36 2,5 C 4,4 C 1,7 C 94 % 1019,0 hPa 0,2 l/m 16,5 km/h (3 Bft) W-NW 301 0 min 0,000 mm 0,0 UV-I 0 W/m 1,6 C -4,8 C 27,4 km/h (4 Bft) 95,74 %
02.01.2019 01:38 2,6 C 4,4 C 1,7 C 94 % 1019,1 hPa 0,0 l/m 15,4 km/h (3 Bft) W-NW 292 0 min 0,000 mm 0,0 UV-I 0 W/m 1,7 C -4,1 C 27,4 km/h (4 Bft) 98,00 %
02.01.2019 01:40 2,7 C 4,4 C 1,7 C 94 % 1019,3 hPa 0,0 l/m 12,4 km/h (3 Bft) W 268 0 min 0,000 mm 0,0 UV-I 0 W/m 1,8 C -2,2 C 20,9 km/h (4 Bft) 94,00 %
02.01.2019 01:42 2,7 C 4,4 C 1,7 C 94 % 1019,3 hPa 0,0 l/m 11,4 km/h (2 Bft) W 265 0 min 0,000 mm 0,0 UV-I 0 W/m 1,8 C -1,5 C 16,1 km/h (3 Bft) 97,87 %
02.01.2019 01:44 2,7 C 4,4 C 1,7 C 94 % 1019,3 hPa 0,2 l/m 15,6 km/h (3 Bft) N-NW 338 0 min 0,000 mm 0,0 UV-I 0 W/m 1,8 C -4,0 C 25,7 km/h (4 Bft) 95,74 %
02.01.2019 01:46 2,7 C 4,4 C 1,7 C 93 % 1019,3 hPa 0,2 l/m 18,8 km/h (3 Bft) W-NW 290 0 min 0,000 mm 0,0 UV-I 0 W/m 1,7 C -5,6 C 29,0 km/h (5 Bft) 94,74 %
02.01.2019 01:48 2,6 C 4,4 C 1,7 C 93 % 1019,2 hPa 0,0 l/m 16,9 km/h (3 Bft) W 263 0 min 0,000 mm 0,0 UV-I 0 W/m 1,6 C -4,8 C 32,2 km/h (5 Bft) 98,21 %
02.01.2019 01:50 2,5 C 4,4 C 1,7 C 93 % 1019,2 hPa 0,2 l/m 13,7 km/h (3 Bft) W-NW 289 0 min 0,000 mm 0,0 UV-I 0 W/m 1,5 C -3,2 C 20,9 km/h (4 Bft) 97,62 %
02.01.2019 01:52 2,4 C 4,4 C 1,7 C 93 % 1019,3 hPa 0,0 l/m 16,5 km/h (3 Bft) W 273 0 min 0,000 mm 0,0 UV-I 0 W/m 1,4 C -4,9 C 24,1 km/h (4 Bft) 100,00 %
02.01.2019 01:54 2,4 C 4,4 C 1,7 C 93 % 1019,4 hPa 0,2 l/m 19,4 km/h (3 Bft) W 275 0 min 0,000 mm 0,0 UV-I 0 W/m 1,4 C -6,3 C 43,5 km/h (6 Bft) 100,00 %
02.01.2019 01:56 2,4 C 4,4 C 1,7 C 94 % 1019,3 hPa 0,0 l/m 24,2 km/h (4 Bft) W-NW 284 0 min 0,000 mm 0,0 UV-I 0 W/m 1,5 C -8,2 C 33,8 km/h (5 Bft) 97,87 %
02.01.2019 01:58 2,3 C 4,4 C 1,7 C 94 % 1019,6 hPa 0,0 l/m 17,3 km/h (3 Bft) NW 304 0 min 0,000 mm 0,0 UV-I 0 W/m 1,4 C -5,4 C 41,8 km/h (6 Bft) 100,00 %
02.01.2019 02:00 2,4 C 4,4 C 1,7 C 94 % 1019,5 hPa 0,0 l/m 14,1 km/h (3 Bft) W-NW 294 0 min 0,000 mm 0,0 UV-I 0 W/m 1,5 C -3,6 C 25,7 km/h (4 Bft) 97,14 %
02.01.2019 02:02 2,3 C 4,4 C 1,7 C 94 % 1019,6 hPa 0,0 l/m 21,2 km/h (4 Bft) NW 309 0 min 0,000 mm 0,0 UV-I 0 W/m 1,4 C -7,2 C 46,7 km/h (6 Bft) 94,64 %
02.01.2019 02:04 2,3 C 4,4 C 1,7 C 94 % 1019,8 hPa 0,0 l/m 17,1 km/h (3 Bft) W 274 0 min 0,000 mm 0,0 UV-I 0 W/m 1,4 C -5,3 C 30,6 km/h (5 Bft) 98,00 %
02.01.2019 02:06 2,3 C 4,4 C 1,7 C 94 % 1019,7 hPa 0,0 l/m 21,7 km/h (4 Bft) NW 309 0 min 0,000 mm 0,0 UV-I 0 W/m 1,4 C -7,4 C 38,6 km/h (5 Bft) 95,74 %
02.01.2019 02:08 2,2 C 4,4 C 1,1 C 93 % 1019,8 hPa 0,2 l/m 18,8 km/h (3 Bft) NW 313 0 min 0,000 mm 0,0 UV-I 0 W/m 1,2 C -6,3 C 35,4 km/h (5 Bft) 97,87 %
02.01.2019 02:10 2,2 C 4,4 C 1,1 C 93 % 1019,8 hPa 0,0 l/m 18,7 km/h (3 Bft) NW 313 0 min 0,000 mm 0,0 UV-I 0 W/m 1,2 C -6,2 C 35,4 km/h (5 Bft) 97,87 %
02.01.2019 02:12 2,1 C 4,4 C 1,1 C 93 % 1019,9 hPa 0,0 l/m 12,1 km/h (2 Bft) W-NW 298 0 min 0,000 mm 0,0 UV-I 0 W/m 1,1 C -2,7 C 27,4 km/h (4 Bft) 97,14 %
02.01.2019 02:14 2,1 C 4,4 C 1,1 C 93 % 1019,8 hPa 0,0 l/m 17,3 km/h (3 Bft) W-NW 288 0 min 0,000 mm 0,0 UV-I 0 W/m 1,1 C -5,7 C 27,4 km/h (4 Bft) 96,43 %
02.01.2019 02:16 2,0 C 4,4 C 1,1 C 93 % 1019,9 hPa 0,2 l/m 15,3 km/h (3 Bft) W-NW 284 0 min 0,000 mm 0,0 UV-I 0 W/m 1,0 C -4,7 C 33,8 km/h (5 Bft) 94,74 %
02.01.2019 02:18 1,9 C 4,4 C 1,1 C 93 % 1019,9 hPa 0,0 l/m 13,6 km/h (3 Bft) W 281 0 min 0,000 mm 0,0 UV-I 0 W/m 0,9 C -3,9 C 25,7 km/h (4 Bft) 98,11 %
02.01.2019 02:20 1,9 C 4,4 C 1,1 C 94 % 1019,9 hPa 0,0 l/m 12,4 km/h (3 Bft) W 278 0 min 0,000 mm 0,0 UV-I 0 W/m 1,0 C -3,1 C 22,5 km/h (4 Bft) 96,00 %
02.01.2019 02:22 1,9 C 4,4 C 1,1 C 94 % 1019,7 hPa 0,0 l/m 10,0 km/h (2 Bft) N 360 0 min 0,000 mm 0,0 UV-I 0 W/m 1,0 C -1,4 C 17,7 km/h (3 Bft) 94,00 %
02.01.2019 02:24 1,8 C 4,4 C 1,1 C 94 % 1019,7 hPa 0,0 l/m 11,5 km/h (2 Bft) W-NW 286 0 min 0,000 mm 0,0 UV-I 0 W/m 0,9 C -2,6 C 20,9 km/h (4 Bft) 97,22 %
02.01.2019 02:26 1,8 C 4,4 C 1,1 C 94 % 1019,7 hPa 0,0 l/m 16,6 km/h (3 Bft) W-NW 295 0 min 0,000 mm 0,0 UV-I 0 W/m 0,9 C -5,7 C 25,7 km/h (4 Bft) 93,62 %
02.01.2019 02:28 1,8 C 4,4 C 1,1 C 94 % 1019,8 hPa 0,0 l/m 17,7 km/h (3 Bft) W-NW 301 0 min 0,000 mm 0,0 UV-I 0 W/m 0,9 C -6,2 C 27,4 km/h (4 Bft) 96,00 %
02.01.2019 02:30 1,8 C 4,4 C 1,1 C 94 % 1019,8 hPa 0,0 l/m 11,7 km/h (2 Bft) W 277 0 min 0,000 mm 0,0 UV-I 0 W/m 0,9 C -2,7 C 24,1 km/h (4 Bft) 95,12 %
02.01.2019 02:32 1,8 C 4,4 C 0,6 C 94 % 1019,9 hPa 0,0 l/m 14,7 km/h (3 Bft) W 275 0 min 0,000 mm 0,0 UV-I 0 W/m 0,9 C -4,6 C 20,9 km/h (4 Bft) 94,64 %
02.01.2019 02:34 1,7 C 4,4 C 0,6 C 94 % 1019,8 hPa 0,0 l/m 16,1 km/h (3 Bft) W 267 0 min 0,000 mm 0,0 UV-I 0 W/m 0,8 C -5,5 C 24,1 km/h (4 Bft) 92,00 %
02.01.2019 02:36 1,7 C 4,4 C 0,6 C 94 % 1019,7 hPa 0,0 l/m 18,8 km/h (3 Bft) W 268 0 min 0,000 mm 0,0 UV-I 0 W/m 0,8 C -6,9 C 29,0 km/h (5 Bft) 94,74 %
02.01.2019 02:38 1,7 C 4,4 C 0,6 C 94 % 1019,8 hPa 0,0 l/m 15,3 km/h (3 Bft) W-SW 254 0 min 0,000 mm 0,0 UV-I 0 W/m 0,8 C -5,1 C 20,9 km/h (4 Bft) 94,00 %
02.01.2019 02:40 1,7 C 4,4 C 0,6 C 94 % 1019,8 hPa 0,0 l/m 17,0 km/h (3 Bft) W-SW 253 0 min 0,000 mm 0,0 UV-I 0 W/m 0,8 C -6,0 C 22,5 km/h (4 Bft) 95,74 %
02.01.2019 02:42 1,7 C 4,4 C 1,1 C 94 % 1019,7 hPa 0,0 l/m 17,1 km/h (3 Bft) W-SW 253 0 min 0,000 mm 0,0 UV-I 0 W/m 0,8 C -6,1 C 27,4 km/h (4 Bft) 96,23 %
02.01.2019 02:44 1,7 C 4,4 C 1,1 C 94 % 1019,8 hPa 0,0 l/m 21,2 km/h (4 Bft) W 267 0 min 0,000 mm 0,0 UV-I 0 W/m 0,8 C -8,0 C 29,0 km/h (5 Bft) 95,45 %
02.01.2019 02:46 1,8 C 4,4 C 1,1 C 94 % 1019,7 hPa 0,0 l/m 14,2 km/h (3 Bft) W-SW 245 0 min 0,000 mm 0,0 UV-I 0 W/m 0,9 C -4,3 C 19,3 km/h (3 Bft) 92,68 %
02.01.2019 02:48 1,8 C 4,4 C 1,1 C 94 % 1019,7 hPa 0,0 l/m 14,5 km/h (3 Bft) W 270 0 min 0,000 mm 0,0 UV-I 0 W/m 0,9 C -4,5 C 24,1 km/h (4 Bft) 88,00 %
02.01.2019 02:50 1,8 C 4,4 C 1,1 C 94 % 1019,7 hPa 0,0 l/m 14,2 km/h (3 Bft) W 273 0 min 0,000 mm 0,0 UV-I 0 W/m 0,9 C -4,3 C 24,1 km/h (4 Bft) 93,18 %
02.01.2019 02:52 1,8 C 4,4 C 1,1 C 94 % 1019,6 hPa 0,0 l/m 13,7 km/h (3 Bft) W-SW 254 0 min 0,000 mm 0,0 UV-I 0 W/m 0,9 C -4,0 C 24,1 km/h (4 Bft) 93,62 %
02.01.2019 02:54 1,8 C 4,4 C 1,1 C 93 % 1019,6 hPa 0,0 l/m 15,6 km/h (3 Bft) W-NW 292 0 min 0,000 mm 0,0 UV-I 0 W/m 0,8 C -5,1 C 27,4 km/h (4 Bft) 93,62 %
02.01.2019 02:56 1,8 C 4,4 C 1,1 C 93 % 1019,7 hPa 0,2 l/m 14,8 km/h (3 Bft) W 265 0 min 0,000 mm 0,0 UV-I 0 W/m 0,8 C -4,7 C 22,5 km/h (4 Bft) 92,00 %
02.01.2019 02:58 1,8 C 4,4 C 1,1 C 93 % 1019,6 hPa 0,0 l/m 14,0 km/h (3 Bft) W 263 0 min 0,000 mm 0,0 UV-I 0 W/m 0,8 C -4,2 C 20,9 km/h (4 Bft) 95,12 %
02.01.2019 03:00 1,8 C 4,4 C 1,1 C 93 % 1019,7 hPa 0,0 l/m 11,4 km/h (2 Bft) W 277 0 min 0,000 mm 0,0 UV-I 0 W/m 0,8 C -2,5 C 20,9 km/h (4 Bft) 89,29 %
02.01.2019 03:02 1,8 C 4,4 C 1,1 C 93 % 1019,5 hPa 0,0 l/m 14,7 km/h (3 Bft) W 275 0 min 0,000 mm 0,0 UV-I 0 W/m 0,8 C -4,6 C 22,5 km/h (4 Bft) 91,49 %
02.01.2019 03:04 1,8 C 4,4 C 1,1 C 93 % 1019,6 hPa 0,0 l/m 10,3 km/h (2 Bft) W-NW 285 0 min 0,000 mm 0,0 UV-I 0 W/m 0,8 C -1,7 C 16,1 km/h (3 Bft) 94,87 %
02.01.2019 03:06 1,8 C 4,4 C 1,1 C 93 % 1019,7 hPa 0,0 l/m 7,4 km/h (2 Bft) W-NW 284 0 min 0,000 mm 0,0 UV-I 0 W/m 0,8 C 0,8 C 14,5 km/h (3 Bft) 98,11 %
02.01.2019 03:08 1,8 C 4,4 C 1,1 C 93 % 1019,7 hPa 0,0 l/m 11,3 km/h (2 Bft) W 278 0 min 0,000 mm 0,0 UV-I 0 W/m 0,8 C -2,4 C 24,1 km/h (4 Bft) 97,87 %
02.01.2019 03:10 1,8 C 4,4 C 1,1 C 93 % 1019,7 hPa 0,0 l/m 11,4 km/h (2 Bft) W 262 0 min 0,000 mm 0,0 UV-I 0 W/m 0,8 C -2,5 C 17,7 km/h (3 Bft) 100,00 %
02.01.2019 03:12 1,8 C 4,4 C 1,1 C 93 % 1019,8 hPa 0,0 l/m 12,0 km/h (2 Bft) W 271 0 min 0,000 mm 0,0 UV-I 0 W/m 0,8 C -2,9 C 24,1 km/h (4 Bft) 100,00 %
02.01.2019 03:14 1,8 C 4,4 C 1,1 C 93 % 1019,9 hPa 0,0 l/m 17,5 km/h (3 Bft) W 280 0 min 0,000 mm 0,0 UV-I 0 W/m 0,8 C -6,1 C 29,0 km/h (5 Bft) 95,12 %
02.01.2019 03:16 1,8 C 4,4 C 1,1 C 93 % 1019,9 hPa 0,0 l/m 13,1 km/h (3 Bft) W 274 0 min 0,000 mm 0,0 UV-I 0 W/m 0,8 C -3,7 C 24,1 km/h (4 Bft) 100,00 %
02.01.2019 03:18 1,8 C 4,4 C 1,1 C 93 % 1019,9 hPa 0,0 l/m 14,7 km/h (3 Bft) W 265 0 min 0,000 mm 0,0 UV-I 0 W/m 0,8 C -4,6 C 22,5 km/h (4 Bft) 100,00 %
02.01.2019 03:20 1,8 C 4,4 C 1,1 C 93 % 1020,0 hPa 0,0 l/m 16,3 km/h (3 Bft) NW 305 0 min 0,000 mm 0,0 UV-I 0 W/m 0,8 C -5,5 C 27,4 km/h (4 Bft) 100,00 %
02.01.2019 03:22 1,8 C 4,4 C 1,1 C 93 % 1019,8 hPa 0,0 l/m 13,0 km/h (3 Bft) W-NW 299 0 min 0,000 mm 0,0 UV-I 0 W/m 0,8 C -3,6 C 22,5 km/h (4 Bft) 100,00 %
02.01.2019 03:24 1,8 C 4,4 C 1,1 C 92 % 1019,9 hPa 0,0 l/m 15,4 km/h (3 Bft) W 279 0 min 0,000 mm 0,0 UV-I 0 W/m 0,6 C -5,0 C 22,5 km/h (4 Bft) 97,87 %
02.01.2019 03:26 1,8 C 4,4 C 1,1 C 92 % 1019,9 hPa 0,2 l/m 18,6 km/h (3 Bft) W-NW 284 0 min 0,000 mm 0,0 UV-I 0 W/m 0,6 C -6,7 C 27,4 km/h (4 Bft) 100,00 %
02.01.2019 03:28 1,8 C 4,4 C 1,1 C 92 % 1019,9 hPa 0,0 l/m 15,7 km/h (3 Bft) W 273 0 min 0,000 mm 0,0 UV-I 0 W/m 0,6 C -5,2 C 24,1 km/h (4 Bft) 100,00 %
02.01.2019 03:30 1,8 C 4,4 C 1,1 C 92 % 1019,9 hPa 0,0 l/m 17,7 km/h (3 Bft) W-SW 250 0 min 0,000 mm 0,0 UV-I 0 W/m 0,6 C -6,2 C 29,0 km/h (5 Bft) 97,56 %
02.01.2019 03:32 1,8 C 4,4 C 1,1 C 92 % 1020,0 hPa 0,0 l/m 20,8 km/h (4 Bft) W-NW 292 0 min 0,000 mm 0,0 UV-I 0 W/m 0,6 C -7,7 C 30,6 km/h (5 Bft) 100,00 %
02.01.2019 03:34 1,8 C 4,4 C 1,1 C 92 % 1020,0 hPa 0,0 l/m 18,8 km/h (3 Bft) W-NW 282 0 min 0,000 mm 0,0 UV-I 0 W/m 0,6 C -6,8 C 32,2 km/h (5 Bft) 100,00 %
02.01.2019 03:36 1,8 C 4,4 C 1,1 C 91 % 1020,0 hPa 0,0 l/m 16,4 km/h (3 Bft) W 279 0 min 0,000 mm 0,0 UV-I 0 W/m 0,5 C -5,6 C 25,7 km/h (4 Bft) 98,21 %
02.01.2019 03:38 1,8 C 4,4 C 1,1 C 91 % 1020,0 hPa 0,0 l/m 14,9 km/h (3 Bft) W-NW 292 0 min 0,000 mm 0,0 UV-I 0 W/m 0,5 C -4,7 C 22,5 km/h (4 Bft) 100,00 %
02.01.2019 03:40 1,8 C 4,4 C 1,1 C 91 % 1020,0 hPa 0,0 l/m 16,3 km/h (3 Bft) W 267 0 min 0,000 mm 0,0 UV-I 0 W/m 0,5 C -5,5 C 29,0 km/h (5 Bft) 98,00 %
02.01.2019 03:42 1,8 C 4,4 C 1,1 C 91 % 1019,9 hPa 0,0 l/m 23,1 km/h (4 Bft) W-SW 258 0 min 0,000 mm 0,0 UV-I 0 W/m 0,5 C -8,6 C 35,4 km/h (5 Bft) 100,00 %
02.01.2019 03:44 1,8 C 4,4 C 1,1 C 91 % 1020,1 hPa 0,0 l/m 20,4 km/h (4 Bft) W 273 0 min 0,000 mm 0,0 UV-I 0 W/m 0,5 C -7,5 C 29,0 km/h (5 Bft) 97,44 %
02.01.2019 03:46 1,8 C 4,4 C 1,1 C 91 % 1020,0 hPa 0,0 l/m 22,1 km/h (4 Bft) W-NW 291 0 min 0,000 mm 0,0 UV-I 0 W/m 0,5 C -8,2 C 43,5 km/h (6 Bft) 100,00 %
02.01.2019 03:48 1,8 C 4,4 C 0,6 C 91 % 1020,0 hPa 0,0 l/m 23,3 km/h (4 Bft) W 281 0 min 0,000 mm 0,0 UV-I 0 W/m 0,5 C -8,7 C 43,5 km/h (6 Bft) 100,00 %
02.01.2019 03:50 1,8 C 4,4 C 0,6 C 90 % 1020,0 hPa 0,0 l/m 24,6 km/h (4 Bft) W 267 0 min 0,000 mm 0,0 UV-I 0 W/m 0,3 C -9,1 C 35,4 km/h (5 Bft) 100,00 %
02.01.2019 03:52 1,8 C 4,4 C 0,6 C 90 % 1020,0 hPa 0,0 l/m 20,0 km/h (4 Bft) W 276 0 min 0,000 mm 0,0 UV-I 0 W/m 0,3 C -7,3 C 29,0 km/h (5 Bft) 100,00 %
02.01.2019 03:54 1,8 C 4,4 C 0,6 C 90 % 1020,1 hPa 0,0 l/m 18,1 km/h (3 Bft) W-NW 287 0 min 0,000 mm 0,0 UV-I 0 W/m 0,3 C -6,4 C 30,6 km/h (5 Bft) 97,87 %
02.01.2019 03:56 1,8 C 4,4 C 0,6 C 90 % 1020,0 hPa 0,0 l/m 20,3 km/h (4 Bft) W 271 0 min 0,000 mm 0,0 UV-I 0 W/m 0,3 C -7,4 C 35,4 km/h (5 Bft) 100,00 %
02.01.2019 03:58 1,8 C 4,4 C 0,6 C 90 % 1020,1 hPa 0,0 l/m 21,8 km/h (4 Bft) W-NW 294 0 min 0,000 mm 0,0 UV-I 0 W/m 0,3 C -8,1 C 32,2 km/h (5 Bft) 100,00 %
02.01.2019 04:00 1,8 C 4,4 C 0,6 C 90 % 1020,1 hPa 0,0 l/m 17,5 km/h (3 Bft) W 268 0 min 0,000 mm 0,0 UV-I 0 W/m 0,3 C -6,1 C 32,2 km/h (5 Bft) 97,56 %
02.01.2019 04:02 1,7 C 4,4 C 0,6 C 89 % 1020,4 hPa 0,0 l/m 20,1 km/h (4 Bft) W-NW 290 0 min 0,000 mm 0,0 UV-I 0 W/m 0,1 C -7,5 C 30,6 km/h (5 Bft) 80,00 %
02.01.2019 04:04 1,7 C 4,4 C 0,6 C 89 % 1020,4 hPa 0,0 l/m 15,1 km/h (3 Bft) W-NW 284 0 min 0,000 mm 0,0 UV-I 0 W/m 0,1 C -5,0 C 22,5 km/h (4 Bft) 97,87 %
02.01.2019 04:06 1,7 C 4,4 C 0,6 C 89 % 1020,5 hPa 0,0 l/m 19,5 km/h (3 Bft) W-NW 285 0 min 0,000 mm 0,0 UV-I 0 W/m 0,1 C -7,2 C 30,6 km/h (5 Bft) 98,21 %
02.01.2019 04:08 1,7 C 4,4 C 0,6 C 89 % 1020,5 hPa 0,0 l/m 18,9 km/h (3 Bft) W 281 0 min 0,000 mm 0,0 UV-I 0 W/m 0,1 C -6,9 C 27,4 km/h (4 Bft) 97,87 %
02.01.2019 04:10 1,7 C 4,4 C 0,6 C 89 % 1020,4 hPa 0,0 l/m 24,4 km/h (4 Bft) W 279 0 min 0,000 mm 0,0 UV-I 0 W/m 0,1 C -9,2 C 35,4 km/h (5 Bft) 97,37 %
02.01.2019 04:12 1,7 C 4,4 C 0,6 C 89 % 1020,5 hPa 0,0 l/m 17,9 km/h (3 Bft) W-NW 290 0 min 0,000 mm 0,0 UV-I 0 W/m 0,1 C -6,5 C 25,7 km/h (4 Bft) 98,11 %
02.01.2019 04:14 1,7 C 4,4 C 0,6 C 88 % 1020,5 hPa 0,0 l/m 19,4 km/h (3 Bft) W 276 0 min 0,000 mm 0,0 UV-I 0 W/m -0,1 C -7,2 C 38,6 km/h (5 Bft) 97,14 %
02.01.2019 04:16 1,8 C 4,4 C 0,6 C 88 % 1020,5 hPa 0,0 l/m 22,1 km/h (4 Bft) NW 311 0 min 0,000 mm 0,0 UV-I 0 W/m 0,0 C -8,2 C 35,4 km/h (5 Bft) 96,00 %
02.01.2019 04:18 1,8 C 4,4 C 0,6 C 87 % 1020,6 hPa 0,0 l/m 22,9 km/h (4 Bft) W 273 0 min 0,000 mm 0,0 UV-I 0 W/m -0,1 C -8,5 C 37,0 km/h (5 Bft) 96,00 %
02.01.2019 04:20 1,8 C 4,4 C 0,6 C 87 % 1020,6 hPa 0,0 l/m 22,2 km/h (4 Bft) W 262 0 min 0,000 mm 0,0 UV-I 0 W/m -0,1 C -8,2 C 32,2 km/h (5 Bft) 96,23 %
02.01.2019 04:22 1,8 C 4,4 C 0,6 C 87 % 1020,5 hPa 0,0 l/m 27,7 km/h (4 Bft) W-SW 255 0 min 0,000 mm 0,0 UV-I 0 W/m -0,1 C -10,2 C 48,3 km/h (6 Bft) 97,44 %
02.01.2019 04:24 1,8 C 4,4 C 0,6 C 87 % 1020,5 hPa 0,0 l/m 14,5 km/h (3 Bft) W 260 0 min 0,000 mm 0,0 UV-I 0 W/m -0,1 C -4,5 C 29,0 km/h (5 Bft) 100,00 %
02.01.2019 04:26 1,7 C 4,4 C 0,6 C 87 % 1020,5 hPa 0,0 l/m 19,5 km/h (3 Bft) W-SW 257 0 min 0,000 mm 0,0 UV-I 0 W/m -0,2 C -7,2 C 30,6 km/h (5 Bft) 100,00 %
02.01.2019 04:28 1,7 C 4,4 C 0,6 C 87 % 1020,6 hPa 0,0 l/m 23,1 km/h (4 Bft) W-NW 290 0 min 0,000 mm 0,0 UV-I 0 W/m -0,2 C -8,7 C 38,6 km/h (5 Bft) 100,00 %
02.01.2019 04:30 1,7 C 4,4 C 0,6 C 86 % 1020,6 hPa 0,0 l/m 20,8 km/h (4 Bft) W-NW 284 0 min 0,000 mm 0,0 UV-I 0 W/m -0,4 C -7,8 C 37,0 km/h (5 Bft) 100,00 %
02.01.2019 04:32 1,7 C 4,4 C 0,6 C 86 % 1020,5 hPa 0,0 l/m 21,3 km/h (4 Bft) W 261 0 min 0,000 mm 0,0 UV-I 0 W/m -0,4 C -8,0 C 35,4 km/h (5 Bft) 100,00 %
02.01.2019 04:34 1,7 C 4,4 C 0,6 C 86 % 1020,7 hPa 0,0 l/m 17,0 km/h (3 Bft) W 265 0 min 0,000 mm 0,0 UV-I 0 W/m -0,4 C -6,0 C 30,6 km/h (5 Bft) 100,00 %
02.01.2019 04:36 1,8 C 4,4 C 0,6 C 85 % 1020,7 hPa 0,0 l/m 31,5 km/h (5 Bft) W 279 0 min 0,000 mm 0,0 UV-I 0 W/m -0,4 C -11,3 C 54,7 km/h (7 Bft) 95,74 %
02.01.2019 04:38 1,8 C 4,4 C 0,6 C 85 % 1020,9 hPa 0,0 l/m 16,3 km/h (3 Bft) W-NW 295 0 min 0,000 mm 0,0 UV-I 0 W/m -0,4 C -5,5 C 24,1 km/h (4 Bft) 98,00 %
02.01.2019 04:40 1,8 C 4,4 C 0,6 C 85 % 1020,9 hPa 0,0 l/m 19,6 km/h (3 Bft) W 278 0 min 0,000 mm 0,0 UV-I 0 W/m -0,4 C -7,1 C 46,7 km/h (6 Bft) 94,74 %
02.01.2019 04:42 1,8 C 4,4 C 0,6 C 85 % 1021,0 hPa 0,0 l/m 26,3 km/h (4 Bft) W-NW 286 0 min 0,000 mm 0,0 UV-I 0 W/m -0,4 C -9,7 C 38,6 km/h (5 Bft) 98,21 %
02.01.2019 04:44 1,8 C 4,4 C 0,6 C 85 % 1020,9 hPa 0,0 l/m 18,9 km/h (3 Bft) W 277 0 min 0,000 mm 0,0 UV-I 0 W/m -0,4 C -6,8 C 35,4 km/h (5 Bft) 97,73 %
02.01.2019 04:46 1,8 C 4,4 C 0,6 C 85 % 1021,0 hPa 0,0 l/m 16,8 km/h (3 Bft) W 279 0 min 0,000 mm 0,0 UV-I 0 W/m -0,4 C -5,8 C 29,0 km/h (5 Bft) 94,34 %
02.01.2019 04:48 1,8 C 4,4 C 0,6 C 85 % 1021,0 hPa 0,0 l/m 18,9 km/h (3 Bft) W 280 0 min 0,000 mm 0,0 UV-I 0 W/m -0,4 C -6,8 C 33,8 km/h (5 Bft) 100,00 %
02.01.2019 04:50 1,8 C 4,4 C 0,6 C 85 % 1020,9 hPa 0,0 l/m 17,6 km/h (3 Bft) W 260 0 min 0,000 mm 0,0 UV-I 0 W/m -0,4 C -6,2 C 29,0 km/h (5 Bft) 96,00 %
02.01.2019 04:52 1,8 C 4,4 C 0,6 C 84 % 1021,0 hPa 0,0 l/m 17,5 km/h (3 Bft) W-NW 290 0 min 0,000 mm 0,0 UV-I 0 W/m -0,6 C -6,1 C 30,6 km/h (5 Bft) 97,87 %
02.01.2019 04:54 1,8 C 4,4 C 0,6 C 84 % 1021,0 hPa 0,0 l/m 16,3 km/h (3 Bft) W-NW 298 0 min 0,000 mm 0,0 UV-I 0 W/m -0,6 C -5,5 C 27,4 km/h (4 Bft) 94,00 %
02.01.2019 04:56 1,8 C 4,4 C 0,6 C 84 % 1021,0 hPa 0,0 l/m 19,8 km/h (3 Bft) W 273 0 min 0,000 mm 0,0 UV-I 0 W/m -0,6 C -7,2 C 41,8 km/h (6 Bft) 97,56 %
02.01.2019 04:58 1,8 C 4,4 C 0,6 C 83 % 1021,0 hPa 0,0 l/m 24,1 km/h (4 Bft) W 277 0 min 0,000 mm 0,0 UV-I 0 W/m -0,8 C -9,0 C 46,7 km/h (6 Bft) 97,62 %
02.01.2019 05:00 1,8 C 4,4 C 0,6 C 83 % 1021,1 hPa 0,0 l/m 17,8 km/h (3 Bft) W 265 0 min 0,025 mm 0,0 UV-I 0 W/m -0,8 C -6,3 C 33,8 km/h (5 Bft) 98,18 %
02.01.2019 05:02 1,8 C 4,4 C 0,6 C 83 % 1021,1 hPa 0,0 l/m 14,2 km/h (3 Bft) NW 307 0 min 0,000 mm 0,0 UV-I 0 W/m -0,8 C -4,3 C 32,2 km/h (5 Bft) 97,92 %
02.01.2019 05:04 1,8 C 4,4 C 0,6 C 83 % 1021,0 hPa 0,0 l/m 21,9 km/h (4 Bft) W-NW 296 0 min 0,000 mm 0,0 UV-I 0 W/m -0,8 C -8,1 C 38,6 km/h (5 Bft) 95,74 %
02.01.2019 05:06 1,8 C 4,4 C 0,6 C 83 % 1021,0 hPa 0,0 l/m 21,1 km/h (4 Bft) W-NW 290 0 min 0,000 mm 0,0 UV-I 0 W/m -0,8 C -7,8 C 45,1 km/h (6 Bft) 97,87 %
02.01.2019 05:08 1,8 C 4,4 C 0,6 C 83 % 1021,0 hPa 0,0 l/m 20,0 km/h (4 Bft) W-NW 299 0 min 0,000 mm 0,0 UV-I 0 W/m -0,8 C -7,3 C 32,2 km/h (5 Bft) 97,56 %
02.01.2019 05:10 1,8 C 4,4 C 0,6 C 83 % 1021,0 hPa 0,0 l/m 17,3 km/h (3 Bft) W-SW 248 0 min 0,000 mm 0,0 UV-I 0 W/m -0,8 C -6,0 C 30,6 km/h (5 Bft) 95,45 %
02.01.2019 05:12 1,8 C 4,4 C 0,6 C 83 % 1021,0 hPa 0,0 l/m 24,7 km/h (4 Bft) W 271 0 min 0,000 mm 0,0 UV-I 0 W/m -0,8 C -9,2 C 46,7 km/h (6 Bft) 98,21 %
02.01.2019 05:14 1,8 C 4,4 C 0,6 C 83 % 1021,0 hPa 0,0 l/m 22,8 km/h (4 Bft) W 279 0 min 0,000 mm 0,0 UV-I 0 W/m -0,8 C -8,5 C 46,7 km/h (6 Bft) 98,00 %
02.01.2019 05:16 1,8 C 4,4 C 0,6 C 83 % 1021,0 hPa 0,0 l/m 22,4 km/h (4 Bft) W-NW 293 0 min 0,000 mm 0,0 UV-I 0 W/m -0,8 C -8,3 C 37,0 km/h (5 Bft) 97,37 %
02.01.2019 05:18 1,8 C 4,4 C 0,6 C 83 % 1021,1 hPa 0,0 l/m 21,2 km/h (4 Bft) W 262 0 min 0,000 mm 0,0 UV-I 0 W/m -0,8 C -7,8 C 32,2 km/h (5 Bft) 97,14 %
02.01.2019 05:20 1,8 C 4,4 C 0,6 C 83 % 1021,1 hPa 0,0 l/m 21,2 km/h (4 Bft) W-NW 286 0 min 0,000 mm 0,0 UV-I 0 W/m -0,8 C -7,8 C 27,4 km/h (4 Bft) 96,43 %
02.01.2019 05:22 1,7 C 4,4 C 0,6 C 83 % 1021,1 hPa 0,0 l/m 20,0 km/h (4 Bft) W 272 0 min 0,000 mm 0,0 UV-I 0 W/m -0,9 C -7,4 C 30,6 km/h (5 Bft) 96,23 %
02.01.2019 05:24 1,7 C 4,4 C 0,6 C 83 % 1021,1 hPa 0,0 l/m 17,7 km/h (3 Bft) W 270 0 min 0,000 mm 0,0 UV-I 0 W/m -0,9 C -6,4 C 29,0 km/h (5 Bft) 97,56 %
02.01.2019 05:26 1,7 C 4,4 C 0,6 C 84 % 1021,0 hPa 0,0 l/m 20,3 km/h (4 Bft) W-NW 298 0 min 0,000 mm 0,0 UV-I 0 W/m -0,7 C -7,6 C 29,0 km/h (5 Bft) 98,11 %
02.01.2019 05:28 1,7 C 4,4 C 0,6 C 84 % 1021,0 hPa 0,0 l/m 20,5 km/h (4 Bft) W-SW 247 0 min 0,000 mm 0,0 UV-I 0 W/m -0,7 C -7,7 C 33,8 km/h (5 Bft) 98,11 %
02.01.2019 05:30 1,7 C 4,4 C 0,6 C 84 % 1021,0 hPa 0,0 l/m 30,0 km/h (5 Bft) W 271 0 min 0,000 mm 0,0 UV-I 0 W/m -0,7 C -11,0 C 46,7 km/h (6 Bft) 97,37 %
02.01.2019 05:32 1,7 C 4,4 C 0,6 C 83 % 1021,0 hPa 0,0 l/m 21,6 km/h (4 Bft) W 276 0 min 0,000 mm 0,0 UV-I 0 W/m -0,9 C -8,1 C 32,2 km/h (5 Bft) 95,45 %
02.01.2019 05:34 1,7 C 4,4 C 0,6 C 83 % 1021,0 hPa 0,0 l/m 14,0 km/h (3 Bft) W-SW 249 0 min 0,000 mm 0,0 UV-I 0 W/m -0,9 C -4,3 C 17,7 km/h (3 Bft) 96,23 %
02.01.2019 05:36 1,7 C 4,4 C 0,6 C 83 % 1021,0 hPa 0,0 l/m 16,9 km/h (3 Bft) W 264 0 min 0,000 mm 0,0 UV-I 0 W/m -0,9 C -6,0 C 25,7 km/h (4 Bft) 97,56 %
02.01.2019 05:38 1,6 C 4,4 C 0,6 C 83 % 1021,1 hPa 0,0 l/m 25,0 km/h (4 Bft) W-SW 257 0 min 0,000 mm 0,0 UV-I 0 W/m -1,0 C -9,6 C 33,8 km/h (5 Bft) 97,78 %
02.01.2019 05:40 1,6 C 4,4 C 0,6 C 83 % 1021,2 hPa 0,0 l/m 16,0 km/h (3 Bft) W 259 0 min 0,000 mm 0,0 UV-I 0 W/m -1,0 C -5,6 C 29,0 km/h (5 Bft) 100,00 %
02.01.2019 05:42 1,6 C 4,4 C 0,6 C 83 % 1021,2 hPa 0,0 l/m 19,8 km/h (3 Bft) W 277 0 min 0,000 mm 0,0 UV-I 0 W/m -1,0 C -7,5 C 33,8 km/h (5 Bft) 97,37 %
02.01.2019 05:44 1,6 C 4,4 C 0,6 C 83 % 1021,1 hPa 0,0 l/m 23,0 km/h (4 Bft) W 275 0 min 0,000 mm 0,0 UV-I 0 W/m -1,0 C -8,8 C 35,4 km/h (5 Bft) 100,00 %
02.01.2019 05:46 1,7 C 4,4 C 0,6 C 83 % 1021,1 hPa 0,0 l/m 20,3 km/h (4 Bft) W-NW 300 0 min 0,000 mm 0,0 UV-I 0 W/m -0,9 C -7,6 C 32,2 km/h (5 Bft) 100,00 %
02.01.2019 05:48 1,6 C 4,4 C 0,6 C 83 % 1021,1 hPa 0,0 l/m 24,9 km/h (4 Bft) W 262 0 min 0,000 mm 0,0 UV-I 0 W/m -1,0 C -9,5 C 35,4 km/h (5 Bft) 100,00 %
02.01.2019 05:50 1,7 C 4,4 C 0,6 C 83 % 1021,1 hPa 0,0 l/m 20,2 km/h (4 Bft) W 279 0 min 0,000 mm 0,0 UV-I 0 W/m -0,9 C -7,5 C 29,0 km/h (5 Bft) 100,00 %
02.01.2019 05:52 1,7 C 4,4 C 0,6 C 83 % 1021,1 hPa 0,0 l/m 21,1 km/h (4 Bft) W-NW 292 0 min 0,000 mm 0,0 UV-I 0 W/m -0,9 C -7,9 C 38,6 km/h (5 Bft) 100,00 %
02.01.2019 05:54 1,7 C 4,4 C 0,6 C 83 % 1021,2 hPa 0,0 l/m 25,7 km/h (4 Bft) W 267 0 min 0,000 mm 0,0 UV-I 0 W/m -0,9 C -9,7 C 53,1 km/h (7 Bft) 100,00 %
02.01.2019 05:56 1,7 C 4,4 C 0,6 C 82 % 1021,2 hPa 0,0 l/m 19,4 km/h (3 Bft) W-NW 283 0 min 0,000 mm 0,0 UV-I 0 W/m -1,0 C -7,2 C 32,2 km/h (5 Bft) 100,00 %
02.01.2019 05:58 1,7 C 4,4 C 0,6 C 83 % 1021,2 hPa 0,0 l/m 24,3 km/h (4 Bft) W 270 0 min 0,000 mm 0,0 UV-I 0 W/m -0,9 C -9,2 C 46,7 km/h (6 Bft) 100,00 %
02.01.2019 06:00 1,6 C 4,4 C 0,6 C 83 % 1021,2 hPa 0,0 l/m 19,8 km/h (3 Bft) NW 315 0 min 0,026 mm 0,0 UV-I 0 W/m -1,0 C -7,5 C 25,7 km/h (4 Bft) 100,00 %
02.01.2019 06:02 1,6 C 4,4 C 0,6 C 83 % 1021,3 hPa 0,0 l/m 18,4 km/h (3 Bft) W 269 0 min 0,000 mm 0,0 UV-I 0 W/m -1,0 C -6,8 C 27,4 km/h (4 Bft) 98,00 %
02.01.2019 06:04 1,6 C 4,4 C 0,6 C 83 % 1021,2 hPa 0,0 l/m 24,9 km/h (4 Bft) W-NW 290 0 min 0,000 mm 0,0 UV-I 0 W/m -1,0 C -9,5 C 41,8 km/h (6 Bft) 96,00 %
02.01.2019 06:06 1,6 C 4,4 C 0,6 C 83 % 1021,3 hPa 0,0 l/m 20,4 km/h (4 Bft) W 267 0 min 0,000 mm 0,0 UV-I 0 W/m -1,0 C -7,7 C 29,0 km/h (5 Bft) 95,12 %
02.01.2019 06:08 1,6 C 4,4 C 0,6 C 84 % 1021,3 hPa 0,0 l/m 21,3 km/h (4 Bft) W 263 0 min 0,000 mm 0,0 UV-I 0 W/m -0,8 C -8,1 C 30,6 km/h (5 Bft) 95,12 %
02.01.2019 06:10 1,6 C 4,4 C 0,6 C 84 % 1021,4 hPa 0,0 l/m 21,4 km/h (4 Bft) W 281 0 min 0,000 mm 0,0 UV-I 0 W/m -0,8 C -8,2 C 32,2 km/h (5 Bft) 96,61 %
02.01.2019 06:12 1,6 C 4,4 C 0,6 C 84 % 1021,4 hPa 0,0 l/m 18,9 km/h (3 Bft) W 261 0 min 0,000 mm 0,0 UV-I 0 W/m -0,8 C -7,1 C 29,0 km/h (5 Bft) 94,44 %
02.01.2019 06:14 1,5 C 4,4 C 0,6 C 84 % 1021,4 hPa 0,0 l/m 21,1 km/h (4 Bft) W 265 0 min 0,000 mm 0,0 UV-I 0 W/m -0,9 C -8,2 C 33,8 km/h (5 Bft) 96,15 %
02.01.2019 06:16 1,5 C 4,4 C 0,6 C 84 % 1021,7 hPa 0,0 l/m 20,0 km/h (4 Bft) W 275 0 min 0,000 mm 0,0 UV-I 0 W/m -0,9 C -7,7 C 35,4 km/h (5 Bft) 97,87 %
02.01.2019 06:18 1,5 C 4,4 C 0,6 C 84 % 1021,3 hPa 0,2 l/m 27,8 km/h (4 Bft) W-SW 243 0 min 0,000 mm 0,0 UV-I 0 W/m -0,9 C -10,6 C 45,1 km/h (6 Bft) 98,00 %
02.01.2019 06:20 1,5 C 4,4 C 0,6 C 84 % 1021,4 hPa 0,0 l/m 27,6 km/h (4 Bft) W 271 0 min 0,000 mm 0,0 UV-I 0 W/m -0,9 C -10,6 C 38,6 km/h (5 Bft) 96,67 %
02.01.2019 06:22 1,5 C 4,4 C 0,6 C 84 % 1021,4 hPa 0,0 l/m 21,2 km/h (4 Bft) W 281 0 min 0,000 mm 0,0 UV-I 0 W/m -0,9 C -8,2 C 33,8 km/h (5 Bft) 96,61 %
02.01.2019 06:24 1,4 C 4,4 C 0,6 C 84 % 1021,4 hPa 0,0 l/m 24,8 km/h (4 Bft) W-SW 242 0 min 0,000 mm 0,0 UV-I 0 W/m -1,0 C -9,7 C 35,4 km/h (5 Bft) 96,00 %
02.01.2019 06:26 1,4 C 4,4 C 0,6 C 84 % 1021,4 hPa 0,0 l/m 26,1 km/h (4 Bft) W 273 0 min 0,000 mm 0,0 UV-I 0 W/m -1,0 C -10,2 C 41,8 km/h (6 Bft) 95,74 %
02.01.2019 06:28 1,4 C 4,4 C 0,6 C 84 % 1021,3 hPa 0,0 l/m 21,5 km/h (4 Bft) W-NW 283 0 min 0,000 mm 0,0 UV-I 0 W/m -1,0 C -8,5 C 41,8 km/h (6 Bft) 98,00 %
02.01.2019 06:30 1,4 C 4,4 C 0,6 C 84 % 1021,4 hPa 0,0 l/m 21,1 km/h (4 Bft) W 276 0 min 0,000 mm 0,0 UV-I 0 W/m -1,0 C -8,3 C 32,2 km/h (5 Bft) 97,87 %
02.01.2019 06:32 1,4 C 3,9 C 0,6 C 84 % 1021,3 hPa 0,0 l/m 25,4 km/h (4 Bft) W 280 0 min 0,000 mm 0,0 UV-I 0 W/m -1,0 C -10,0 C 43,5 km/h (6 Bft) 97,87 %
02.01.2019 06:34 1,4 C 3,9 C 0,6 C 83 % 1021,3 hPa 0,0 l/m 22,2 km/h (4 Bft) W-SW 244 0 min 0,000 mm 0,0 UV-I 0 W/m -1,2 C -8,8 C 43,5 km/h (6 Bft) 95,65 %
02.01.2019 06:36 1,4 C 3,9 C 0,6 C 83 % 1021,3 hPa 0,0 l/m 21,7 km/h (4 Bft) W 277 0 min 0,000 mm 0,0 UV-I 0 W/m -1,2 C -8,6 C 35,4 km/h (5 Bft) 95,38 %
02.01.2019 06:38 1,4 C 3,9 C 0,6 C 84 % 1021,4 hPa 0,0 l/m 20,6 km/h (4 Bft) W 266 0 min 0,000 mm 0,0 UV-I 0 W/m -1,0 C -8,1 C 33,8 km/h (5 Bft) 95,74 %
02.01.2019 06:40 1,4 C 3,9 C 0,6 C 84 % 1021,4 hPa 0,0 l/m 24,5 km/h (4 Bft) W-NW 292 0 min 0,000 mm 0,0 UV-I 0 W/m -1,0 C -9,6 C 46,7 km/h (6 Bft) 96,00 %
02.01.2019 06:42 1,4 C 3,9 C 0,6 C 84 % 1021,4 hPa 0,0 l/m 21,1 km/h (4 Bft) W-NW 284 0 min 0,000 mm 0,0 UV-I 0 W/m -1,0 C -8,3 C 30,6 km/h (5 Bft) 94,74 %
02.01.2019 06:44 1,4 C 3,9 C 0,6 C 84 % 1021,4 hPa 0,0 l/m 25,8 km/h (4 Bft) W 272 0 min 0,000 mm 0,0 UV-I 0 W/m -1,0 C -10,1 C 40,2 km/h (6 Bft) 94,34 %
02.01.2019 06:46 1,3 C 3,9 C 0,6 C 84 % 1021,5 hPa 0,0 l/m 29,3 km/h (5 Bft) W 276 0 min 0,000 mm 0,0 UV-I 0 W/m -1,1 C -11,4 C 48,3 km/h (6 Bft) 96,00 %
02.01.2019 06:48 1,3 C 3,9 C 0,6 C 85 % 1021,5 hPa 0,0 l/m 28,0 km/h (4 Bft) W 265 0 min 0,000 mm 0,0 UV-I 0 W/m -0,9 C -11,0 C 48,3 km/h (6 Bft) 96,30 %
02.01.2019 06:50 1,3 C 3,9 C 0,6 C 85 % 1021,5 hPa 0,0 l/m 20,6 km/h (4 Bft) W-NW 282 0 min 0,000 mm 0,0 UV-I 0 W/m -0,9 C -8,2 C 35,4 km/h (5 Bft) 92,54 %
02.01.2019 06:52 1,2 C 3,9 C 0,6 C 86 % 1021,6 hPa 0,0 l/m 21,2 km/h (4 Bft) W 270 0 min 0,000 mm 0,0 UV-I 0 W/m -0,9 C -8,6 C 30,6 km/h (5 Bft) 92,68 %
02.01.2019 06:54 1,2 C 3,9 C 0,6 C 86 % 1021,5 hPa 0,0 l/m 25,6 km/h (4 Bft) W 269 0 min 0,000 mm 0,0 UV-I 0 W/m -0,9 C -10,3 C 35,4 km/h (5 Bft) 92,45 %
02.01.2019 06:56 1,1 C 3,9 C 0,6 C 87 % 1021,5 hPa 0,0 l/m 30,2 km/h (5 Bft) W 261 0 min 0,000 mm 0,0 UV-I 0 W/m -0,8 C -11,9 C 46,7 km/h (6 Bft) 92,86 %
02.01.2019 06:58 1,1 C 4,4 C 0,0 C 87 % 1021,5 hPa 0,0 l/m 23,2 km/h (4 Bft) W 264 0 min 0,000 mm 0,0 UV-I 0 W/m -0,8 C -9,6 C 45,1 km/h (6 Bft) 95,92 %
02.01.2019 07:00 1,0 C 4,4 C 0,0 C 87 % 1021,5 hPa 0,0 l/m 18,4 km/h (3 Bft) W 267 0 min 0,025 mm 0,0 UV-I 0 W/m -0,9 C -7,6 C 35,4 km/h (5 Bft) 94,00 %
02.01.2019 07:02 0,9 C 4,4 C 0,0 C 88 % 1021,5 hPa 0,0 l/m 21,2 km/h (4 Bft) W-NW 291 0 min 0,000 mm 0,0 UV-I 0 W/m -0,9 C -9,0 C 32,2 km/h (5 Bft) 91,67 %
02.01.2019 07:04 0,8 C 4,4 C 0,0 C 88 % 1021,6 hPa 0,0 l/m 24,3 km/h (4 Bft) W-NW 293 0 min 0,000 mm 0,0 UV-I 0 W/m -1,0 C -10,4 C 33,8 km/h (5 Bft) 97,56 %
02.01.2019 07:06 0,8 C 4,4 C 0,0 C 89 % 1021,6 hPa 0,0 l/m 22,1 km/h (4 Bft) W 261 0 min 0,000 mm 0,0 UV-I 0 W/m -0,8 C -9,5 C 40,2 km/h (6 Bft) 92,45 %
02.01.2019 07:08 0,8 C 3,9 C 0,0 C 89 % 1021,4 hPa 0,0 l/m 20,3 km/h (4 Bft) W 276 0 min 0,000 mm 0,0 UV-I 0 W/m -0,8 C -8,7 C 32,2 km/h (5 Bft) 97,14 %
02.01.2019 07:10 0,8 C 4,4 C 0,0 C 89 % 1021,5 hPa 0,0 l/m 22,0 km/h (4 Bft) W 260 0 min 0,000 mm 0,0 UV-I 0 W/m -0,8 C -9,5 C 35,4 km/h (5 Bft) 98,11 %
02.01.2019 07:12 0,8 C 3,9 C 0,0 C 89 % 1021,4 hPa 0,0 l/m 22,3 km/h (4 Bft) W 273 0 min 0,000 mm 0,0 UV-I 0 W/m -0,8 C -9,6 C 32,2 km/h (5 Bft) 92,68 %
02.01.2019 07:14 0,8 C 4,4 C 0,0 C 89 % 1021,5 hPa 0,0 l/m 23,6 km/h (4 Bft) W 266 0 min 0,000 mm 0,0 UV-I 0 W/m -0,8 C -10,1 C 32,2 km/h (5 Bft) 98,21 %
02.01.2019 07:16 0,8 C 3,9 C 0,0 C 89 % 1021,4 hPa 0,0 l/m 18,8 km/h (3 Bft) W 263 0 min 0,000 mm 0,0 UV-I 0 W/m -0,8 C -8,0 C 37,0 km/h (5 Bft) 98,00 %
02.01.2019 07:18 0,8 C 3,9 C 0,0 C 89 % 1021,5 hPa 0,0 l/m 20,4 km/h (4 Bft) W-NW 284 0 min 0,000 mm 0,0 UV-I 0 W/m -0,8 C -8,8 C 27,4 km/h (4 Bft) 97,14 %
02.01.2019 07:20 0,9 C 3,9 C 0,0 C 89 % 1021,4 hPa 0,0 l/m 20,0 km/h (4 Bft) W 267 0 min 0,000 mm 0,0 UV-I 0 W/m -0,7 C -8,5 C 30,6 km/h (5 Bft) 98,00 %
02.01.2019 07:22 0,9 C 4,4 C 0,0 C 88 % 1021,3 hPa 0,0 l/m 18,6 km/h (3 Bft) W 265 0 min 0,000 mm 0,0 UV-I 0 W/m -0,9 C -7,8 C 27,4 km/h (4 Bft) 94,00 %
02.01.2019 07:24 1,0 C 3,9 C 0,6 C 88 % 1021,3 hPa 0,0 l/m 21,6 km/h (4 Bft) W 269 0 min 0,000 mm 0,0 UV-I 0 W/m -0,8 C -9,0 C 33,8 km/h (5 Bft) 97,56 %
02.01.2019 07:26 1,1 C 3,9 C 0,6 C 88 % 1021,3 hPa 0,0 l/m 17,9 km/h (3 Bft) W 263 0 min 0,000 mm 0,0 UV-I 0 W/m -0,7 C -7,2 C 27,4 km/h (4 Bft) 100,00 %
02.01.2019 07:28 1,1 C 3,9 C 0,6 C 87 % 1021,3 hPa 0,0 l/m 16,9 km/h (3 Bft) W 273 0 min 0,000 mm 0,0 UV-I 0 W/m -0,8 C -6,7 C 22,5 km/h (4 Bft) 97,73 %
02.01.2019 07:30 1,1 C 3,9 C 0,6 C 87 % 1021,3 hPa 0,0 l/m 16,7 km/h (3 Bft) W-SW 247 0 min 0,000 mm 0,0 UV-I 0 W/m -0,8 C -6,6 C 25,7 km/h (4 Bft) 100,00 %
02.01.2019 07:32 1,2 C 3,9 C 0,6 C 86 % 1021,3 hPa 0,0 l/m 19,9 km/h (4 Bft) W-SW 256 0 min 0,000 mm 0,0 UV-I 0 W/m -0,9 C -8,0 C 30,6 km/h (5 Bft) 100,00 %
02.01.2019 07:34 1,2 C 3,9 C 0,6 C 86 % 1021,3 hPa 0,0 l/m 17,0 km/h (3 Bft) W 278 0 min 0,000 mm 0,0 UV-I 0 W/m -0,9 C -6,6 C 22,5 km/h (4 Bft) 98,39 %
02.01.2019 07:36 1,2 C 3,9 C 0,6 C 86 % 1021,3 hPa 0,0 l/m 20,9 km/h (4 Bft) W 267 0 min 0,000 mm 0,0 UV-I 0 W/m -0,9 C -8,5 C 29,0 km/h (5 Bft) 100,00 %
02.01.2019 07:38 1,3 C 3,9 C 0,6 C 86 % 1021,3 hPa 0,0 l/m 17,0 km/h (3 Bft) W 267 0 min 0,000 mm 0,0 UV-I 0 W/m -0,8 C -6,5 C 30,6 km/h (5 Bft) 98,11 %
02.01.2019 07:40 1,3 C 3,9 C 0,6 C 85 % 1021,3 hPa 0,0 l/m 19,1 km/h (3 Bft) W 271 0 min 0,000 mm 0,0 UV-I 0 W/m -0,9 C -7,5 C 33,8 km/h (5 Bft) 100,00 %
02.01.2019 07:42 1,3 C 3,9 C 0,6 C 85 % 1021,3 hPa 0,0 l/m 18,8 km/h (3 Bft) W 266 0 min 0,000 mm 0,0 UV-I 0 W/m -0,9 C -7,4 C 30,6 km/h (5 Bft) 98,00 %
02.01.2019 07:44 1,3 C 3,9 C 0,6 C 85 % 1021,4 hPa 0,0 l/m 22,8 km/h (4 Bft) W 271 0 min 0,000 mm 0,0 UV-I 0 W/m -0,9 C -9,1 C 43,5 km/h (6 Bft) 100,00 %
02.01.2019 07:46 1,3 C 3,9 C 0,6 C 85 % 1021,3 hPa 0,0 l/m 27,0 km/h (4 Bft) W 268 0 min 0,000 mm 0,0 UV-I 0 W/m -0,9 C -10,6 C 43,5 km/h (6 Bft) 100,00 %
02.01.2019 07:48 1,3 C 3,9 C 0,6 C 85 % 1021,3 hPa 0,0 l/m 22,3 km/h (4 Bft) W 281 0 min 0,000 mm 0,0 UV-I 0 W/m -0,9 C -8,9 C 37,0 km/h (5 Bft) 100,00 %
02.01.2019 07:50 1,3 C 3,9 C 0,6 C 85 % 1021,2 hPa 0,0 l/m 24,7 km/h (4 Bft) W-SW 257 0 min 0,000 mm 0,0 UV-I 0 W/m -0,9 C -9,8 C 37,0 km/h (5 Bft) 98,31 %
02.01.2019 07:52 1,3 C 3,9 C 0,6 C 85 % 1021,3 hPa 0,0 l/m 29,1 km/h (5 Bft) W-NW 284 0 min 0,000 mm 0,0 UV-I 0 W/m -0,9 C -11,3 C 40,2 km/h (6 Bft) 95,65 %
02.01.2019 07:54 1,4 C 3,9 C 0,6 C 85 % 1021,3 hPa 0,0 l/m 20,2 km/h (4 Bft) W-NW 294 0 min 0,000 mm 0,0 UV-I 0 W/m -0,8 C -7,9 C 29,0 km/h (5 Bft) 98,53 %
02.01.2019 07:56 1,4 C 3,9 C 0,6 C 85 % 1021,3 hPa 0,0 l/m 19,4 km/h (3 Bft) W 261 0 min 0,000 mm 0,0 UV-I 2 W/m -0,8 C -7,6 C 35,4 km/h (5 Bft) 97,56 %
02.01.2019 07:58 1,4 C 3,9 C 0,6 C 85 % 1021,3 hPa 0,0 l/m 27,1 km/h (4 Bft) W-NW 282 0 min 0,000 mm 0,0 UV-I 5 W/m -0,8 C -10,5 C 43,5 km/h (6 Bft) 96,00 %
02.01.2019 08:00 1,4 C 3,9 C 0,6 C 84 % 1021,3 hPa 0,0 l/m 24,2 km/h (4 Bft) W 277 0 min 0,026 mm 0,0 UV-I 5 W/m -1,0 C -9,5 C 40,2 km/h (6 Bft) 98,00 %
02.01.2019 08:02 1,4 C 3,9 C 0,6 C 84 % 1021,2 hPa 0,0 l/m 20,4 km/h (4 Bft) W 280 0 min 0,000 mm 0,0 UV-I 5 W/m -1,0 C -8,0 C 37,0 km/h (5 Bft) 97,87 %
02.01.2019 08:04 1,4 C 3,9 C 0,6 C 85 % 1021,2 hPa 0,0 l/m 23,9 km/h (4 Bft) W 269 0 min 0,000 mm 0,0 UV-I 5 W/m -0,8 C -9,4 C 33,8 km/h (5 Bft) 98,00 %
02.01.2019 08:06 1,4 C 3,9 C 0,6 C 85 % 1021,3 hPa 0,0 l/m 25,3 km/h (4 Bft) W 259 0 min 0,000 mm 0,0 UV-I 5 W/m -0,8 C -9,9 C 40,2 km/h (6 Bft) 97,37 %
02.01.2019 08:08 1,4 C 3,9 C 0,6 C 85 % 1021,3 hPa 0,0 l/m 24,1 km/h (4 Bft) W 278 0 min 0,000 mm 0,0 UV-I 5 W/m -0,8 C -9,5 C 37,0 km/h (5 Bft) 96,00 %
02.01.2019 08:10 1,4 C 3,9 C 0,6 C 85 % 1021,3 hPa 0,0 l/m 25,3 km/h (4 Bft) W 275 0 min 0,000 mm 0,0 UV-I 7 W/m -0,8 C -9,9 C 41,8 km/h (6 Bft) 98,11 %
02.01.2019 08:12 1,4 C 3,9 C 0,6 C 84 % 1021,3 hPa 0,0 l/m 21,3 km/h (4 Bft) W 272 0 min 0,000 mm 0,0 UV-I 7 W/m -1,0 C -8,4 C 38,6 km/h (5 Bft) 100,00 %
02.01.2019 08:14 1,4 C 3,9 C 0,6 C 84 % 1021,2 hPa 0,0 l/m 23,6 km/h (4 Bft) W 269 0 min 0,000 mm 0,0 UV-I 7 W/m -1,0 C -9,3 C 38,6 km/h (5 Bft) 100,00 %
02.01.2019 08:16 1,4 C 3,9 C 0,6 C 84 % 1021,2 hPa 0,0 l/m 24,2 km/h (4 Bft) W-NW 286 0 min 0,000 mm 0,0 UV-I 7 W/m -1,0 C -9,5 C 37,0 km/h (5 Bft) 100,00 %
02.01.2019 08:18 1,4 C 3,9 C 0,6 C 84 % 1021,3 hPa 0,0 l/m 26,1 km/h (4 Bft) W-NW 282 0 min 0,000 mm 0,0 UV-I 8 W/m -1,0 C -10,2 C 45,1 km/h (6 Bft) 97,44 %
02.01.2019 08:20 1,4 C 3,9 C 0,6 C 84 % 1021,2 hPa 0,0 l/m 24,2 km/h (4 Bft) W 263 0 min 0,000 mm 0,0 UV-I 8 W/m -1,0 C -9,5 C 38,6 km/h (5 Bft) 100,00 %
02.01.2019 08:22 1,4 C 3,9 C 0,6 C 84 % 1021,1 hPa 0,0 l/m 25,1 km/h (4 Bft) W 276 0 min 0,000 mm 0,0 UV-I 9 W/m -1,0 C -9,9 C 41,8 km/h (6 Bft) 98,53 %
02.01.2019 08:24 1,4 C 3,9 C 0,6 C 84 % 1021,2 hPa 0,0 l/m 20,5 km/h (4 Bft) W 275 0 min 0,000 mm 0,0 UV-I 9 W/m -1,0 C -8,0 C 37,0 km/h (5 Bft) 97,56 %
02.01.2019 08:26 1,4 C 3,9 C 0,6 C 84 % 1021,3 hPa 0,0 l/m 22,0 km/h (4 Bft) W 278 0 min 0,000 mm 0,0 UV-I 9 W/m -1,0 C -8,7 C 37,0 km/h (5 Bft) 100,00 %
02.01.2019 08:28 1,4 C 3,9 C 1,1 C 84 % 1021,4 hPa 0,0 l/m 25,4 km/h (4 Bft) W-NW 284 0 min 0,000 mm 0,0 UV-I 9 W/m -1,0 C -10,0 C 43,5 km/h (6 Bft) 100,00 %
02.01.2019 08:30 1,4 C 3,9 C 1,1 C 84 % 1021,5 hPa 0,0 l/m 23,3 km/h (4 Bft) W-NW 287 0 min 0,000 mm 0,0 UV-I 11 W/m -1,0 C -9,2 C 35,4 km/h (5 Bft) 100,00 %
02.01.2019 08:32 1,4 C 3,9 C 1,1 C 84 % 1021,4 hPa 0,0 l/m 19,1 km/h (3 Bft) W-NW 294 0 min 0,000 mm 0,0 UV-I 11 W/m -1,0 C -7,4 C 29,0 km/h (5 Bft) 100,00 %
02.01.2019 08:34 1,4 C 3,9 C 1,1 C 84 % 1021,5 hPa 0,0 l/m 20,3 km/h (4 Bft) W-SW 254 0 min 0,000 mm 0,0 UV-I 11 W/m -1,0 C -8,0 C 30,6 km/h (5 Bft) 100,00 %
02.01.2019 08:36 1,4 C 3,9 C 1,1 C 85 % 1021,3 hPa 0,0 l/m 18,1 km/h (3 Bft) W 279 0 min 0,000 mm 0,0 UV-I 12 W/m -0,8 C -6,9 C 25,7 km/h (4 Bft) 96,00 %
02.01.2019 08:38 1,4 C 3,9 C 1,1 C 85 % 1021,5 hPa 0,0 l/m 18,9 km/h (3 Bft) W-SW 252 0 min 0,000 mm 0,0 UV-I 11 W/m -0,8 C -7,3 C 30,6 km/h (5 Bft) 100,00 %
02.01.2019 08:40 1,4 C 3,9 C 1,1 C 85 % 1021,5 hPa 0,0 l/m 21,8 km/h (4 Bft) W 279 0 min 0,000 mm 0,0 UV-I 12 W/m -0,8 C -8,6 C 33,8 km/h (5 Bft) 100,00 %
02.01.2019 08:42 1,4 C 3,9 C 1,1 C 85 % 1021,5 hPa 0,0 l/m 20,6 km/h (4 Bft) W 259 0 min 0,000 mm 0,0 UV-I 12 W/m -0,8 C -8,1 C 29,0 km/h (5 Bft) 100,00 %
02.01.2019 08:44 1,4 C 3,9 C 1,1 C 85 % 1021,6 hPa 0,0 l/m 21,1 km/h (4 Bft) W 281 0 min 0,000 mm 0,0 UV-I 14 W/m -0,8 C -8,3 C 30,6 km/h (5 Bft) 97,56 %
02.01.2019 08:46 1,4 C 3,9 C 1,1 C 85 % 1021,6 hPa 0,0 l/m 18,5 km/h (3 Bft) W 281 0 min 0,000 mm 0,0 UV-I 19 W/m -0,8 C -7,1 C 38,6 km/h (5 Bft) 97,56 %
02.01.2019 08:48 1,4 C 3,9 C 1,1 C 85 % 1021,6 hPa 0,0 l/m 21,4 km/h (4 Bft) W 269 0 min 0,000 mm 0,0 UV-I 21 W/m -0,8 C -8,4 C 43,5 km/h (6 Bft) 100,00 %
02.01.2019 08:50 1,3 C 3,9 C 1,1 C 86 % 1021,5 hPa 0,0 l/m 23,7 km/h (4 Bft) W 271 0 min 0,000 mm 0,0 UV-I 23 W/m -0,8 C -9,5 C 37,0 km/h (5 Bft) 100,00 %
02.01.2019 08:52 1,3 C 3,9 C 0,6 C 86 % 1021,6 hPa 0,0 l/m 23,0 km/h (4 Bft) W 275 0 min 0,000 mm 0,0 UV-I 25 W/m -0,8 C -9,2 C 38,6 km/h (5 Bft) 100,00 %
02.01.2019 08:54 1,2 C 3,9 C 0,6 C 87 % 1021,5 hPa 0,0 l/m 21,7 km/h (4 Bft) W 278 0 min 0,000 mm 0,0 UV-I 24 W/m -0,7 C -8,8 C 38,6 km/h (5 Bft) 98,51 %
02.01.2019 08:56 1,2 C 3,9 C 0,6 C 87 % 1021,7 hPa 0,0 l/m 19,7 km/h (3 Bft) W-SW 256 0 min 0,000 mm 0,0 UV-I 23 W/m -0,7 C -7,9 C 29,0 km/h (5 Bft) 97,22 %
02.01.2019 08:58 1,2 C 3,9 C 0,6 C 87 % 1021,7 hPa 0,0 l/m 23,9 km/h (4 Bft) W 274 0 min 0,000 mm 0,0 UV-I 23 W/m -0,7 C -9,7 C 43,5 km/h (6 Bft) 94,00 %
02.01.2019 09:00 1,1 C 3,9 C 0,6 C 88 % 1021,5 hPa 0,0 l/m 16,5 km/h (3 Bft) W-NW 291 0 min 0,025 mm 0,0 UV-I 25 W/m -0,7 C -6,5 C 27,4 km/h (4 Bft) 98,39 %
02.01.2019 09:02 1,1 C 3,9 C 0,6 C 88 % 1021,7 hPa 0,0 l/m 18,3 km/h (3 Bft) W-SW 249 0 min 0,000 mm 0,0 UV-I 28 W/m -0,7 C -7,4 C 25,7 km/h (4 Bft) 97,56 %
02.01.2019 09:04 1,0 C 3,9 C 0,0 C 89 % 1021,7 hPa 0,0 l/m 16,8 km/h (3 Bft) W 265 0 min 0,000 mm 0,0 UV-I 30 W/m -0,6 C -6,8 C 27,4 km/h (4 Bft) 96,00 %
02.01.2019 09:06 0,9 C 3,9 C 0,6 C 89 % 1021,7 hPa 0,0 l/m 20,7 km/h (4 Bft) W-NW 284 0 min 0,000 mm 0,0 UV-I 41 W/m -0,7 C -8,8 C 32,2 km/h (5 Bft) 97,56 %
02.01.2019 09:08 0,9 C 3,9 C 0,6 C 89 % 1021,7 hPa 0,0 l/m 20,6 km/h (4 Bft) W 270 0 min 0,000 mm 0,0 UV-I 45 W/m -0,7 C -8,7 C 35,4 km/h (5 Bft) 94,00 %
02.01.2019 09:10 0,8 C 3,9 C 0,6 C 90 % 1021,7 hPa 0,0 l/m 25,8 km/h (4 Bft) W 261 0 min 0,000 mm 0,0 UV-I 50 W/m -0,6 C -10,9 C 40,2 km/h (6 Bft) 95,74 %
02.01.2019 09:12 0,8 C 3,9 C 0,6 C 90 % 1021,7 hPa 0,0 l/m 24,0 km/h (4 Bft) W 273 0 min 0,000 mm 0,0 UV-I 51 W/m -0,6 C -10,3 C 40,2 km/h (6 Bft) 95,74 %
02.01.2019 09:14 0,8 C 4,4 C 0,6 C 91 % 1021,6 hPa 0,0 l/m 22,5 km/h (4 Bft) W 278 0 min 0,000 mm 0,0 UV-I 62 W/m -0,5 C -9,7 C 40,2 km/h (6 Bft) 90,24 %
02.01.2019 09:16 0,8 C 3,9 C 0,6 C 91 % 1021,7 hPa 0,0 l/m 20,6 km/h (4 Bft) W 277 0 min 0,000 mm 0,0 UV-I 61 W/m -0,5 C -8,9 C 37,0 km/h (5 Bft) 94,00 %
02.01.2019 09:18 0,7 C 3,9 C 0,6 C 91 % 1021,6 hPa 0,0 l/m 18,1 km/h (3 Bft) W 263 0 min 0,000 mm 0,0 UV-I 55 W/m -0,6 C -7,8 C 29,0 km/h (5 Bft) 94,74 %
02.01.2019 09:20 0,7 C 3,9 C 0,6 C 91 % 1021,7 hPa 0,0 l/m 17,0 km/h (3 Bft) W-SW 246 0 min 0,000 mm 0,0 UV-I 53 W/m -0,6 C -7,3 C 24,1 km/h (4 Bft) 95,16 %
02.01.2019 09:22 0,7 C 3,9 C 0,6 C 92 % 1021,8 hPa 0,0 l/m 19,2 km/h (3 Bft) W 268 0 min 0,000 mm 0,0 UV-I 50 W/m -0,4 C -8,4 C 30,6 km/h (5 Bft) 90,24 %
02.01.2019 09:24 0,7 C 3,9 C 0,6 C 92 % 1021,8 hPa 0,0 l/m 20,0 km/h (4 Bft) W 267 0 min 0,000 mm 0,0 UV-I 49 W/m -0,4 C -8,7 C 38,6 km/h (5 Bft) 95,12 %
02.01.2019 09:26 0,7 C 3,9 C 0,6 C 92 % 1021,7 hPa 0,0 l/m 20,0 km/h (4 Bft) W 266 0 min 0,000 mm 0,0 UV-I 50 W/m -0,4 C -8,7 C 29,0 km/h (5 Bft) 94,34 %
02.01.2019 09:28 0,7 C 3,9 C 0,6 C 92 % 1021,8 hPa 0,0 l/m 14,4 km/h (3 Bft) W-SW 257 0 min 0,000 mm 0,0 UV-I 53 W/m -0,4 C -5,8 C 20,9 km/h (4 Bft) 96,23 %
02.01.2019 09:30 0,8 C 3,9 C 0,6 C 92 % 1021,7 hPa 0,0 l/m 21,8 km/h (4 Bft) W 265 0 min 0,000 mm 0,0 UV-I 63 W/m -0,3 C -9,4 C 41,8 km/h (6 Bft) 97,73 %
02.01.2019 09:32 0,8 C 3,9 C 0,6 C 92 % 1021,8 hPa 0,0 l/m 21,5 km/h (4 Bft) W 259 0 min 0,000 mm 0,0 UV-I 63 W/m -0,3 C -9,3 C 29,0 km/h (5 Bft) 97,56 %
02.01.2019 09:34 0,8 C 3,9 C 0,6 C 92 % 1022,0 hPa 0,0 l/m 20,7 km/h (4 Bft) W-SW 255 0 min 0,000 mm 0,0 UV-I 60 W/m -0,3 C -8,9 C 32,2 km/h (5 Bft) 97,78 %
02.01.2019 09:36 0,9 C 3,9 C 0,6 C 92 % 1021,9 hPa 0,0 l/m 24,3 km/h (4 Bft) W 281 0 min 0,000 mm 0,0 UV-I 63 W/m -0,2 C -10,2 C 37,0 km/h (5 Bft) 98,00 %
02.01.2019 09:38 1,0 C 3,9 C 1,1 C 92 % 1022,0 hPa 0,0 l/m 15,1 km/h (3 Bft) W 261 0 min 0,000 mm 0,0 UV-I 67 W/m -0,2 C -5,8 C 24,1 km/h (4 Bft) 100,00 %
02.01.2019 09:40 1,1 C 3,9 C 1,1 C 91 % 1022,0 hPa 0,0 l/m 16,0 km/h (3 Bft) NW 316 0 min 0,000 mm 0,0 UV-I 58 W/m -0,2 C -6,2 C 24,1 km/h (4 Bft) 100,00 %
02.01.2019 09:42 1,1 C 3,9 C 1,1 C 91 % 1022,0 hPa 0,0 l/m 22,4 km/h (4 Bft) W-NW 302 0 min 0,000 mm 0,0 UV-I 43 W/m -0,2 C -9,2 C 48,3 km/h (6 Bft) 98,00 %
02.01.2019 09:44 1,2 C 3,9 C 1,1 C 90 % 1022,0 hPa 0,0 l/m 16,7 km/h (3 Bft) W 260 0 min 0,000 mm 0,0 UV-I 35 W/m -0,3 C -6,5 C 25,7 km/h (4 Bft) 100,00 %
02.01.2019 09:46 1,2 C 3,9 C 1,1 C 90 % 1022,0 hPa 0,0 l/m 17,5 km/h (3 Bft) W 259 0 min 0,000 mm 0,0 UV-I 39 W/m -0,3 C -6,9 C 30,6 km/h (5 Bft) 100,00 %
02.01.2019 09:48 1,3 C 3,9 C 1,1 C 90 % 1022,0 hPa 0,0 l/m 14,4 km/h (3 Bft) W-SW 251 0 min 0,000 mm 0,0 UV-I 40 W/m -0,2 C -5,1 C 22,5 km/h (4 Bft) 98,21 %
02.01.2019 09:50 1,3 C 3,9 C 1,1 C 89 % 1021,9 hPa 0,0 l/m 25,0 km/h (4 Bft) NW 309 0 min 0,000 mm 0,0 UV-I 56 W/m -0,3 C -10,0 C 38,6 km/h (5 Bft) 100,00 %
02.01.2019 09:52 1,3 C 3,9 C 1,1 C 89 % 1022,1 hPa 0,0 l/m 24,0 km/h (4 Bft) W-NW 298 0 min 0,000 mm 0,0 UV-I 74 W/m -0,3 C -9,6 C 40,2 km/h (6 Bft) 100,00 %
02.01.2019 09:54 1,4 C 3,9 C 1,1 C 89 % 1022,1 hPa 0,0 l/m 15,6 km/h (3 Bft) W-NW 284 0 min 0,000 mm 0,0 UV-I 75 W/m -0,2 C -5,6 C 24,1 km/h (4 Bft) 100,00 %
02.01.2019 09:56 1,4 C 3,9 C 1,1 C 89 % 1022,0 hPa 0,0 l/m 23,2 km/h (4 Bft) W 281 0 min 0,000 mm 0,0 UV-I 76 W/m -0,2 C -9,2 C 37,0 km/h (5 Bft) 98,00 %
02.01.2019 09:59 1,5 C 3,9 C 1,1 C 88 % 1022,1 hPa 0,0 l/m 17,2 km/h (3 Bft) W-SW 244 0 min 0,000 mm 0,0 UV-I 63 W/m -0,3 C -6,4 C 32,2 km/h (5 Bft) 98,53 %
02.01.2019 10:00 1,5 C 3,9 C 1,1 C 88 % 1022,1 hPa 0,0 l/m 19,7 km/h (3 Bft) W-NW 298 0 min 0,025 mm 0,0 UV-I 53 W/m -0,3 C -7,6 C 29,0 km/h (5 Bft) 100,00 %
02.01.2019 10:02 1,6 C 3,9 C 1,1 C 87 % 1022,1 hPa 0,0 l/m 15,8 km/h (3 Bft) W 262 0 min 0,000 mm 0,0 UV-I 46 W/m -0,3 C -5,5 C 30,6 km/h (5 Bft) 100,00 %
02.01.2019 10:04 1,6 C 3,9 C 1,1 C 87 % 1022,3 hPa 0,0 l/m 18,8 km/h (3 Bft) W-NW 290 0 min 0,000 mm 0,0 UV-I 36 W/m -0,3 C -7,0 C 30,6 km/h (5 Bft) 98,00 %
02.01.2019 10:06 1,6 C 3,9 C 1,1 C 87 % 1022,4 hPa 0,0 l/m 14,7 km/h (3 Bft) W 266 0 min 0,000 mm 0,0 UV-I 32 W/m -0,3 C -4,9 C 37,0 km/h (5 Bft) 100,00 %
02.01.2019 10:08 1,6 C 3,9 C 1,1 C 87 % 1022,4 hPa 0,0 l/m 11,5 km/h (2 Bft) N-NW 332 0 min 0,000 mm 0,0 UV-I 23 W/m -0,3 C -2,8 C 19,3 km/h (3 Bft) 100,00 %
02.01.2019 10:10 1,6 C 3,9 C 1,1 C 87 % 1022,6 hPa 0,0 l/m 17,7 km/h (3 Bft) W 259 0 min 0,000 mm 0,0 UV-I 22 W/m -0,3 C -6,5 C 29,0 km/h (5 Bft) 97,37 %
02.01.2019 10:12 1,6 C 3,9 C 1,1 C 87 % 1022,7 hPa 0,0 l/m 15,5 km/h (3 Bft) NW 311 0 min 0,000 mm 0,0 UV-I 35 W/m -0,3 C -5,3 C 35,4 km/h (5 Bft) 100,00 %
02.01.2019 10:14 1,6 C 3,9 C 1,1 C 87 % 1022,6 hPa 0,0 l/m 15,9 km/h (3 Bft) W 270 0 min 0,000 mm 0,0 UV-I 34 W/m -0,3 C -5,5 C 30,6 km/h (5 Bft) 98,18 %
02.01.2019 10:16 1,6 C 3,9 C 1,1 C 86 % 1022,6 hPa 0,0 l/m 14,7 km/h (3 Bft) W-NW 284 0 min 0,000 mm 0,0 UV-I 27 W/m -0,5 C -4,9 C 22,5 km/h (4 Bft) 100,00 %
02.01.2019 10:18 1,6 C 3,9 C 1,1 C 86 % 1022,5 hPa 0,0 l/m 13,3 km/h (3 Bft) W-NW 284 0 min 0,000 mm 0,0 UV-I 39 W/m -0,5 C -4,0 C 24,1 km/h (4 Bft) 98,11 %
02.01.2019 10:20 1,6 C 3,9 C 1,1 C 86 % 1022,5 hPa 0,0 l/m 13,7 km/h (3 Bft) W 270 0 min 0,000 mm 0,0 UV-I 64 W/m -0,5 C -4,3 C 25,7 km/h (4 Bft) 96,00 %
02.01.2019 10:22 1,7 C 3,9 C 1,1 C 86 % 1022,4 hPa 0,0 l/m 16,9 km/h (3 Bft) NW 309 0 min 0,000 mm 0,0 UV-I 54 W/m -0,4 C -6,0 C 29,0 km/h (5 Bft) 92,11 %
02.01.2019 10:24 1,7 C 3,9 C 1,1 C 86 % 1022,4 hPa 0,0 l/m 14,7 km/h (3 Bft) W-NW 302 0 min 0,000 mm 0,0 UV-I 60 W/m -0,4 C -4,7 C 27,4 km/h (4 Bft) 96,00 %
02.01.2019 10:26 1,7 C 3,9 C 1,1 C 85 % 1022,4 hPa 0,0 l/m 18,1 km/h (3 Bft) W 264 0 min 0,000 mm 0,0 UV-I 86 W/m -0,5 C -6,6 C 32,2 km/h (5 Bft) 95,74 %
02.01.2019 10:28 1,7 C 3,9 C 1,7 C 85 % 1022,5 hPa 0,0 l/m 15,3 km/h (3 Bft) W-NW 296 2 min 0,000 mm 0,0 UV-I 176 W/m -0,5 C -5,1 C 29,0 km/h (5 Bft) 96,00 %
02.01.2019 10:30 1,8 C 3,9 C 1,7 C 84 % 1022,3 hPa 0,0 l/m 13,0 km/h (3 Bft) W-NW 284 2 min 0,000 mm 0,0 UV-I 191 W/m -0,6 C -3,6 C 20,9 km/h (4 Bft) 97,73 %
02.01.2019 10:32 1,9 C 3,9 C 1,7 C 84 % 1022,4 hPa 0,0 l/m 16,2 km/h (3 Bft) W-NW 290 2 min 0,000 mm 0,0 UV-I 179 W/m -0,5 C -5,3 C 25,7 km/h (4 Bft) 90,24 %
02.01.2019 10:34 2,0 C 3,9 C 1,7 C 84 % 1022,4 hPa 0,0 l/m 16,7 km/h (3 Bft) W 279 0 min 0,000 mm 0,0 UV-I 108 W/m -0,4 C -5,5 C 27,4 km/h (4 Bft) 95,74 %
02.01.2019 10:36 2,1 C 3,9 C 1,1 C 83 % 1022,3 hPa 0,0 l/m 25,5 km/h (4 Bft) W 265 0 min 0,000 mm 0,0 UV-I 82 W/m -0,5 C -9,0 C 41,8 km/h (6 Bft) 91,07 %
02.01.2019 10:38 2,0 C 3,9 C 1,7 C 83 % 1022,4 hPa 0,0 l/m 22,5 km/h (4 Bft) W-NW 299 0 min 0,000 mm 0,0 UV-I 114 W/m -0,6 C -8,1 C 45,1 km/h (6 Bft) 95,74 %
02.01.2019 10:40 2,1 C 3,9 C 1,7 C 83 % 1022,2 hPa 0,2 l/m 24,8 km/h (4 Bft) W-NW 302 0 min 0,000 mm 0,0 UV-I 110 W/m -0,5 C -8,8 C 43,5 km/h (6 Bft) 97,37 %
02.01.2019 10:42 2,1 C 3,9 C 1,7 C 82 % 1022,2 hPa 0,0 l/m 17,9 km/h (3 Bft) W 279 2 min 0,000 mm 0,0 UV-I 160 W/m -0,6 C -6,0 C 38,6 km/h (5 Bft) 94,00 %
02.01.2019 10:44 2,2 C 3,9 C 1,7 C 83 % 1022,2 hPa 0,0 l/m 18,1 km/h (3 Bft) W-SW 248 2 min 0,000 mm 0,0 UV-I 271 W/m -0,4 C -5,9 C 29,0 km/h (5 Bft) 95,12 %
02.01.2019 10:46 2,2 C 3,9 C 2,2 C 83 % 1022,2 hPa 0,0 l/m 19,2 km/h (3 Bft) NW 321 2 min 0,000 mm 0,0 UV-I 263 W/m -0,4 C -6,4 C 40,2 km/h (6 Bft) 94,34 %
02.01.2019 10:48 2,3 C 3,9 C 1,7 C 82 % 1022,4 hPa 0,0 l/m 21,2 km/h (4 Bft) N 349 2 min 0,000 mm 0,0 UV-I 263 W/m -0,4 C -7,2 C 33,8 km/h (5 Bft) 97,73 %
02.01.2019 10:50 2,3 C 3,9 C 2,2 C 81 % 1022,2 hPa 0,0 l/m 23,0 km/h (4 Bft) NW 317 2 min 0,000 mm 0,0 UV-I 267 W/m -0,6 C -7,9 C 40,2 km/h (6 Bft) 96,00 %
02.01.2019 10:52 2,4 C 3,9 C 2,2 C 81 % 1022,3 hPa 0,0 l/m 21,7 km/h (4 Bft) NW 323 2 min 0,000 mm 0,0 UV-I 264 W/m -0,5 C -7,2 C 37,0 km/h (5 Bft) 98,00 %
02.01.2019 10:54 2,5 C 3,9 C 2,2 C 81 % 1022,2 hPa 0,0 l/m 18,0 km/h (3 Bft) W 281 2 min 0,000 mm 0,0 UV-I 267 W/m -0,4 C -5,5 C 35,4 km/h (5 Bft) 94,44 %
02.01.2019 10:56 2,6 C 3,9 C 2,8 C 80 % 1022,3 hPa 0,0 l/m 20,8 km/h (4 Bft) W-NW 284 2 min 0,000 mm 0,0 UV-I 273 W/m -0,5 C -6,6 C 35,4 km/h (5 Bft) 96,55 %
02.01.2019 10:58 2,6 C 3,9 C 2,8 C 80 % 1022,3 hPa 0,0 l/m 23,5 km/h (4 Bft) W-SW 255 2 min 0,000 mm 0,0 UV-I 287 W/m -0,5 C -7,7 C 40,2 km/h (6 Bft) 97,92 %
02.01.2019 11:00 2,6 C 3,9 C 2,2 C 80 % 1022,2 hPa 0,0 l/m 21,8 km/h (4 Bft) W-SW 242 2 min 0,077 mm 0,0 UV-I 284 W/m -0,5 C -7,0 C 33,8 km/h (5 Bft) 92,68 %
02.01.2019 11:02 2,6 C 3,9 C 2,8 C 80 % 1022,2 hPa 0,0 l/m 14,6 km/h (3 Bft) W-NW 297 2 min 0,000 mm 0,0 UV-I 288 W/m -0,5 C -3,6 C 24,1 km/h (4 Bft) 94,34 %
02.01.2019 11:04 2,7 C 3,9 C 2,8 C 80 % 1022,3 hPa 0,0 l/m 21,5 km/h (4 Bft) W-NW 285 2 min 0,000 mm 0,0 UV-I 289 W/m -0,4 C -6,8 C 30,6 km/h (5 Bft) 95,12 %
02.01.2019 11:06 2,7 C 3,9 C 2,8 C 80 % 1022,3 hPa 0,0 l/m 25,4 km/h (4 Bft) W-NW 290 2 min 0,000 mm 0,0 UV-I 290 W/m -0,4 C -8,2 C 40,2 km/h (6 Bft) 95,45 %
02.01.2019 11:08 2,7 C 3,9 C 2,8 C 79 % 1022,3 hPa 0,0 l/m 24,5 km/h (4 Bft) W-NW 292 2 min 0,000 mm 0,0 UV-I 243 W/m -0,6 C -7,9 C 40,2 km/h (6 Bft) 95,74 %
02.01.2019 11:10 2,7 C 3,9 C 2,8 C 79 % 1022,4 hPa 0,0 l/m 15,9 km/h (3 Bft) W 262 0 min 0,000 mm 0,0 UV-I 92 W/m -0,6 C -4,2 C 32,2 km/h (5 Bft) 91,49 %
02.01.2019 11:12 2,6 C 3,9 C 2,2 C 79 % 1022,3 hPa 0,0 l/m 19,9 km/h (4 Bft) W 274 0 min 0,000 mm 0,0 UV-I 80 W/m -0,7 C -6,2 C 30,6 km/h (5 Bft) 95,74 %
02.01.2019 11:14 2,5 C 3,9 C 2,8 C 79 % 1022,3 hPa 0,0 l/m 17,2 km/h (3 Bft) W 272 0 min 0,000 mm 0,0 UV-I 89 W/m -0,8 C -5,1 C 29,0 km/h (5 Bft) 96,00 %
02.01.2019 11:16 2,6 C 3,9 C 2,8 C 80 % 1022,4 hPa 0,0 l/m 17,3 km/h (3 Bft) W-SW 254 2 min 0,000 mm 0,0 UV-I 286 W/m -0,5 C -5,0 C 30,6 km/h (5 Bft) 93,62 %
02.01.2019 11:18 2,6 C 3,9 C 3,3 C 80 % 1022,5 hPa 0,0 l/m 17,7 km/h (3 Bft) W 277 2 min 0,000 mm 0,0 UV-I 277 W/m -0,5 C -5,2 C 40,2 km/h (6 Bft) 95,45 %
02.01.2019 11:20 2,7 C 3,9 C 3,3 C 79 % 1022,3 hPa 0,0 l/m 21,6 km/h (4 Bft) W 274 0 min 0,000 mm 0,0 UV-I 176 W/m -0,6 C -6,8 C 41,8 km/h (6 Bft) 96,23 %
02.01.2019 11:22 2,7 C 3,9 C 3,9 C 78 % 1022,4 hPa 0,0 l/m 27,6 km/h (4 Bft) W 281 2 min 0,000 mm 0,4 UV-I 294 W/m -0,7 C -8,9 C 45,1 km/h (6 Bft) 93,62 %
02.01.2019 11:24 2,8 C 3,9 C 3,9 C 78 % 1022,5 hPa 0,0 l/m 12,8 km/h (3 Bft) W-NW 290 2 min 0,000 mm 0,5 UV-I 331 W/m -0,6 C -2,3 C 19,3 km/h (3 Bft) 97,56 %
02.01.2019 11:26 2,8 C 3,9 C 3,9 C 77 % 1022,4 hPa 0,0 l/m 24,6 km/h (4 Bft) NW 310 2 min 0,000 mm 0,5 UV-I 339 W/m -0,8 C -7,8 C 46,7 km/h (6 Bft) 93,62 %
02.01.2019 11:28 2,8 C 3,9 C 3,9 C 77 % 1022,6 hPa 0,0 l/m 22,0 km/h (4 Bft) W 271 2 min 0,000 mm 0,3 UV-I 314 W/m -0,8 C -6,8 C 37,0 km/h (5 Bft) 95,74 %
02.01.2019 11:30 2,8 C 3,9 C 3,3 C 77 % 1022,4 hPa 0,2 l/m 26,4 km/h (4 Bft) W 272 2 min 0,000 mm 0,5 UV-I 318 W/m -0,8 C -8,4 C 48,3 km/h (6 Bft) 96,23 %
02.01.2019 11:32 2,9 C 3,9 C 3,9 C 77 % 1022,5 hPa 0,0 l/m 13,6 km/h (3 Bft) NW 304 2 min 0,000 mm 0,5 UV-I 329 W/m -0,7 C -2,7 C 20,9 km/h (4 Bft) 97,62 %
02.01.2019 11:34 2,9 C 3,9 C 3,9 C 77 % 1022,5 hPa 0,0 l/m 19,0 km/h (3 Bft) W-NW 282 2 min 0,000 mm 0,2 UV-I 316 W/m -0,7 C -5,4 C 29,0 km/h (5 Bft) 96,00 %
02.01.2019 11:36 3,0 C 3,9 C 4,4 C 77 % 1022,5 hPa 0,0 l/m 19,4 km/h (3 Bft) W-SW 254 2 min 0,000 mm 0,5 UV-I 343 W/m -0,6 C -5,5 C 27,4 km/h (4 Bft) 96,00 %
02.01.2019 11:38 3,1 C 3,9 C 4,4 C 76 % 1022,5 hPa 0,0 l/m 21,3 km/h (4 Bft) W 281 2 min 0,000 mm 0,4 UV-I 355 W/m -0,7 C -6,2 C 38,6 km/h (5 Bft) 94,74 %
02.01.2019 11:40 3,1 C 3,9 C 4,4 C 76 % 1022,5 hPa 0,0 l/m 15,8 km/h (3 Bft) W 280 2 min 0,000 mm 0,5 UV-I 356 W/m -0,7 C -3,7 C 30,6 km/h (5 Bft) 93,62 %
02.01.2019 11:42 3,2 C 3,9 C 5,0 C 76 % 1022,4 hPa 0,0 l/m 21,0 km/h (4 Bft) W-NW 300 2 min 0,000 mm 0,5 UV-I 364 W/m -0,6 C -5,9 C 40,2 km/h (6 Bft) 96,23 %
02.01.2019 11:44 3,2 C 3,9 C 4,4 C 75 % 1022,5 hPa 0,0 l/m 27,9 km/h (4 Bft) W 277 2 min 0,000 mm 0,5 UV-I 335 W/m -0,8 C -8,3 C 41,8 km/h (6 Bft) 95,12 %
02.01.2019 11:46 3,2 C 3,9 C 4,4 C 75 % 1022,6 hPa 0,0 l/m 18,6 km/h (3 Bft) W 279 2 min 0,000 mm 0,5 UV-I 344 W/m -0,8 C -4,9 C 27,4 km/h (4 Bft) 95,12 %
02.01.2019 11:48 3,2 C 3,9 C 4,4 C 75 % 1022,5 hPa 0,0 l/m 14,5 km/h (3 Bft) W-SW 258 2 min 0,000 mm 0,5 UV-I 310 W/m -0,8 C -2,8 C 24,1 km/h (4 Bft) 94,64 %
02.01.2019 11:50 3,2 C 3,9 C 4,4 C 75 % 1022,6 hPa 0,0 l/m 12,8 km/h (3 Bft) W 261 2 min 0,000 mm 0,5 UV-I 324 W/m -0,8 C -1,8 C 32,2 km/h (5 Bft) 93,62 %
02.01.2019 11:52 3,2 C 3,9 C 4,4 C 75 % 1022,5 hPa 0,0 l/m 22,6 km/h (4 Bft) W-NW 286 2 min 0,000 mm 0,5 UV-I 327 W/m -0,8 C -6,5 C 38,6 km/h (5 Bft) 95,74 %
02.01.2019 11:54 3,2 C 3,9 C 4,4 C 74 % 1022,5 hPa 0,0 l/m 21,9 km/h (4 Bft) W-NW 291 2 min 0,000 mm 0,5 UV-I 324 W/m -1,0 C -6,3 C 41,8 km/h (6 Bft) 94,00 %
02.01.2019 11:56 3,2 C 3,9 C 5,0 C 74 % 1022,5 hPa 0,0 l/m 28,8 km/h (4 Bft) W 267 2 min 0,000 mm 0,5 UV-I 337 W/m -1,0 C -8,6 C 49,9 km/h (6 Bft) 97,73 %
02.01.2019 11:58 3,2 C 3,9 C 4,4 C 74 % 1022,5 hPa 0,0 l/m 25,7 km/h (4 Bft) W 277 2 min 0,000 mm 0,5 UV-I 316 W/m -1,0 C -7,6 C 51,5 km/h (7 Bft) 94,74 %
02.01.2019 12:00 3,2 C 3,9 C 3,9 C 74 % 1022,4 hPa 0,0 l/m 27,3 km/h (4 Bft) W-NW 298 2 min 0,152 mm 0,5 UV-I 302 W/m -1,0 C -8,1 C 48,3 km/h (6 Bft) 96,23 %
02.01.2019 12:02 3,1 C 3,9 C 3,9 C 74 % 1022,5 hPa 0,0 l/m 21,9 km/h (4 Bft) NW 308 2 min 0,000 mm 0,5 UV-I 307 W/m -1,1 C -6,4 C 38,6 km/h (5 Bft) 98,00 %
02.01.2019 12:04 3,1 C 3,9 C 3,9 C 73 % 1022,5 hPa 0,0 l/m 18,4 km/h (3 Bft) W 273 2 min 0,000 mm 0,2 UV-I 330 W/m -1,3 C -4,9 C 32,2 km/h (5 Bft) 95,45 %
02.01.2019 12:06 3,1 C 3,9 C 3,9 C 73 % 1022,3 hPa 0,0 l/m 25,5 km/h (4 Bft) W 267 2 min 0,000 mm 0,3 UV-I 296 W/m -1,3 C -7,7 C 40,2 km/h (6 Bft) 97,87 %
02.01.2019 12:08 3,2 C 3,9 C 3,9 C 73 % 1022,5 hPa 0,0 l/m 23,1 km/h (4 Bft) W-SW 248 2 min 0,000 mm 0,5 UV-I 320 W/m -1,2 C -6,7 C 43,5 km/h (6 Bft) 96,23 %
02.01.2019 12:10 3,2 C 3,9 C 3,9 C 73 % 1022,5 hPa 0,0 l/m 21,5 km/h (4 Bft) W 281 2 min 0,000 mm 0,2 UV-I 316 W/m -1,2 C -6,1 C 40,2 km/h (6 Bft) 97,73 %
02.01.2019 12:12 3,1 C 3,9 C 3,9 C 73 % 1022,6 hPa 0,0 l/m 19,4 km/h (3 Bft) W 271 2 min 0,000 mm 0,2 UV-I 316 W/m -1,3 C -5,4 C 32,2 km/h (5 Bft) 97,78 %
02.01.2019 12:14 3,1 C 3,9 C 3,9 C 72 % 1022,6 hPa 0,0 l/m 23,0 km/h (4 Bft) NW 304 2 min 0,000 mm 0,2 UV-I 319 W/m -1,4 C -6,8 C 41,8 km/h (6 Bft) 96,00 %
02.01.2019 12:16 3,0 C 3,9 C 3,3 C 72 % 1022,7 hPa 0,0 l/m 17,8 km/h (3 Bft) W-NW 298 2 min 0,000 mm 0,3 UV-I 186 W/m -1,5 C -4,8 C 29,0 km/h (5 Bft) 97,37 %
02.01.2019 12:18 3,0 C 3,9 C 3,3 C 72 % 1022,6 hPa 0,0 l/m 20,4 km/h (4 Bft) W-SW 257 0 min 0,000 mm 0,2 UV-I 123 W/m -1,5 C -5,9 C 30,6 km/h (5 Bft) 98,11 %
02.01.2019 12:20 3,0 C 3,9 C 3,3 C 72 % 1022,6 hPa 0,0 l/m 18,3 km/h (3 Bft) W 267 0 min 0,000 mm 0,3 UV-I 174 W/m -1,5 C -5,0 C 30,6 km/h (5 Bft) 97,73 %
02.01.2019 12:22 3,0 C 3,9 C 3,3 C 72 % 1022,5 hPa 0,0 l/m 19,5 km/h (3 Bft) W-NW 303 0 min 0,000 mm 0,0 UV-I 82 W/m -1,5 C -5,5 C 32,2 km/h (5 Bft) 98,11 %
02.01.2019 12:24 3,0 C 3,9 C 3,3 C 72 % 1022,5 hPa 0,0 l/m 25,0 km/h (4 Bft) W-NW 282 2 min 0,000 mm 0,5 UV-I 265 W/m -1,5 C -7,7 C 48,3 km/h (6 Bft) 97,56 %
02.01.2019 12:26 3,1 C 3,9 C 3,3 C 71 % 1022,5 hPa 0,0 l/m 17,8 km/h (3 Bft) W-NW 302 2 min 0,000 mm 0,3 UV-I 313 W/m -1,6 C -4,6 C 29,0 km/h (5 Bft) 95,74 %
02.01.2019 12:28 3,1 C 3,9 C 3,9 C 71 % 1022,5 hPa 0,0 l/m 29,9 km/h (5 Bft) NW 317 2 min 0,000 mm 0,4 UV-I 337 W/m -1,6 C -9,0 C 66,0 km/h (8 Bft) 97,87 %
02.01.2019 12:30 3,1 C 3,9 C 3,9 C 70 % 1022,3 hPa 0,0 l/m 21,2 km/h (4 Bft) W 274 2 min 0,000 mm 0,0 UV-I 296 W/m -1,8 C -6,1 C 33,8 km/h (5 Bft) 94,34 %
02.01.2019 12:32 3,1 C 3,9 C 3,9 C 71 % 1022,4 hPa 0,0 l/m 19,6 km/h (3 Bft) W-NW 284 0 min 0,000 mm 0,0 UV-I 177 W/m -1,6 C -5,5 C 27,4 km/h (4 Bft) 97,56 %
02.01.2019 12:34 3,0 C 3,9 C 4,4 C 70 % 1022,4 hPa 0,0 l/m 23,6 km/h (4 Bft) W 277 2 min 0,000 mm 0,0 UV-I 245 W/m -1,9 C -7,2 C 38,6 km/h (5 Bft) 98,11 %
02.01.2019 12:36 3,1 C 3,9 C 4,4 C 70 % 1022,4 hPa 0,0 l/m 14,6 km/h (3 Bft) W 269 2 min 0,000 mm 0,0 UV-I 315 W/m -1,8 C -3,0 C 24,1 km/h (4 Bft) 97,87 %
02.01.2019 12:38 3,2 C 3,9 C 4,4 C 71 % 1022,5 hPa 0,0 l/m 15,0 km/h (3 Bft) W-NW 298 2 min 0,000 mm 0,0 UV-I 205 W/m -1,5 C -3,1 C 25,7 km/h (4 Bft) 95,74 %
02.01.2019 12:40 3,2 C 3,9 C 4,4 C 71 % 1022,4 hPa 0,0 l/m 14,3 km/h (3 Bft) NW 307 2 min 0,000 mm 0,0 UV-I 250 W/m -1,5 C -2,7 C 22,5 km/h (4 Bft) 95,74 %
02.01.2019 12:42 3,2 C 3,9 C 4,4 C 72 % 1022,6 hPa 0,0 l/m 16,1 km/h (3 Bft) W-NW 290 0 min 0,000 mm 0,0 UV-I 179 W/m -1,3 C -3,7 C 29,0 km/h (5 Bft) 91,67 %
02.01.2019 12:44 3,2 C 3,9 C 3,9 C 71 % 1022,4 hPa 0,0 l/m 23,8 km/h (4 Bft) W-NW 286 0 min 0,000 mm 0,0 UV-I 139 W/m -1,5 C -7,0 C 41,8 km/h (6 Bft) 95,52 %
02.01.2019 12:46 3,1 C 3,9 C 3,3 C 69 % 1022,4 hPa 0,0 l/m 19,2 km/h (3 Bft) NW 310 0 min 0,000 mm 0,0 UV-I 90 W/m -2,0 C -5,3 C 38,6 km/h (5 Bft) 97,62 %
02.01.2019 12:48 2,9 C 3,9 C 3,3 C 69 % 1022,5 hPa 0,0 l/m 21,7 km/h (4 Bft) W-NW 292 0 min 0,000 mm 0,0 UV-I 75 W/m -2,2 C -6,6 C 40,2 km/h (6 Bft) 98,08 %
02.01.2019 12:50 2,8 C 3,9 C 2,8 C 69 % 1022,4 hPa 0,0 l/m 15,4 km/h (3 Bft) W 275 0 min 0,000 mm 0,0 UV-I 67 W/m -2,3 C -3,8 C 29,0 km/h (5 Bft) 95,24 %
02.01.2019 12:52 2,7 C 3,9 C 2,8 C 70 % 1022,5 hPa 0,0 l/m 13,5 km/h (3 Bft) NW 308 0 min 0,000 mm 0,0 UV-I 60 W/m -2,2 C -2,8 C 27,4 km/h (4 Bft) 90,00 %
02.01.2019 12:54 2,7 C 3,9 C 2,8 C 70 % 1022,5 hPa 0,0 l/m 14,4 km/h (3 Bft) W-NW 290 0 min 0,000 mm 0,0 UV-I 67 W/m -2,2 C -3,4 C 25,7 km/h (4 Bft) 95,12 %
02.01.2019 12:56 2,6 C 3,9 C 2,8 C 69 % 1022,4 hPa 0,0 l/m 15,9 km/h (3 Bft) W-NW 286 0 min 0,000 mm 0,0 UV-I 79 W/m -2,5 C -4,3 C 32,2 km/h (5 Bft) 92,00 %
02.01.2019 12:58 2,6 C 3,9 C 2,8 C 69 % 1022,4 hPa 0,0 l/m 19,2 km/h (3 Bft) W-NW 299 0 min 0,000 mm 0,0 UV-I 82 W/m -2,5 C -5,9 C 30,6 km/h (5 Bft) 90,57 %
02.01.2019 13:00 2,6 C 3,9 C 2,8 C 70 % 1022,4 hPa 0,0 l/m 21,2 km/h (4 Bft) W 279 0 min 0,102 mm 0,0 UV-I 73 W/m -2,3 C -6,8 C 32,2 km/h (5 Bft) 96,15 %
02.01.2019 13:02 2,6 C 3,9 C 2,8 C 71 % 1022,4 hPa 0,0 l/m 18,4 km/h (3 Bft) W 275 0 min 0,000 mm 0,0 UV-I 73 W/m -2,1 C -5,6 C 25,7 km/h (4 Bft) 91,18 %
02.01.2019 13:04 2,6 C 3,9 C 2,8 C 71 % 1022,4 hPa 0,0 l/m 19,7 km/h (3 Bft) W-NW 292 0 min 0,000 mm 0,0 UV-I 69 W/m -2,1 C -6,1 C 30,6 km/h (5 Bft) 93,62 %
02.01.2019 13:06 2,7 C 3,9 C 2,8 C 71 % 1022,4 hPa 0,0 l/m 16,6 km/h (3 Bft) W 265 0 min 0,000 mm 0,0 UV-I 74 W/m -2,0 C -4,6 C 29,0 km/h (5 Bft) 93,62 %
02.01.2019 13:08 2,7 C 3,9 C 2,8 C 71 % 1022,3 hPa 0,0 l/m 19,9 km/h (4 Bft) W-NW 286 0 min 0,000 mm 0,0 UV-I 85 W/m -2,0 C -6,1 C 41,8 km/h (6 Bft) 92,11 %
02.01.2019 13:10 2,7 C 3,9 C 2,8 C 71 % 1022,2 hPa 0,0 l/m 21,8 km/h (4 Bft) W 266 0 min 0,000 mm 0,0 UV-I 89 W/m -2,0 C -6,9 C 49,9 km/h (6 Bft) 94,00 %
02.01.2019 13:12 2,7 C 3,9 C 2,8 C 70 % 1022,2 hPa 0,0 l/m 21,9 km/h (4 Bft) W-NW 297 0 min 0,000 mm 0,0 UV-I 93 W/m -2,2 C -6,9 C 41,8 km/h (6 Bft) 95,12 %
02.01.2019 13:14 2,7 C 3,9 C 2,8 C 69 % 1022,1 hPa 0,0 l/m 16,7 km/h (3 Bft) W-SW 258 0 min 0,000 mm 0,0 UV-I 100 W/m -2,4 C -4,6 C 30,6 km/h (5 Bft) 98,00 %
02.01.2019 13:16 2,7 C 3,9 C 3,3 C 69 % 1022,1 hPa 0,0 l/m 18,1 km/h (3 Bft) W-NW 288 0 min 0,000 mm 0,0 UV-I 116 W/m -2,4 C -5,3 C 40,2 km/h (6 Bft) 96,23 %
02.01.2019 13:18 2,8 C 3,9 C 3,3 C 69 % 1022,3 hPa 0,0 l/m 27,9 km/h (4 Bft) W-NW 302 0 min 0,000 mm 0,0 UV-I 129 W/m -2,3 C -8,9 C 41,8 km/h (6 Bft) 92,68 %
02.01.2019 13:20 2,8 C 3,9 C 3,3 C 68 % 1022,1 hPa 0,0 l/m 25,3 km/h (4 Bft) W 269 0 min 0,000 mm 0,0 UV-I 141 W/m -2,5 C -8,0 C 38,6 km/h (5 Bft) 98,00 %
02.01.2019 13:22 2,8 C 3,9 C 3,3 C 67 % 1022,0 hPa 0,0 l/m 25,8 km/h (4 Bft) NW 315 0 min 0,000 mm 0,0 UV-I 145 W/m -2,7 C -8,2 C 59,5 km/h (7 Bft) 97,44 %
02.01.2019 13:24 2,8 C 3,9 C 3,3 C 67 % 1022,1 hPa 0,0 l/m 15,3 km/h (3 Bft) W 273 0 min 0,000 mm 0,0 UV-I 145 W/m -2,7 C -3,8 C 27,4 km/h (4 Bft) 96,15 %
02.01.2019 13:26 2,8 C 3,9 C 3,3 C 67 % 1022,1 hPa 0,0 l/m 28,8 km/h (4 Bft) W 264 0 min 0,000 mm 0,0 UV-I 141 W/m -2,7 C -9,1 C 46,7 km/h (6 Bft) 96,23 %
02.01.2019 13:28 2,8 C 3,9 C 3,3 C 66 % 1022,1 hPa 0,0 l/m 20,7 km/h (4 Bft) W 276 0 min 0,000 mm 0,0 UV-I 137 W/m -2,9 C -6,3 C 35,4 km/h (5 Bft) 97,44 %
02.01.2019 13:30 2,8 C 3,9 C 3,3 C 66 % 1022,1 hPa 0,0 l/m 25,3 km/h (4 Bft) W-NW 291 0 min 0,000 mm 0,0 UV-I 133 W/m -2,9 C -8,0 C 38,6 km/h (5 Bft) 100,00 %
02.01.2019 13:32 2,9 C 3,9 C 3,3 C 67 % 1022,2 hPa 0,0 l/m 16,9 km/h (3 Bft) W 259 0 min 0,000 mm 0,0 UV-I 143 W/m -2,6 C -4,5 C 45,1 km/h (6 Bft) 100,00 %
02.01.2019 13:34 2,9 C 3,9 C 3,9 C 67 % 1022,1 hPa 0,0 l/m 26,4 km/h (4 Bft) W 263 0 min 0,000 mm 0,0 UV-I 157 W/m -2,6 C -8,3 C 45,1 km/h (6 Bft) 100,00 %
02.01.2019 13:36 2,9 C 3,9 C 3,9 C 67 % 1022,0 hPa 0,0 l/m 21,1 km/h (4 Bft) W 278 2 min 0,000 mm 0,0 UV-I 192 W/m -2,6 C -6,3 C 37,0 km/h (5 Bft) 100,00 %
02.01.2019 13:38 3,0 C 3,9 C 3,9 C 67 % 1022,0 hPa 0,0 l/m 16,9 km/h (3 Bft) W 266 2 min 0,000 mm 0,0 UV-I 189 W/m -2,5 C -4,3 C 33,8 km/h (5 Bft) 98,00 %
02.01.2019 13:40 3,1 C 3,9 C 4,4 C 67 % 1022,0 hPa 0,0 l/m 24,3 km/h (4 Bft) W-NW 294 2 min 0,000 mm 0,0 UV-I 215 W/m -2,4 C -7,3 C 46,7 km/h (6 Bft) 100,00 %
02.01.2019 13:42 3,1 C 3,9 C 4,4 C 66 % 1022,1 hPa 0,0 l/m 23,8 km/h (4 Bft) W-NW 292 2 min 0,000 mm 0,0 UV-I 217 W/m -2,6 C -7,1 C 38,6 km/h (5 Bft) 96,55 %
02.01.2019 13:44 3,2 C 3,9 C 5,0 C 67 % 1022,0 hPa 0,0 l/m 13,1 km/h (3 Bft) W-SW 257 2 min 0,000 mm 0,0 UV-I 263 W/m -2,3 C -2,0 C 25,7 km/h (4 Bft) 100,00 %
02.01.2019 13:46 3,3 C 3,9 C 5,6 C 68 % 1022,1 hPa 0,0 l/m 19,4 km/h (3 Bft) W 273 2 min 0,000 mm 0,0 UV-I 373 W/m -2,0 C -5,1 C 43,5 km/h (6 Bft) 97,56 %
02.01.2019 13:48 3,6 C 3,9 C 6,1 C 67 % 1022,0 hPa 0,0 l/m 16,6 km/h (3 Bft) W-NW 292 2 min 0,000 mm 0,0 UV-I 349 W/m -1,9 C -3,4 C 48,3 km/h (6 Bft) 100,00 %
02.01.2019 13:50 3,7 C 3,9 C 5,6 C 65 % 1022,1 hPa 0,0 l/m 18,6 km/h (3 Bft) N-NW 329 2 min 0,000 mm 0,0 UV-I 313 W/m -2,3 C -4,3 C 32,2 km/h (5 Bft) 100,00 %
02.01.2019 13:52 3,8 C 3,9 C 5,0 C 66 % 1022,2 hPa 0,0 l/m 12,6 km/h (3 Bft) W-NW 298 2 min 0,000 mm 0,0 UV-I 259 W/m -2,0 C -1,0 C 24,1 km/h (4 Bft) 100,00 %
02.01.2019 13:54 3,8 C 3,9 C 5,0 C 67 % 1022,2 hPa 0,0 l/m 18,1 km/h (3 Bft) W-NW 299 2 min 0,000 mm 0,0 UV-I 269 W/m -1,8 C -3,9 C 32,2 km/h (5 Bft) 100,00 %
02.01.2019 13:56 3,7 C 3,9 C 4,4 C 65 % 1022,2 hPa 0,0 l/m 19,5 km/h (3 Bft) N-NW 327 0 min 0,000 mm 0,0 UV-I 103 W/m -2,3 C -4,6 C 33,8 km/h (5 Bft) 100,00 %
02.01.2019 13:58 3,5 C 3,9 C 3,3 C 65 % 1022,1 hPa 0,2 l/m 16,6 km/h (3 Bft) W-NW 301 0 min 0,000 mm 0,0 UV-I 75 W/m -2,4 C -3,6 C 33,8 km/h (5 Bft) 100,00 %
02.01.2019 14:00 3,3 C 3,9 C 3,3 C 65 % 1022,1 hPa 0,0 l/m 17,3 km/h (3 Bft) W 274 0 min 0,000 mm 0,0 UV-I 65 W/m -2,6 C -4,2 C 30,6 km/h (5 Bft) 100,00 %
02.01.2019 14:02 3,2 C 3,9 C 3,3 C 66 % 1022,1 hPa 0,0 l/m 16,9 km/h (3 Bft) W 281 0 min 0,101 mm 0,0 UV-I 75 W/m -2,5 C -4,1 C 41,8 km/h (6 Bft) 100,00 %
02.01.2019 14:04 3,1 C 3,9 C 3,3 C 65 % 1022,1 hPa 0,0 l/m 18,3 km/h (3 Bft) N-NW 327 0 min 0,000 mm 0,0 UV-I 87 W/m -2,8 C -4,9 C 30,6 km/h (5 Bft) 100,00 %
02.01.2019 14:06 3,0 C 3,9 C 3,3 C 66 % 1022,2 hPa 0,0 l/m 20,2 km/h (4 Bft) W-SW 246 0 min 0,000 mm 0,0 UV-I 93 W/m -2,7 C -5,8 C 41,8 km/h (6 Bft) 98,11 %
02.01.2019 14:09 2,9 C 3,9 C 2,8 C 66 % 1022,3 hPa 0,0 l/m 15,5 km/h (3 Bft) NW 321 0 min 0,000 mm 0,0 UV-I 82 W/m -2,8 C -3,7 C 33,8 km/h (5 Bft) 97,26 %
02.01.2019 14:10 2,9 C 3,9 C 2,8 C 66 % 1022,3 hPa 0,0 l/m 17,1 km/h (3 Bft) NW 322 0 min 0,000 mm 0,0 UV-I 83 W/m -2,8 C -4,6 C 25,7 km/h (4 Bft) 100,00 %
02.01.2019 14:12 2,9 C 3,9 C 3,3 C 67 % 1022,3 hPa 0,0 l/m 13,7 km/h (3 Bft) W-SW 246 0 min 0,000 mm 0,0 UV-I 103 W/m -2,6 C -2,7 C 20,9 km/h (4 Bft) 96,23 %
02.01.2019 14:14 2,9 C 3,9 C 3,3 C 68 % 1022,2 hPa 0,0 l/m 21,0 km/h (4 Bft) W 276 2 min 0,000 mm 0,0 UV-I 156 W/m -2,4 C -6,3 C 30,6 km/h (5 Bft) 97,73 %
02.01.2019 14:16 2,8 C 3,9 C 3,3 C 70 % 1022,3 hPa 0,0 l/m 20,9 km/h (4 Bft) NW 319 2 min 0,000 mm 0,0 UV-I 131 W/m -2,1 C -6,4 C 32,2 km/h (5 Bft) 96,43 %
02.01.2019 14:18 2,7 C 3,9 C 2,8 C 71 % 1022,5 hPa 0,0 l/m 22,4 km/h (4 Bft) W-SW 246 0 min 0,000 mm 0,0 UV-I 105 W/m -2,0 C -7,1 C 37,0 km/h (5 Bft) 95,74 %
02.01.2019 14:20 2,4 C 3,9 C 2,8 C 73 % 1022,5 hPa 0,0 l/m 23,9 km/h (4 Bft) W-NW 283 0 min 0,000 mm 0,0 UV-I 89 W/m -1,9 C -8,1 C 37,0 km/h (5 Bft) 97,56 %
02.01.2019 14:22 2,1 C 3,9 C 2,2 C 75 % 1022,6 hPa 0,0 l/m 20,0 km/h (4 Bft) W 265 0 min 0,000 mm 0,0 UV-I 82 W/m -1,9 C -6,9 C 37,0 km/h (5 Bft) 98,11 %
02.01.2019 14:24 1,9 C 3,9 C 2,2 C 77 % 1022,6 hPa 0,0 l/m 20,2 km/h (4 Bft) W 267 0 min 0,000 mm 0,0 UV-I 88 W/m -1,7 C -7,3 C 30,6 km/h (5 Bft) 94,74 %
02.01.2019 14:26 1,7 C 3,9 C 2,2 C 77 % 1022,6 hPa 0,0 l/m 19,9 km/h (4 Bft) W-NW 285 0 min 0,000 mm 0,0 UV-I 99 W/m -1,9 C -7,4 C 33,8 km/h (5 Bft) 98,00 %
02.01.2019 14:28 1,6 C 3,9 C 2,2 C 78 % 1022,7 hPa 0,0 l/m 23,0 km/h (4 Bft) W-NW 298 2 min 0,000 mm 0,0 UV-I 122 W/m -1,8 C -8,8 C 40,2 km/h (6 Bft) 96,23 %
02.01.2019 14:30 1,5 C 3,9 C 2,2 C 79 % 1022,8 hPa 0,0 l/m 16,8 km/h (3 Bft) W 274 0 min 0,000 mm 0,0 UV-I 114 W/m -1,7 C -6,2 C 32,2 km/h (5 Bft) 97,37 %
02.01.2019 14:32 1,4 C 3,9 C 2,2 C 80 % 1022,8 hPa 0,0 l/m 23,0 km/h (4 Bft) W-NW 291 0 min 0,000 mm 0,0 UV-I 117 W/m -1,7 C -9,1 C 43,5 km/h (6 Bft) 100,00 %
02.01.2019 14:34 1,4 C 3,9 C 2,2 C 80 % 1022,8 hPa 0,0 l/m 20,9 km/h (4 Bft) W 277 2 min 0,000 mm 0,0 UV-I 183 W/m -1,7 C -8,2 C 33,8 km/h (5 Bft) 97,44 %
02.01.2019 14:36 1,4 C 3,9 C 2,2 C 80 % 1022,8 hPa 0,0 l/m 22,5 km/h (4 Bft) W 269 2 min 0,000 mm 0,0 UV-I 169 W/m -1,7 C -8,9 C 33,8 km/h (5 Bft) 96,36 %
02.01.2019 14:38 1,4 C 3,9 C 2,2 C 80 % 1022,8 hPa 0,0 l/m 19,8 km/h (3 Bft) W 263 2 min 0,000 mm 0,0 UV-I 172 W/m -1,7 C -7,7 C 35,4 km/h (5 Bft) 100,00 %
02.01.2019 14:40 1,4 C 3,9 C 2,2 C 80 % 1022,9 hPa 0,0 l/m 20,2 km/h (4 Bft) W 266 2 min 0,000 mm 0,0 UV-I 124 W/m -1,7 C -7,9 C 33,8 km/h (5 Bft) 96,00 %
02.01.2019 14:42 1,4 C 3,9 C 2,2 C 80 % 1022,9 hPa 0,0 l/m 10,4 km/h (2 Bft) NW 306 2 min 0,000 mm 0,0 UV-I 116 W/m -1,7 C -2,2 C 17,7 km/h (3 Bft) 98,21 %
02.01.2019 14:44 1,4 C 3,9 C 2,2 C 80 % 1022,9 hPa 0,0 l/m 16,7 km/h (3 Bft) NW 323 2 min 0,000 mm 0,0 UV-I 114 W/m -1,7 C -6,2 C 25,7 km/h (4 Bft) 97,56 %
02.01.2019 14:46 1,5 C 3,9 C 2,2 C 81 % 1022,9 hPa 0,0 l/m 13,8 km/h (3 Bft) W-SW 238 0 min 0,000 mm 0,0 UV-I 101 W/m -1,4 C -4,4 C 22,5 km/h (4 Bft) 98,11 %
02.01.2019 14:48 1,5 C 3,9 C 2,2 C 81 % 1023,1 hPa 0,0 l/m 14,7 km/h (3 Bft) W-SW 248 0 min 0,000 mm 0,0 UV-I 83 W/m -1,4 C -5,0 C 27,4 km/h (4 Bft) 97,73 %
02.01.2019 14:50 1,5 C 3,9 C 2,2 C 81 % 1023,1 hPa 0,0 l/m 17,4 km/h (3 Bft) W-NW 295 0 min 0,000 mm 0,0 UV-I 63 W/m -1,4 C -6,5 C 24,1 km/h (4 Bft) 98,00 %
02.01.2019 14:52 1,5 C 3,9 C 2,2 C 81 % 1023,1 hPa 0,0 l/m 11,9 km/h (2 Bft) W 279 0 min 0,000 mm 0,0 UV-I 55 W/m -1,4 C -3,2 C 17,7 km/h (3 Bft) 95,65 %
02.01.2019 14:54 1,5 C 3,9 C 2,2 C 81 % 1023,1 hPa 0,0 l/m 18,5 km/h (3 Bft) W 265 0 min 0,000 mm 0,0 UV-I 76 W/m -1,4 C -7,0 C 30,6 km/h (5 Bft) 96,92 %
02.01.2019 14:56 1,5 C 3,9 C 2,2 C 81 % 1023,1 hPa 0,0 l/m 21,8 km/h (4 Bft) SW 219 2 min 0,000 mm 0,0 UV-I 108 W/m -1,4 C -8,5 C 33,8 km/h (5 Bft) 97,87 %
02.01.2019 14:59 1,5 C 3,9 C 2,2 C 82 % 1023,2 hPa 0,0 l/m 15,4 km/h (3 Bft) W-SW 240 0 min 0,000 mm 0,0 UV-I 86 W/m -1,2 C -5,4 C 27,4 km/h (4 Bft) 94,12 %
02.01.2019 15:00 1,5 C 3,9 C 2,2 C 82 % 1023,2 hPa 0,0 l/m 20,7 km/h (4 Bft) NW 318 1 min 0,000 mm 0,0 UV-I 100 W/m -1,2 C -8,0 C 29,0 km/h (5 Bft) 96,15 %
02.01.2019 15:02 1,5 C 3,9 C 2,2 C 82 % 1023,3 hPa 0,0 l/m 14,9 km/h (3 Bft) W-NW 300 2 min 0,076 mm 0,0 UV-I 98 W/m -1,2 C -5,1 C 32,2 km/h (5 Bft) 98,00 %
02.01.2019 15:04 1,5 C 3,9 C 1,7 C 82 % 1023,4 hPa 0,0 l/m 15,9 km/h (3 Bft) W 263 0 min 0,000 mm 0,0 UV-I 76 W/m -1,2 C -5,7 C 27,4 km/h (4 Bft) 97,87 %
02.01.2019 15:06 1,4 C 3,9 C 1,7 C 82 % 1023,5 hPa 0,0 l/m 18,1 km/h (3 Bft) W-NW 282 0 min 0,000 mm 0,0 UV-I 54 W/m -1,3 C -6,9 C 27,4 km/h (4 Bft) 94,74 %
02.01.2019 15:08 1,4 C 3,9 C 1,1 C 82 % 1023,4 hPa 0,0 l/m 14,7 km/h (3 Bft) W 278 0 min 0,000 mm 0,0 UV-I 49 W/m -1,3 C -5,1 C 25,7 km/h (4 Bft) 100,00 %
02.01.2019 15:10 1,3 C 3,9 C 1,1 C 83 % 1023,5 hPa 0,0 l/m 17,3 km/h (3 Bft) W 259 0 min 0,000 mm 0,0 UV-I 41 W/m -1,3 C -6,7 C 30,6 km/h (5 Bft) 100,00 %
02.01.2019 15:12 1,2 C 3,9 C 0,6 C 83 % 1023,6 hPa 0,0 l/m 14,8 km/h (3 Bft) W-NW 293 0 min 0,000 mm 0,0 UV-I 34 W/m -1,4 C -5,4 C 25,7 km/h (4 Bft) 100,00 %
02.01.2019 15:14 1,0 C 3,9 C 0,6 C 84 % 1023,5 hPa 0,0 l/m 12,4 km/h (3 Bft) W-NW 283 0 min 0,000 mm 0,0 UV-I 31 W/m -1,4 C -4,1 C 20,9 km/h (4 Bft) 97,44 %
02.01.2019 15:16 0,9 C 3,9 C 0,6 C 85 % 1023,5 hPa 0,0 l/m 13,1 km/h (3 Bft) W 281 0 min 0,000 mm 0,0 UV-I 26 W/m -1,3 C -4,7 C 22,5 km/h (4 Bft) 100,00 %
02.01.2019 15:18 0,8 C 3,9 C 0,0 C 85 % 1023,4 hPa 0,0 l/m 14,9 km/h (3 Bft) W-NW 291 0 min 0,000 mm 0,0 UV-I 25 W/m -1,4 C -6,0 C 25,7 km/h (4 Bft) 100,00 %
02.01.2019 15:20 0,7 C 3,9 C 0,0 C 86 % 1023,5 hPa 0,0 l/m 13,5 km/h (3 Bft) W 276 0 min 0,000 mm 0,0 UV-I 23 W/m -1,4 C -5,2 C 20,9 km/h (4 Bft) 100,00 %
02.01.2019 15:22 0,6 C 3,9 C 0,0 C 86 % 1023,4 hPa 0,0 l/m 11,5 km/h (2 Bft) W 280 0 min 0,000 mm 0,0 UV-I 23 W/m -1,5 C -3,9 C 22,5 km/h (4 Bft) 98,00 %
02.01.2019 15:24 0,5 C 3,9 C 0,0 C 86 % 1023,4 hPa 0,0 l/m 13,5 km/h (3 Bft) W-NW 292 0 min 0,000 mm 0,0 UV-I 24 W/m -1,6 C -5,4 C 24,1 km/h (4 Bft) 97,56 %
02.01.2019 15:26 0,5 C 3,9 C 0,0 C 86 % 1023,4 hPa 0,0 l/m 11,4 km/h (2 Bft) W 277 0 min 0,000 mm 0,0 UV-I 25 W/m -1,6 C -4,0 C 17,7 km/h (3 Bft) 97,87 %
02.01.2019 15:28 0,5 C 3,9 C 0,0 C 86 % 1023,4 hPa 0,0 l/m 10,5 km/h (2 Bft) W 271 0 min 0,000 mm 0,0 UV-I 25 W/m -1,6 C -3,3 C 14,5 km/h (3 Bft) 97,87 %
02.01.2019 15:30 0,4 C 3,9 C 0,0 C 86 % 1023,4 hPa 0,0 l/m 12,1 km/h (2 Bft) W 269 0 min 0,000 mm 0,0 UV-I 23 W/m -1,7 C -4,6 C 24,1 km/h (4 Bft) 98,11 %
02.01.2019 15:32 0,4 C 3,9 C 0,0 C 85 % 1023,4 hPa 0,0 l/m 12,4 km/h (3 Bft) W 264 0 min 0,000 mm 0,0 UV-I 23 W/m -1,8 C -4,8 C 20,9 km/h (4 Bft) 97,14 %
02.01.2019 15:34 0,5 C 3,9 C 0,6 C 84 % 1023,5 hPa 0,0 l/m 11,1 km/h (2 Bft) W-NW 286 0 min 0,000 mm 0,0 UV-I 24 W/m -1,9 C -3,8 C 19,3 km/h (3 Bft) 97,87 %
02.01.2019 15:36 0,6 C 3,9 C 0,6 C 83 % 1023,5 hPa 0,0 l/m 7,1 km/h (2 Bft) W-NW 294 0 min 0,000 mm 0,0 UV-I 28 W/m -1,9 C -0,1 C 14,5 km/h (3 Bft) 97,87 %
02.01.2019 15:38 0,6 C 3,9 C 0,6 C 83 % 1023,6 hPa 0,0 l/m 8,7 km/h (2 Bft) W-NW 302 0 min 0,000 mm 0,0 UV-I 34 W/m -1,9 C -1,7 C 19,3 km/h (3 Bft) 97,87 %
02.01.2019 15:40 0,6 C 3,9 C 0,6 C 82 % 1023,6 hPa 0,0 l/m 7,3 km/h (2 Bft) N-NW 328 0 min 0,000 mm 0,0 UV-I 41 W/m -2,1 C -0,3 C 20,9 km/h (4 Bft) 97,87 %
02.01.2019 15:42 0,7 C 3,9 C 0,6 C 81 % 1023,6 hPa 0,0 l/m 9,7 km/h (2 Bft) W-SW 258 2 min 0,000 mm 0,0 UV-I 47 W/m -2,2 C -2,4 C 19,3 km/h (3 Bft) 97,87 %
02.01.2019 15:44 0,7 C 3,9 C 0,6 C 81 % 1023,6 hPa 0,0 l/m 5,1 km/h (1 Bft) W 266 2 min 0,000 mm 0,0 UV-I 49 W/m -2,2 C 0,7 C 11,3 km/h (2 Bft) 100,00 %
02.01.2019 15:46 0,7 C 3,9 C 0,6 C 81 % 1023,6 hPa 0,0 l/m 7,6 km/h (2 Bft) W-NW 291 2 min 0,000 mm 0,0 UV-I 48 W/m -2,2 C -0,5 C 17,7 km/h (3 Bft) 100,00 %
02.01.2019 15:48 0,7 C 3,9 C 0,6 C 79 % 1023,6 hPa 0,0 l/m 8,8 km/h (2 Bft) W-NW 301 2 min 0,000 mm 0,0 UV-I 47 W/m -2,5 C -1,7 C 19,3 km/h (3 Bft) 98,11 %
02.01.2019 15:50 0,7 C 3,9 C 0,6 C 78 % 1023,6 hPa 0,0 l/m 6,8 km/h (2 Bft) W 259 2 min 0,000 mm 0,0 UV-I 45 W/m -2,7 C 0,3 C 11,3 km/h (2 Bft) 100,00 %
02.01.2019 15:52 0,7 C 3,9 C 0,0 C 78 % 1023,7 hPa 0,0 l/m 5,1 km/h (1 Bft) W 269 2 min 0,000 mm 0,0 UV-I 38 W/m -2,7 C 0,7 C 9,7 km/h (2 Bft) 98,11 %
02.01.2019 15:54 0,7 C 3,9 C 0,0 C 77 % 1023,7 hPa 0,0 l/m 8,3 km/h (2 Bft) NW 314 2 min 0,000 mm 0,0 UV-I 29 W/m -2,9 C -1,2 C 12,9 km/h (3 Bft) 98,00 %
02.01.2019 15:56 0,7 C 3,9 C 0,0 C 77 % 1023,8 hPa 0,0 l/m 11,8 km/h (2 Bft) W 279 0 min 0,000 mm 0,0 UV-I 23 W/m -2,9 C -4,1 C 19,3 km/h (3 Bft) 100,00 %
02.01.2019 15:58 0,7 C 3,9 C 0,0 C 77 % 1023,8 hPa 0,0 l/m 13,2 km/h (3 Bft) W 275 0 min 0,000 mm 0,0 UV-I 20 W/m -2,9 C -5,0 C 22,5 km/h (4 Bft) 100,00 %
02.01.2019 16:00 0,6 C 3,9 C -0,6 C 77 % 1023,8 hPa 0,0 l/m 11,4 km/h (2 Bft) W 280 0 min 0,026 mm 0,0 UV-I 18 W/m -3,0 C -3,9 C 16,1 km/h (3 Bft) 98,00 %
02.01.2019 16:02 0,6 C 3,9 C -0,6 C 78 % 1023,9 hPa 0,0 l/m 12,0 km/h (2 Bft) NW 315 0 min 0,000 mm 0,0 UV-I 17 W/m -2,8 C -4,3 C 20,9 km/h (4 Bft) 100,00 %
02.01.2019 16:04 0,4 C 3,9 C -0,6 C 79 % 1023,9 hPa 0,0 l/m 10,7 km/h (2 Bft) W 279 2 min 0,000 mm 0,0 UV-I 16 W/m -2,8 C -3,6 C 17,7 km/h (3 Bft) 100,00 %
02.01.2019 16:06 0,3 C 3,9 C -0,6 C 80 % 1023,9 hPa 0,0 l/m 12,4 km/h (3 Bft) W-SW 254 2 min 0,000 mm 0,0 UV-I 14 W/m -2,7 C -4,9 C 16,1 km/h (3 Bft) 100,00 %
02.01.2019 16:08 0,3 C 3,9 C -1,1 C 81 % 1023,9 hPa 0,0 l/m 10,3 km/h (2 Bft) W-SW 248 2 min 0,000 mm 0,0 UV-I 14 W/m -2,6 C -3,4 C 16,1 km/h (3 Bft) 98,21 %
02.01.2019 16:10 0,2 C 3,9 C -1,1 C 81 % 1023,9 hPa 0,0 l/m 10,4 km/h (2 Bft) W-SW 254 0 min 0,000 mm 0,0 UV-I 12 W/m -2,7 C -3,6 C 16,1 km/h (3 Bft) 100,00 %
02.01.2019 16:12 0,2 C 3,9 C -1,1 C 82 % 1023,9 hPa 0,0 l/m 11,7 km/h (2 Bft) W-NW 296 0 min 0,000 mm 0,0 UV-I 12 W/m -2,5 C -4,6 C 17,7 km/h (3 Bft) 100,00 %
02.01.2019 16:14 0,1 C 3,9 C -1,1 C 82 % 1024,0 hPa 0,0 l/m 11,3 km/h (2 Bft) W 262 0 min 0,000 mm 0,0 UV-I 12 W/m -2,6 C -4,4 C 16,1 km/h (3 Bft) 98,00 %
02.01.2019 16:16 0,0 C 3,9 C -1,1 C 82 % 1024,0 hPa 0,0 l/m 13,7 km/h (3 Bft) W-SW 253 0 min 0,000 mm 0,0 UV-I 12 W/m -2,7 C -6,2 C 19,3 km/h (3 Bft) 100,00 %
02.01.2019 16:18 0,0 C 3,9 C -1,1 C 83 % 1024,0 hPa 0,0 l/m 11,8 km/h (2 Bft) W 270 0 min 0,000 mm 0,0 UV-I 11 W/m -2,5 C -4,9 C 16,1 km/h (3 Bft) 98,46 %
02.01.2019 16:20 -0,1 C 3,9 C -1,1 C 83 % 1024,1 hPa 0,0 l/m 13,2 km/h (3 Bft) W 267 0 min 0,000 mm 0,0 UV-I 10 W/m -2,6 C -6,0 C 17,7 km/h (3 Bft) 97,37 %
02.01.2019 16:22 -0,1 C 3,9 C -1,1 C 84 % 1024,0 hPa 0,0 l/m 9,0 km/h (2 Bft) W-SW 253 0 min 0,000 mm 0,0 UV-I 9 W/m -2,5 C -2,7 C 12,9 km/h (3 Bft) 98,33 %
02.01.2019 16:24 -0,2 C 3,9 C -1,7 C 84 % 1024,2 hPa 0,0 l/m 12,6 km/h (3 Bft) W 261 0 min 0,000 mm 0,0 UV-I 7 W/m -2,6 C -5,7 C 19,3 km/h (3 Bft) 100,00 %
02.01.2019 16:26 -0,3 C 3,9 C -1,7 C 85 % 1024,1 hPa 0,0 l/m 14,4 km/h (3 Bft) W 277 0 min 0,000 mm 0,0 UV-I 7 W/m -2,5 C -7,0 C 17,7 km/h (3 Bft) 100,00 %
02.01.2019 16:28 -0,3 C 3,9 C -1,7 C 86 % 1024,3 hPa 0,0 l/m 12,6 km/h (3 Bft) W 267 0 min 0,000 mm 0,0 UV-I 7 W/m -2,3 C -5,8 C 19,3 km/h (3 Bft) 100,00 %
02.01.2019 16:30 -0,3 C 3,9 C -1,7 C 86 % 1024,3 hPa 0,0 l/m 13,6 km/h (3 Bft) W-SW 256 0 min 0,000 mm 0,0 UV-I 5 W/m -2,3 C -6,5 C 17,7 km/h (3 Bft) 100,00 %
02.01.2019 16:32 -0,3 C 3,9 C -1,7 C 87 % 1024,4 hPa 0,0 l/m 12,8 km/h (3 Bft) W-SW 244 0 min 0,000 mm 0,0 UV-I 5 W/m -2,2 C -5,9 C 19,3 km/h (3 Bft) 100,00 %
02.01.2019 16:34 -0,4 C 3,9 C -1,7 C 87 % 1024,4 hPa 0,0 l/m 14,4 km/h (3 Bft) W-SW 254 0 min 0,000 mm 0,0 UV-I 5 W/m -2,3 C -7,1 C 17,7 km/h (3 Bft) 97,62 %
02.01.2019 16:36 -0,4 C 3,9 C -1,7 C 88 % 1024,4 hPa 0,0 l/m 11,4 km/h (2 Bft) W-SW 249 0 min 0,000 mm 0,0 UV-I 5 W/m -2,1 C -5,0 C 17,7 km/h (3 Bft) 94,34 %
02.01.2019 16:38 -0,4 C 3,9 C -1,7 C 88 % 1024,4 hPa 0,0 l/m 14,3 km/h (3 Bft) W 269 0 min 0,000 mm 0,0 UV-I 5 W/m -2,1 C -7,0 C 20,9 km/h (4 Bft) 95,45 %
02.01.2019 16:40 -0,4 C 3,9 C -1,1 C 89 % 1024,5 hPa 0,0 l/m 13,2 km/h (3 Bft) W-NW 282 0 min 0,000 mm 0,0 UV-I 0 W/m -2,0 C -6,3 C 20,9 km/h (4 Bft) 95,74 %
02.01.2019 16:42 -0,4 C 3,9 C -1,1 C 89 % 1024,6 hPa 0,0 l/m 15,1 km/h (3 Bft) W 281 0 min 0,000 mm 0,0 UV-I 0 W/m -2,0 C -7,5 C 24,1 km/h (4 Bft) 93,62 %
02.01.2019 16:44 -0,4 C 3,9 C -1,1 C 89 % 1024,7 hPa 0,0 l/m 15,4 km/h (3 Bft) W 264 0 min 0,000 mm 0,0 UV-I 0 W/m -2,0 C -7,7 C 20,9 km/h (4 Bft) 89,47 %
02.01.2019 16:46 -0,4 C 3,9 C -1,7 C 89 % 1024,7 hPa 0,0 l/m 13,1 km/h (3 Bft) W 271 0 min 0,000 mm 0,0 UV-I 0 W/m -2,0 C -6,2 C 17,7 km/h (3 Bft) 93,18 %
02.01.2019 16:48 -0,4 C 3,9 C -1,7 C 89 % 1024,7 hPa 0,0 l/m 14,2 km/h (3 Bft) W 260 0 min 0,000 mm 0,0 UV-I 0 W/m -2,0 C -7,0 C 19,3 km/h (3 Bft) 94,64 %
02.01.2019 16:50 -0,4 C 3,9 C -1,7 C 89 % 1024,8 hPa 0,0 l/m 13,4 km/h (3 Bft) W 273 0 min 0,000 mm 0,0 UV-I 0 W/m -2,0 C -6,4 C 20,9 km/h (4 Bft) 92,00 %
02.01.2019 16:52 -0,4 C 3,9 C -1,7 C 89 % 1024,8 hPa 0,0 l/m 13,2 km/h (3 Bft) W 271 0 min 0,000 mm 0,0 UV-I 0 W/m -2,0 C -6,3 C 17,7 km/h (3 Bft) 92,00 %
02.01.2019 16:54 -0,4 C 3,9 C -1,7 C 89 % 1024,8 hPa 0,0 l/m 13,5 km/h (3 Bft) W-SW 257 0 min 0,000 mm 0,0 UV-I 0 W/m -2,0 C -6,5 C 16,1 km/h (3 Bft) 88,89 %
02.01.2019 16:56 -0,5 C 3,9 C -1,7 C 89 % 1024,8 hPa 0,0 l/m 12,7 km/h (3 Bft) W 269 0 min 0,000 mm 0,0 UV-I 0 W/m -2,1 C -6,1 C 19,3 km/h (3 Bft) 94,29 %
02.01.2019 16:58 -0,5 C 3,9 C -1,7 C 89 % 1024,8 hPa 0,0 l/m 14,9 km/h (3 Bft) W 265 0 min 0,000 mm 0,0 UV-I 0 W/m -2,1 C -7,5 C 19,3 km/h (3 Bft) 92,00 %
02.01.2019 17:00 -0,5 C 3,9 C -1,7 C 89 % 1024,9 hPa 0,0 l/m 12,0 km/h (2 Bft) W 275 0 min 0,000 mm 0,0 UV-I 0 W/m -2,1 C -5,6 C 14,5 km/h (3 Bft) 94,74 %
02.01.2019 17:02 -0,6 C 3,9 C -1,7 C 90 % 1024,9 hPa 0,0 l/m 12,8 km/h (3 Bft) W-NW 283 0 min 0,025 mm 0,0 UV-I 0 W/m -2,0 C -6,3 C 16,1 km/h (3 Bft) 90,57 %
02.01.2019 17:04 -0,6 C 3,9 C -1,7 C 90 % 1024,9 hPa 0,0 l/m 14,0 km/h (3 Bft) W-SW 258 0 min 0,000 mm 0,0 UV-I 0 W/m -2,0 C -7,1 C 20,9 km/h (4 Bft) 95,74 %
02.01.2019 17:06 -0,5 C 3,9 C -1,7 C 90 % 1024,9 hPa 0,0 l/m 17,2 km/h (3 Bft) W 263 0 min 0,000 mm 0,0 UV-I 0 W/m -1,9 C -8,9 C 20,9 km/h (4 Bft) 95,12 %
02.01.2019 17:08 -0,5 C 3,9 C -1,7 C 90 % 1025,0 hPa 0,0 l/m 15,2 km/h (3 Bft) W-SW 257 0 min 0,000 mm 0,0 UV-I 0 W/m -1,9 C -7,7 C 24,1 km/h (4 Bft) 96,23 %
02.01.2019 17:10 -0,4 C 3,9 C -1,7 C 89 % 1025,0 hPa 0,0 l/m 10,9 km/h (2 Bft) W 267 0 min 0,000 mm 0,0 UV-I 0 W/m -2,0 C -4,6 C 17,7 km/h (3 Bft) 95,24 %
02.01.2019 17:12 -0,4 C 3,9 C -1,7 C 89 % 1025,1 hPa 0,0 l/m 14,6 km/h (3 Bft) W-NW 286 0 min 0,000 mm 0,0 UV-I 0 W/m -2,0 C -7,2 C 17,7 km/h (3 Bft) 96,00 %
02.01.2019 17:14 -0,4 C 3,9 C -1,7 C 89 % 1025,1 hPa 0,0 l/m 13,4 km/h (3 Bft) W 277 0 min 0,000 mm 0,0 UV-I 0 W/m -2,0 C -6,4 C 19,3 km/h (3 Bft) 92,31 %
02.01.2019 17:16 -0,4 C 3,9 C -1,7 C 88 % 1025,1 hPa 0,0 l/m 12,9 km/h (3 Bft) W-NW 289 0 min 0,000 mm 0,0 UV-I 0 W/m -2,1 C -6,1 C 20,9 km/h (4 Bft) 94,87 %
02.01.2019 17:18 -0,3 C 3,9 C -1,1 C 88 % 1025,2 hPa 0,0 l/m 16,0 km/h (3 Bft) W-NW 282 0 min 0,000 mm 0,0 UV-I 0 W/m -2,0 C -7,9 C 24,1 km/h (4 Bft) 97,73 %
02.01.2019 17:20 -0,3 C 3,9 C -1,1 C 87 % 1025,2 hPa 0,0 l/m 11,4 km/h (2 Bft) NW 311 0 min 0,000 mm 0,0 UV-I 0 W/m -2,2 C -4,9 C 17,7 km/h (3 Bft) 92,45 %
02.01.2019 17:22 -0,3 C 3,9 C -1,1 C 86 % 1025,2 hPa 0,0 l/m 11,9 km/h (2 Bft) W-NW 286 0 min 0,000 mm 0,0 UV-I 0 W/m -2,3 C -5,3 C 19,3 km/h (3 Bft) 96,23 %
02.01.2019 17:24 -0,3 C 3,9 C -1,1 C 85 % 1025,3 hPa 0,0 l/m 10,6 km/h (2 Bft) W-NW 296 0 min 0,000 mm 0,0 UV-I 0 W/m -2,5 C -4,3 C 16,1 km/h (3 Bft) 97,56 %
02.01.2019 17:26 -0,3 C 3,9 C -1,1 C 85 % 1025,4 hPa 0,0 l/m 11,9 km/h (2 Bft) W 273 0 min 0,000 mm 0,0 UV-I 0 W/m -2,5 C -5,3 C 20,9 km/h (4 Bft) 98,00 %
02.01.2019 17:28 -0,2 C 3,9 C -1,1 C 84 % 1025,4 hPa 0,0 l/m 14,6 km/h (3 Bft) NW 321 0 min 0,000 mm 0,0 UV-I 0 W/m -2,6 C -7,0 C 22,5 km/h (4 Bft) 97,56 %
02.01.2019 17:30 -0,2 C 3,9 C -1,1 C 84 % 1025,4 hPa 0,0 l/m 12,2 km/h (2 Bft) W 280 0 min 0,000 mm 0,0 UV-I 0 W/m -2,6 C -5,4 C 17,7 km/h (3 Bft) 96,43 %
02.01.2019 17:32 -0,2 C 3,9 C -1,1 C 83 % 1025,4 hPa 0,0 l/m 10,3 km/h (2 Bft) W-SW 257 0 min 0,000 mm 0,0 UV-I 0 W/m -2,7 C -3,9 C 17,7 km/h (3 Bft) 97,56 %
02.01.2019 17:34 -0,2 C 3,9 C -1,1 C 83 % 1025,4 hPa 0,0 l/m 15,1 km/h (3 Bft) W-NW 283 0 min 0,000 mm 0,0 UV-I 0 W/m -2,7 C -7,3 C 19,3 km/h (3 Bft) 97,56 %
02.01.2019 17:36 -0,2 C 3,9 C -1,1 C 83 % 1025,5 hPa 0,0 l/m 12,7 km/h (3 Bft) W 277 0 min 0,000 mm 0,0 UV-I 0 W/m -2,7 C -5,7 C 19,3 km/h (3 Bft) 94,12 %
02.01.2019 17:38 -0,2 C 3,9 C -1,1 C 83 % 1025,5 hPa 0,0 l/m 10,6 km/h (2 Bft) W 271 0 min 0,000 mm 0,0 UV-I 0 W/m -2,7 C -4,2 C 14,5 km/h (3 Bft) 97,87 %
02.01.2019 17:40 -0,2 C 3,9 C -1,1 C 83 % 1025,5 hPa 0,0 l/m 14,6 km/h (3 Bft) W-SW 254 0 min 0,000 mm 0,0 UV-I 0 W/m -2,7 C -7,0 C 22,5 km/h (4 Bft) 98,00 %
02.01.2019 17:42 -0,2 C 3,9 C -1,1 C 83 % 1025,7 hPa 0,0 l/m 13,3 km/h (3 Bft) W-NW 284 0 min 0,000 mm 0,0 UV-I 0 W/m -2,7 C -6,1 C 19,3 km/h (3 Bft) 97,37 %
02.01.2019 17:44 -0,1 C 3,9 C -1,1 C 83 % 1025,8 hPa 0,0 l/m 12,8 km/h (3 Bft) W 270 0 min 0,000 mm 0,0 UV-I 0 W/m -2,6 C -5,7 C 17,7 km/h (3 Bft) 98,21 %
02.01.2019 17:46 -0,1 C 3,9 C -1,1 C 83 % 1025,7 hPa 0,0 l/m 13,4 km/h (3 Bft) W 277 0 min 0,000 mm 0,0 UV-I 0 W/m -2,6 C -6,1 C 17,7 km/h (3 Bft) 100,00 %
02.01.2019 17:48 -0,1 C 3,9 C -0,6 C 82 % 1025,8 hPa 0,0 l/m 12,5 km/h (3 Bft) W 259 0 min 0,000 mm 0,0 UV-I 0 W/m -2,8 C -5,5 C 20,9 km/h (4 Bft) 98,00 %
02.01.2019 17:50 -0,1 C 3,9 C -0,6 C 82 % 1025,8 hPa 0,0 l/m 14,3 km/h (3 Bft) W 273 0 min 0,000 mm 0,0 UV-I 0 W/m -2,8 C -6,7 C 19,3 km/h (3 Bft) 98,08 %
02.01.2019 17:52 -0,1 C 3,9 C -0,6 C 82 % 1025,8 hPa 0,0 l/m 11,0 km/h (2 Bft) W 279 0 min 0,000 mm 0,0 UV-I 0 W/m -2,8 C -4,4 C 14,5 km/h (3 Bft) 97,44 %
02.01.2019 17:54 -0,1 C 3,9 C -0,6 C 82 % 1025,9 hPa 0,0 l/m 14,9 km/h (3 Bft) W 271 0 min 0,000 mm 0,0 UV-I 0 W/m -2,8 C -7,0 C 20,9 km/h (4 Bft) 96,55 %
02.01.2019 17:56 -0,1 C 3,9 C -0,6 C 82 % 1025,9 hPa 0,0 l/m 16,3 km/h (3 Bft) W 271 0 min 0,000 mm 0,0 UV-I 0 W/m -2,8 C -7,9 C 24,1 km/h (4 Bft) 95,24 %
02.01.2019 17:58 -0,1 C 3,9 C -0,6 C 81 % 1025,9 hPa 0,0 l/m 14,7 km/h (3 Bft) W-NW 303 0 min 0,000 mm 0,0 UV-I 0 W/m -3,0 C -6,9 C 24,1 km/h (4 Bft) 100,00 %
02.01.2019 18:00 0,0 C 3,9 C -0,6 C 81 % 1026,0 hPa 0,0 l/m 14,3 km/h (3 Bft) NW 318 0 min 0,000 mm 0,0 UV-I 0 W/m -2,9 C -6,6 C 20,9 km/h (4 Bft) 98,25 %
02.01.2019 18:02 0,0 C 3,9 C -0,6 C 81 % 1026,0 hPa 0,0 l/m 13,0 km/h (3 Bft) W-SW 247 0 min 0,026 mm 0,0 UV-I 0 W/m -2,9 C -5,7 C 17,7 km/h (3 Bft) 100,00 %
02.01.2019 18:04 0,0 C 3,9 C -0,6 C 81 % 1026,0 hPa 0,0 l/m 13,3 km/h (3 Bft) W-NW 292 0 min 0,000 mm 0,0 UV-I 0 W/m -2,9 C -5,9 C 20,9 km/h (4 Bft) 96,77 %
02.01.2019 18:06 0,0 C 3,9 C -0,6 C 81 % 1026,1 hPa 0,0 l/m 12,7 km/h (3 Bft) W-SW 252 0 min 0,000 mm 0,0 UV-I 0 W/m -2,9 C -5,5 C 17,7 km/h (3 Bft) 96,00 %
02.01.2019 18:08 0,0 C 3,9 C -0,6 C 81 % 1026,2 hPa 0,0 l/m 14,0 km/h (3 Bft) W-NW 282 0 min 0,000 mm 0,0 UV-I 0 W/m -2,9 C -6,4 C 19,3 km/h (3 Bft) 100,00 %
02.01.2019 18:10 0,0 C 3,9 C -0,6 C 81 % 1026,2 hPa 0,0 l/m 13,0 km/h (3 Bft) W 269 0 min 0,000 mm 0,0 UV-I 0 W/m -2,9 C -5,7 C 27,4 km/h (4 Bft) 100,00 %
02.01.2019 18:12 0,0 C 3,9 C -0,6 C 81 % 1026,2 hPa 0,0 l/m 15,1 km/h (3 Bft) W-NW 293 0 min 0,000 mm 0,0 UV-I 0 W/m -2,9 C -7,0 C 22,5 km/h (4 Bft) 100,00 %
02.01.2019 18:14 0,0 C 3,9 C -0,6 C 81 % 1026,2 hPa 0,0 l/m 14,2 km/h (3 Bft) W 279 0 min 0,000 mm 0,0 UV-I 0 W/m -2,9 C -6,5 C 22,5 km/h (4 Bft) 100,00 %
02.01.2019 18:16 0,0 C 3,9 C -0,6 C 81 % 1026,3 hPa 0,0 l/m 14,2 km/h (3 Bft) W 260 0 min 0,000 mm 0,0 UV-I 0 W/m -2,9 C -6,5 C 20,9 km/h (4 Bft) 97,37 %
02.01.2019 18:18 0,0 C 3,9 C -0,6 C 82 % 1026,3 hPa 0,0 l/m 14,9 km/h (3 Bft) W 270 0 min 0,000 mm 0,0 UV-I 0 W/m -2,7 C -6,9 C 20,9 km/h (4 Bft) 98,00 %
02.01.2019 18:20 -0,1 C 3,9 C -0,6 C 82 % 1026,4 hPa 0,0 l/m 12,5 km/h (3 Bft) W 263 0 min 0,000 mm 0,0 UV-I 0 W/m -2,8 C -5,5 C 22,5 km/h (4 Bft) 100,00 %
02.01.2019 18:22 0,0 C 3,9 C -0,6 C 81 % 1026,5 hPa 0,0 l/m 14,0 km/h (3 Bft) W 261 0 min 0,000 mm 0,0 UV-I 0 W/m -2,9 C -6,4 C 19,3 km/h (3 Bft) 100,00 %
02.01.2019 18:24 0,0 C 3,9 C -0,6 C 81 % 1026,5 hPa 0,0 l/m 15,9 km/h (3 Bft) W-NW 286 0 min 0,000 mm 0,0 UV-I 0 W/m -2,9 C -7,5 C 22,5 km/h (4 Bft) 100,00 %
02.01.2019 18:26 0,0 C 3,9 C -0,6 C 81 % 1026,5 hPa 0,0 l/m 13,6 km/h (3 Bft) NW 321 0 min 0,000 mm 0,0 UV-I 0 W/m -2,9 C -6,1 C 20,9 km/h (4 Bft) 100,00 %
02.01.2019 18:28 0,0 C 3,9 C -0,6 C 81 % 1026,6 hPa 0,0 l/m 16,2 km/h (3 Bft) W 275 0 min 0,000 mm 0,0 UV-I 0 W/m -2,9 C -7,7 C 25,7 km/h (4 Bft) 100,00 %
02.01.2019 18:30 0,0 C 3,9 C -0,6 C 81 % 1026,7 hPa 0,0 l/m 19,0 km/h (3 Bft) W 280 0 min 0,000 mm 0,0 UV-I 0 W/m -2,9 C -9,2 C 32,2 km/h (5 Bft) 100,00 %
02.01.2019 18:32 0,1 C 3,9 C -0,6 C 80 % 1026,7 hPa 0,0 l/m 15,8 km/h (3 Bft) W-NW 291 0 min 0,000 mm 0,0 UV-I 0 W/m -2,9 C -7,3 C 22,5 km/h (4 Bft) 100,00 %
02.01.2019 18:34 0,1 C 3,9 C -0,6 C 80 % 1026,8 hPa 0,0 l/m 15,3 km/h (3 Bft) W 274 0 min 0,000 mm 0,0 UV-I 0 W/m -2,9 C -7,0 C 22,5 km/h (4 Bft) 98,18 %
02.01.2019 18:36 0,1 C 3,9 C -0,6 C 80 % 1026,8 hPa 0,0 l/m 13,0 km/h (3 Bft) W-SW 257 0 min 0,000 mm 0,0 UV-I 0 W/m -2,9 C -5,6 C 19,3 km/h (3 Bft) 97,87 %
02.01.2019 18:38 0,1 C 3,9 C -0,6 C 80 % 1026,8 hPa 0,0 l/m 14,0 km/h (3 Bft) W-NW 284 0 min 0,000 mm 0,0 UV-I 0 W/m -2,9 C -6,2 C 25,7 km/h (4 Bft) 98,11 %
02.01.2019 18:40 0,1 C 3,9 C -0,6 C 80 % 1026,8 hPa 0,0 l/m 13,9 km/h (3 Bft) W-NW 284 0 min 0,000 mm 0,0 UV-I 0 W/m -2,9 C -6,2 C 24,1 km/h (4 Bft) 95,12 %
02.01.2019 18:42 0,1 C 3,9 C -0,6 C 80 % 1026,8 hPa 0,0 l/m 13,0 km/h (3 Bft) W 266 0 min 0,000 mm 0,0 UV-I 0 W/m -2,9 C -5,6 C 19,3 km/h (3 Bft) 97,56 %
02.01.2019 18:44 0,1 C 3,9 C -0,6 C 80 % 1026,8 hPa 0,0 l/m 16,1 km/h (3 Bft) W 267 0 min 0,000 mm 0,0 UV-I 0 W/m -2,9 C -7,5 C 25,7 km/h (4 Bft) 98,00 %
02.01.2019 18:46 0,1 C 3,9 C -0,6 C 80 % 1026,9 hPa 0,0 l/m 8,9 km/h (2 Bft) W 275 0 min 0,000 mm 0,0 UV-I 0 W/m -2,9 C -2,4 C 14,5 km/h (3 Bft) 98,00 %
02.01.2019 18:48 0,1 C 3,9 C -0,6 C 80 % 1026,9 hPa 0,0 l/m 11,5 km/h (2 Bft) W-NW 287 0 min 0,000 mm 0,0 UV-I 0 W/m -2,9 C -4,5 C 19,3 km/h (3 Bft) 95,74 %
02.01.2019 18:50 0,1 C 3,9 C -0,6 C 80 % 1027,0 hPa 0,0 l/m 16,6 km/h (3 Bft) W-NW 284 0 min 0,000 mm 0,0 UV-I 0 W/m -2,9 C -7,8 C 22,5 km/h (4 Bft) 95,74 %
02.01.2019 18:52 0,1 C 3,9 C -0,6 C 80 % 1027,0 hPa 0,0 l/m 15,5 km/h (3 Bft) W 274 0 min 0,000 mm 0,0 UV-I 0 W/m -2,9 C -7,2 C 24,1 km/h (4 Bft) 97,56 %
02.01.2019 18:54 0,1 C 3,9 C -0,6 C 80 % 1027,0 hPa 0,0 l/m 12,5 km/h (3 Bft) W 275 0 min 0,000 mm 0,0 UV-I 0 W/m -2,9 C -5,2 C 20,9 km/h (4 Bft) 98,00 %
02.01.2019 18:56 0,1 C 3,9 C -0,6 C 80 % 1027,1 hPa 0,0 l/m 10,8 km/h (2 Bft) W-NW 286 0 min 0,000 mm 0,0 UV-I 0 W/m -2,9 C -4,0 C 16,1 km/h (3 Bft) 94,34 %
02.01.2019 18:58 0,1 C 3,9 C -0,6 C 80 % 1027,1 hPa 0,0 l/m 12,4 km/h (3 Bft) W 274 0 min 0,000 mm 0,0 UV-I 0 W/m -2,9 C -5,2 C 24,1 km/h (4 Bft) 97,56 %
02.01.2019 19:00 0,1 C 3,9 C -0,6 C 80 % 1027,2 hPa 0,0 l/m 16,0 km/h (3 Bft) W-SW 252 0 min 0,025 mm 0,0 UV-I 0 W/m -2,9 C -7,4 C 24,1 km/h (4 Bft) 94,34 %
02.01.2019 19:02 0,1 C 3,9 C -0,6 C 80 % 1027,2 hPa 0,0 l/m 14,3 km/h (3 Bft) W-NW 283 0 min 0,000 mm 0,0 UV-I 0 W/m -2,9 C -6,4 C 20,9 km/h (4 Bft) 94,74 %
02.01.2019 19:04 0,1 C 3,9 C -0,6 C 80 % 1027,2 hPa 0,0 l/m 13,6 km/h (3 Bft) W-SW 258 0 min 0,000 mm 0,0 UV-I 0 W/m -2,9 C -6,0 C 22,5 km/h (4 Bft) 96,23 %
02.01.2019 19:06 0,1 C 3,9 C -0,6 C 80 % 1027,3 hPa 0,0 l/m 10,5 km/h (2 Bft) W 261 0 min 0,000 mm 0,0 UV-I 0 W/m -2,9 C -3,7 C 19,3 km/h (3 Bft) 94,44 %
02.01.2019 19:08 0,1 C 3,9 C -0,6 C 81 % 1027,3 hPa 0,0 l/m 10,7 km/h (2 Bft) W-NW 283 0 min 0,000 mm 0,0 UV-I 0 W/m -2,8 C -3,9 C 14,5 km/h (3 Bft) 98,28 %
02.01.2019 19:10 0,1 C 3,9 C -0,6 C 81 % 1027,3 hPa 0,0 l/m 14,7 km/h (3 Bft) W 261 0 min 0,000 mm 0,0 UV-I 0 W/m -2,8 C -6,7 C 20,9 km/h (4 Bft) 95,24 %
02.01.2019 19:12 0,1 C 3,9 C -0,6 C 81 % 1027,3 hPa 0,0 l/m 9,0 km/h (2 Bft) W 264 0 min 0,000 mm 0,0 UV-I 0 W/m -2,8 C -2,5 C 14,5 km/h (3 Bft) 92,86 %
02.01.2019 19:14 0,0 C 3,9 C -0,6 C 81 % 1027,4 hPa 0,0 l/m 12,4 km/h (3 Bft) W-SW 249 0 min 0,000 mm 0,0 UV-I 0 W/m -2,9 C -5,3 C 19,3 km/h (3 Bft) 94,74 %
02.01.2019 19:16 0,0 C 3,9 C -0,6 C 81 % 1027,4 hPa 0,0 l/m 10,9 km/h (2 Bft) W 261 0 min 0,000 mm 0,0 UV-I 0 W/m -2,9 C -4,2 C 19,3 km/h (3 Bft) 92,00 %
02.01.2019 19:18 0,0 C 3,9 C -0,6 C 81 % 1027,4 hPa 0,0 l/m 16,2 km/h (3 Bft) NW 306 0 min 0,000 mm 0,0 UV-I 0 W/m -2,9 C -7,7 C 25,7 km/h (4 Bft) 95,74 %
02.01.2019 19:20 0,0 C 3,9 C -0,6 C 81 % 1027,4 hPa 0,0 l/m 10,9 km/h (2 Bft) W 277 0 min 0,000 mm 0,0 UV-I 0 W/m -2,9 C -4,2 C 19,3 km/h (3 Bft) 98,00 %
02.01.2019 19:22 0,0 C 3,9 C -0,6 C 81 % 1027,4 hPa 0,0 l/m 15,6 km/h (3 Bft) W 264 0 min 0,000 mm 0,0 UV-I 0 W/m -2,9 C -7,3 C 22,5 km/h (4 Bft) 100,00 %
02.01.2019 19:24 0,0 C 3,9 C -0,6 C 81 % 1027,5 hPa 0,0 l/m 15,9 km/h (3 Bft) W 271 0 min 0,000 mm 0,0 UV-I 0 W/m -2,9 C -7,5 C 29,0 km/h (5 Bft) 97,14 %
02.01.2019 19:26 0,0 C 3,9 C -0,6 C 82 % 1027,5 hPa 0,0 l/m 10,7 km/h (2 Bft) W-NW 302 0 min 0,000 mm 0,0 UV-I 0 W/m -2,7 C -4,0 C 16,1 km/h (3 Bft) 98,21 %
02.01.2019 19:28 0,0 C 3,9 C -0,6 C 82 % 1027,5 hPa 0,0 l/m 10,9 km/h (2 Bft) W-SW 256 0 min 0,000 mm 0,0 UV-I 0 W/m -2,7 C -4,2 C 17,7 km/h (3 Bft) 100,00 %
02.01.2019 19:30 -0,1 C 3,9 C -0,6 C 82 % 1027,6 hPa 0,0 l/m 16,7 km/h (3 Bft) W 273 0 min 0,000 mm 0,0 UV-I 0 W/m -2,8 C -8,1 C 25,7 km/h (4 Bft) 100,00 %
02.01.2019 19:32 -0,1 C 3,9 C -0,6 C 81 % 1027,6 hPa 0,0 l/m 11,1 km/h (2 Bft) W 276 0 min 0,000 mm 0,0 UV-I 0 W/m -3,0 C -4,4 C 17,7 km/h (3 Bft) 100,00 %
02.01.2019 19:34 -0,1 C 3,9 C -0,6 C 81 % 1027,5 hPa 0,0 l/m 12,3 km/h (3 Bft) W-SW 254 0 min 0,000 mm 0,0 UV-I 0 W/m -3,0 C -5,3 C 20,9 km/h (4 Bft) 100,00 %
02.01.2019 19:36 0,0 C 3,9 C -0,6 C 81 % 1027,5 hPa 0,0 l/m 14,6 km/h (3 Bft) W 260 0 min 0,000 mm 0,0 UV-I 0 W/m -2,9 C -6,7 C 24,1 km/h (4 Bft) 95,74 %
02.01.2019 19:38 -0,1 C 3,9 C -0,6 C 81 % 1027,5 hPa 0,0 l/m 11,7 km/h (2 Bft) W 281 0 min 0,000 mm 0,0 UV-I 0 W/m -3,0 C -4,9 C 16,1 km/h (3 Bft) 100,00 %
02.01.2019 19:40 -0,1 C 3,9 C -0,6 C 81 % 1027,6 hPa 0,0 l/m 14,6 km/h (3 Bft) W 266 0 min 0,000 mm 0,0 UV-I 0 W/m -3,0 C -6,9 C 32,2 km/h (5 Bft) 100,00 %
02.01.2019 19:42 -0,1 C 3,9 C -0,6 C 81 % 1027,6 hPa 0,0 l/m 11,7 km/h (2 Bft) W-NW 294 0 min 0,000 mm 0,0 UV-I 0 W/m -3,0 C -4,9 C 20,9 km/h (4 Bft) 100,00 %
02.01.2019 19:44 -0,1 C 3,9 C -0,6 C 81 % 1027,6 hPa 0,0 l/m 11,2 km/h (2 Bft) W 281 0 min 0,000 mm 0,0 UV-I 0 W/m -3,0 C -4,5 C 20,9 km/h (4 Bft) 94,44 %
02.01.2019 19:45 -0,1 C 3,9 C -0,6 C 81 % 1027,6 hPa 0,0 l/m 12,9 km/h (3 Bft) W 270 0 min 0,000 mm 0,0 UV-I 0 W/m -3,0 C -5,8 C 24,1 km/h (4 Bft) 95,61 %
02.01.2019 19:50 -0,1 C 3,9 C -0,6 C 81 % 1027,6 hPa 0,0 l/m 12,9 km/h (3 Bft) W 270 0 min 0,000 mm 0,0 UV-I 0 W/m -3,0 C -5,8 C 20,9 km/h (4 Bft) 96,49 %
02.01.2019 19:52 -0,1 C 3,9 C -0,6 C 81 % 1027,6 hPa 0,0 l/m 17,4 km/h (3 Bft) W-NW 290 0 min 0,000 mm 0,0 UV-I 0 W/m -3,0 C -8,5 C 27,4 km/h (4 Bft) 99,49 %
02.01.2019 19:54 -0,1 C 3,9 C -0,6 C 81 % 1027,7 hPa 0,0 l/m 13,8 km/h (3 Bft) W 278 0 min 0,000 mm 0,0 UV-I 0 W/m -3,0 C -6,4 C 32,2 km/h (5 Bft) 100,00 %
02.01.2019 19:56 -0,1 C 3,9 C -0,6 C 80 % 1027,7 hPa 0,0 l/m 15,6 km/h (3 Bft) W-NW 301 0 min 0,000 mm 0,0 UV-I 0 W/m -3,1 C -7,5 C 41,8 km/h (6 Bft) 100,00 %
02.01.2019 19:58 -0,1 C 3,9 C -0,6 C 80 % 1027,7 hPa 0,0 l/m 14,9 km/h (3 Bft) W-NW 288 0 min 0,000 mm 0,0 UV-I 0 W/m -3,1 C -7,0 C 33,8 km/h (5 Bft) 100,00 %
02.01.2019 20:00 -0,1 C 3,9 C -0,6 C 80 % 1027,8 hPa 0,0 l/m 16,7 km/h (3 Bft) W 269 0 min 0,000 mm 0,0 UV-I 0 W/m -3,1 C -8,1 C 27,4 km/h (4 Bft) 100,00 %
02.01.2019 20:02 -0,1 C 3,9 C -0,6 C 80 % 1027,8 hPa 0,0 l/m 15,1 km/h (3 Bft) W-NW 296 0 min 0,025 mm 0,0 UV-I 0 W/m -3,1 C -7,2 C 32,2 km/h (5 Bft) 100,00 %
02.01.2019 20:06 -0,1 C 3,9 C -0,6 C 80 % 1027,9 hPa 0,0 l/m 15,5 km/h (3 Bft) NW 315 0 min 0,000 mm 0,0 UV-I 0 W/m -3,1 C -7,4 C 30,6 km/h (5 Bft) 100,00 %
02.01.2019 20:08 -0,1 C 3,9 C -0,6 C 80 % 1027,9 hPa 0,0 l/m 13,9 km/h (3 Bft) NW 315 0 min 0,000 mm 0,0 UV-I 0 W/m -3,1 C -6,4 C 22,5 km/h (4 Bft) 100,00 %
02.01.2019 20:10 -0,1 C 3,9 C -0,6 C 80 % 1027,9 hPa 0,0 l/m 13,6 km/h (3 Bft) W-SW 254 0 min 0,000 mm 0,0 UV-I 0 W/m -3,1 C -6,2 C 25,7 km/h (4 Bft) 100,00 %
02.01.2019 20:12 -0,1 C 3,9 C -0,6 C 79 % 1028,0 hPa 0,0 l/m 14,5 km/h (3 Bft) NW 315 0 min 0,000 mm 0,0 UV-I 0 W/m -3,3 C -6,8 C 29,0 km/h (5 Bft) 100,00 %
02.01.2019 20:14 -0,1 C 3,9 C -0,6 C 79 % 1028,1 hPa 0,0 l/m 12,0 km/h (2 Bft) W 263 0 min 0,000 mm 0,0 UV-I 0 W/m -3,3 C -5,1 C 24,1 km/h (4 Bft) 97,87 %
02.01.2019 20:16 -0,1 C 3,9 C -0,6 C 80 % 1028,3 hPa 0,0 l/m 11,5 km/h (2 Bft) NW 314 0 min 0,000 mm 0,0 UV-I 0 W/m -3,1 C -4,7 C 24,1 km/h (4 Bft) 95,74 %
02.01.2019 20:18 -0,2 C 3,9 C -1,1 C 81 % 1028,5 hPa 0,0 l/m 21,6 km/h (4 Bft) N 10 0 min 0,000 mm 0,0 UV-I 0 W/m -3,1 C -10,6 C 38,6 km/h (5 Bft) 97,87 %
02.01.2019 20:20 -0,7 C 3,9 C -1,1 C 83 % 1028,5 hPa 0,0 l/m 19,8 km/h (3 Bft) N-NW 327 0 min 0,000 mm 0,0 UV-I 0 W/m -3,2 C -10,4 C 32,2 km/h (5 Bft) 95,74 %
02.01.2019 20:22 -1,1 C 3,9 C -1,7 C 84 % 1028,6 hPa 0,0 l/m 13,0 km/h (3 Bft) N-NW 336 0 min 0,000 mm 0,0 UV-I 0 W/m -3,4 C -7,0 C 25,7 km/h (4 Bft) 97,87 %
02.01.2019 20:24 -1,3 C 3,9 C -1,7 C 86 % 1028,6 hPa 0,0 l/m 14,5 km/h (3 Bft) NW 318 0 min 0,000 mm 0,0 UV-I 0 W/m -3,3 C -8,2 C 33,8 km/h (5 Bft) 94,00 %
02.01.2019 20:26 -1,5 C 3,9 C -1,7 C 87 % 1028,6 hPa 0,0 l/m 22,6 km/h (4 Bft) N-NW 330 0 min 0,000 mm 0,0 UV-I 0 W/m -3,4 C -12,8 C 35,4 km/h (5 Bft) 98,00 %
02.01.2019 20:28 -1,7 C 3,9 C -1,7 C 88 % 1028,7 hPa 0,0 l/m 22,6 km/h (4 Bft) N-NW 333 0 min 0,000 mm 0,0 UV-I 0 W/m -3,4 C -13,0 C 37,0 km/h (5 Bft) 97,62 %
02.01.2019 20:30 -1,8 C 3,9 C -1,7 C 88 % 1028,6 hPa 0,0 l/m 18,2 km/h (3 Bft) W-NW 302 0 min 0,000 mm 0,0 UV-I 0 W/m -3,5 C -11,0 C 30,6 km/h (5 Bft) 95,74 %
02.01.2019 20:32 -1,9 C 3,9 C -2,2 C 89 % 1028,8 hPa 0,0 l/m 18,7 km/h (3 Bft) N 9 0 min 0,000 mm 0,0 UV-I 0 W/m -3,5 C -11,4 C 33,8 km/h (5 Bft) 96,43 %
02.01.2019 20:34 -2,0 C 3,9 C -2,2 C 89 % 1028,6 hPa 0,0 l/m 14,2 km/h (3 Bft) N-NW 338 0 min 0,000 mm 0,0 UV-I 0 W/m -3,6 C -8,9 C 22,5 km/h (4 Bft) 97,56 %
02.01.2019 20:36 -2,0 C 3,9 C -2,2 C 89 % 1028,6 hPa 0,0 l/m 7,4 km/h (2 Bft) W 279 0 min 0,000 mm 0,0 UV-I 0 W/m -3,6 C -3,1 C 12,9 km/h (3 Bft) 100,00 %
02.01.2019 20:38 -2,0 C 3,9 C -1,7 C 90 % 1028,6 hPa 0,0 l/m 6,2 km/h (2 Bft) N-NW 327 0 min 0,000 mm 0,0 UV-I 0 W/m -3,4 C -2,0 C 14,5 km/h (3 Bft) 98,00 %
02.01.2019 20:40 -1,9 C 3,9 C -1,7 C 89 % 1028,6 hPa 0,0 l/m 5,5 km/h (1 Bft) NW 307 0 min 0,000 mm 0,0 UV-I 0 W/m -3,5 C -1,9 C 9,7 km/h (2 Bft) 100,00 %
02.01.2019 20:42 -1,8 C 3,9 C -1,7 C 89 % 1028,5 hPa 0,0 l/m 6,8 km/h (2 Bft) NW 322 0 min 0,000 mm 0,0 UV-I 0 W/m -3,4 C -2,2 C 12,9 km/h (3 Bft) 100,00 %
02.01.2019 20:44 -1,8 C 3,9 C -1,7 C 89 % 1028,5 hPa 0,0 l/m 9,0 km/h (2 Bft) W 279 0 min 0,000 mm 0,0 UV-I 0 W/m -3,4 C -4,5 C 19,3 km/h (3 Bft) 98,11 %
02.01.2019 20:46 -1,7 C 3,9 C -2,2 C 88 % 1028,5 hPa 0,0 l/m 10,7 km/h (2 Bft) NW 318 0 min 0,000 mm 0,0 UV-I 0 W/m -3,4 C -5,9 C 19,3 km/h (3 Bft) 93,18 %
02.01.2019 20:48 -1,7 C 3,9 C -2,2 C 87 % 1028,5 hPa 0,0 l/m 6,3 km/h (2 Bft) W 261 0 min 0,000 mm 0,0 UV-I 0 W/m -3,6 C -1,7 C 12,9 km/h (3 Bft) 94,00 %
02.01.2019 20:50 -1,7 C 3,9 C -2,2 C 87 % 1028,5 hPa 0,0 l/m 6,6 km/h (2 Bft) NW 318 0 min 0,000 mm 0,0 UV-I 0 W/m -3,6 C -1,9 C 12,9 km/h (3 Bft) 95,12 %
02.01.2019 20:52 -1,7 C 3,9 C -2,2 C 88 % 1028,6 hPa 0,0 l/m 7,0 km/h (2 Bft) W-NW 287 0 min 0,000 mm 0,0 UV-I 0 W/m -3,4 C -2,4 C 16,1 km/h (3 Bft) 96,61 %
02.01.2019 20:54 -1,7 C 3,9 C -2,8 C 88 % 1028,5 hPa 0,0 l/m 6,3 km/h (2 Bft) W 270 0 min 0,000 mm 0,0 UV-I 0 W/m -3,4 C -1,7 C 12,9 km/h (3 Bft) 94,74 %
02.01.2019 20:56 -1,7 C 3,9 C -2,8 C 88 % 1028,6 hPa 0,0 l/m 6,4 km/h (2 Bft) W-NW 283 0 min 0,000 mm 0,0 UV-I 0 W/m -3,4 C -1,7 C 11,3 km/h (2 Bft) 96,00 %
02.01.2019 20:58 -1,8 C 3,9 C -2,8 C 89 % 1028,6 hPa 0,0 l/m 9,9 km/h (2 Bft) W-NW 286 0 min 0,000 mm 0,0 UV-I 0 W/m -3,4 C -5,4 C 16,1 km/h (3 Bft) 93,62 %
02.01.2019 21:00 -1,8 C 3,9 C -3,3 C 89 % 1028,7 hPa 0,0 l/m 7,5 km/h (2 Bft) W-NW 295 0 min 0,000 mm 0,0 UV-I 0 W/m -3,4 C -3,0 C 14,5 km/h (3 Bft) 93,18 %
02.01.2019 21:02 -1,8 C 3,9 C -3,3 C 89 % 1028,7 hPa 0,0 l/m 9,5 km/h (2 Bft) W-NW 292 0 min 0,026 mm 0,0 UV-I 0 W/m -3,4 C -5,0 C 17,7 km/h (3 Bft) 93,62 %
02.01.2019 21:04 -1,8 C 3,9 C -3,3 C 90 % 1028,8 hPa 0,0 l/m 8,7 km/h (2 Bft) W-NW 300 0 min 0,000 mm 0,0 UV-I 0 W/m -3,2 C -4,2 C 16,1 km/h (3 Bft) 96,00 %
02.01.2019 21:06 -1,8 C 3,9 C -3,3 C 90 % 1028,8 hPa 0,0 l/m 11,3 km/h (2 Bft) W 278 0 min 0,000 mm 0,0 UV-I 0 W/m -3,2 C -6,5 C 22,5 km/h (4 Bft) 95,24 %
02.01.2019 21:08 -1,8 C 3,9 C -3,3 C 90 % 1028,8 hPa 0,0 l/m 13,2 km/h (3 Bft) W-NW 284 0 min 0,000 mm 0,0 UV-I 0 W/m -3,2 C -8,0 C 19,3 km/h (3 Bft) 96,00 %
02.01.2019 21:10 -1,8 C 3,9 C -2,8 C 90 % 1028,8 hPa 0,0 l/m 9,7 km/h (2 Bft) W-SW 248 0 min 0,000 mm 0,0 UV-I 0 W/m -3,2 C -5,2 C 17,7 km/h (3 Bft) 94,00 %
02.01.2019 21:12 -1,7 C 3,9 C -2,8 C 90 % 1028,8 hPa 0,0 l/m 11,3 km/h (2 Bft) W-NW 300 0 min 0,000 mm 0,0 UV-I 0 W/m -3,1 C -6,4 C 20,9 km/h (4 Bft) 96,00 %
02.01.2019 21:14 -1,7 C 3,9 C -2,8 C 89 % 1028,8 hPa 0,0 l/m 8,4 km/h (2 Bft) W 272 0 min 0,000 mm 0,0 UV-I 0 W/m -3,3 C -3,8 C 14,5 km/h (3 Bft) 95,12 %
02.01.2019 21:16 -1,7 C 3,9 C -2,8 C 89 % 1028,8 hPa 0,0 l/m 10,2 km/h (2 Bft) W 271 0 min 0,000 mm 0,0 UV-I 0 W/m -3,3 C -5,5 C 17,7 km/h (3 Bft) 90,24 %
02.01.2019 21:18 -1,7 C 3,9 C -2,8 C 89 % 1028,9 hPa 0,0 l/m 13,0 km/h (3 Bft) W-NW 283 0 min 0,000 mm 0,0 UV-I 0 W/m -3,3 C -7,7 C 20,9 km/h (4 Bft) 92,45 %
02.01.2019 21:20 -1,6 C 3,9 C -3,3 C 88 % 1028,9 hPa 0,0 l/m 13,8 km/h (3 Bft) W 268 0 min 0,000 mm 0,0 UV-I 0 W/m -3,3 C -8,1 C 17,7 km/h (3 Bft) 95,45 %
02.01.2019 21:22 -1,6 C 3,9 C -3,3 C 88 % 1028,9 hPa 0,0 l/m 14,1 km/h (3 Bft) W 277 0 min 0,000 mm 0,0 UV-I 0 W/m -3,3 C -8,3 C 17,7 km/h (3 Bft) 95,45 %
02.01.2019 21:24 -1,6 C 3,9 C -2,8 C 87 % 1028,9 hPa 0,0 l/m 13,8 km/h (3 Bft) W-NW 294 0 min 0,000 mm 0,0 UV-I 0 W/m -3,5 C -8,1 C 20,9 km/h (4 Bft) 100,00 %
02.01.2019 21:26 -1,6 C 3,9 C -2,8 C 87 % 1028,9 hPa 0,0 l/m 12,1 km/h (2 Bft) W-NW 288 0 min 0,000 mm 0,0 UV-I 0 W/m -3,5 C -6,9 C 20,9 km/h (4 Bft) 98,00 %
02.01.2019 21:28 -1,5 C 3,9 C -3,3 C 87 % 1029,0 hPa 0,0 l/m 13,1 km/h (3 Bft) W-NW 290 0 min 0,000 mm 0,0 UV-I 0 W/m -3,4 C -7,5 C 20,9 km/h (4 Bft) 97,37 %
02.01.2019 21:30 -1,5 C 3,9 C -2,8 C 87 % 1029,0 hPa 0,0 l/m 11,3 km/h (2 Bft) W 270 0 min 0,000 mm 0,0 UV-I 0 W/m -3,4 C -6,2 C 16,1 km/h (3 Bft) 91,07 %
02.01.2019 21:32 -1,5 C 3,9 C -2,8 C 86 % 1029,0 hPa 0,0 l/m 10,2 km/h (2 Bft) W 262 0 min 0,000 mm 0,0 UV-I 0 W/m -3,5 C -5,3 C 17,7 km/h (3 Bft) 92,00 %
02.01.2019 21:34 -1,5 C 3,9 C -2,8 C 86 % 1029,0 hPa 0,0 l/m 12,2 km/h (2 Bft) W 276 0 min 0,000 mm 0,0 UV-I 0 W/m -3,5 C -6,9 C 20,9 km/h (4 Bft) 97,56 %
02.01.2019 21:36 -1,5 C 3,9 C -3,3 C 85 % 1029,0 hPa 0,0 l/m 8,8 km/h (2 Bft) W-NW 295 0 min 0,000 mm 0,0 UV-I 0 W/m -3,7 C -4,0 C 14,5 km/h (3 Bft) 94,34 %
02.01.2019 21:39 -1,5 C 3,9 C -2,8 C 84 % 1029,0 hPa 0,0 l/m 12,8 km/h (3 Bft) W 276 0 min 0,000 mm 0,0 UV-I 0 W/m -3,8 C -7,3 C 20,9 km/h (4 Bft) 96,92 %
02.01.2019 21:40 -1,5 C 3,9 C -2,8 C 84 % 1029,0 hPa 0,0 l/m 11,6 km/h (2 Bft) W-NW 284 0 min 0,000 mm 0,0 UV-I 0 W/m -3,8 C -6,4 C 17,7 km/h (3 Bft) 92,31 %
02.01.2019 21:42 -1,4 C 3,9 C -2,8 C 83 % 1029,0 hPa 0,0 l/m 10,2 km/h (2 Bft) W 279 0 min 0,000 mm 0,0 UV-I 0 W/m -3,9 C -5,2 C 19,3 km/h (3 Bft) 96,00 %
02.01.2019 21:44 -1,4 C 3,9 C -2,8 C 83 % 1029,1 hPa 0,0 l/m 10,4 km/h (2 Bft) W-NW 288 0 min 0,000 mm 0,0 UV-I 0 W/m -3,9 C -5,3 C 14,5 km/h (3 Bft) 95,12 %
02.01.2019 21:46 -1,4 C 3,9 C -2,8 C 82 % 1029,1 hPa 0,0 l/m 15,7 km/h (3 Bft) W-NW 294 0 min 0,000 mm 0,0 UV-I 0 W/m -4,1 C -9,1 C 22,5 km/h (4 Bft) 96,23 %
02.01.2019 21:49 -1,4 C 3,9 C -2,8 C 82 % 1029,0 hPa 0,0 l/m 14,9 km/h (3 Bft) W-NW 282 0 min 0,000 mm 0,0 UV-I 0 W/m -4,1 C -8,6 C 24,1 km/h (4 Bft) 98,53 %
02.01.2019 21:50 -1,4 C 3,9 C -2,8 C 82 % 1029,0 hPa 0,0 l/m 16,5 km/h (3 Bft) W 272 0 min 0,000 mm 0,0 UV-I 0 W/m -4,1 C -9,6 C 24,1 km/h (4 Bft) 100,00 %
02.01.2019 21:52 -1,4 C 3,9 C -2,8 C 81 % 1029,2 hPa 0,0 l/m 14,8 km/h (3 Bft) W 267 0 min 0,000 mm 0,0 UV-I 0 W/m -4,2 C -8,6 C 22,5 km/h (4 Bft) 98,31 %
02.01.2019 21:54 -1,4 C 3,9 C -2,8 C 81 % 1029,1 hPa 0,0 l/m 13,8 km/h (3 Bft) W-NW 300 0 min 0,000 mm 0,0 UV-I 0 W/m -4,2 C -7,9 C 25,7 km/h (4 Bft) 97,37 %
02.01.2019 21:56 -1,4 C 3,9 C -2,8 C 81 % 1029,0 hPa 0,0 l/m 15,6 km/h (3 Bft) W-NW 284 0 min 0,000 mm 0,0 UV-I 0 W/m -4,2 C -9,0 C 25,7 km/h (4 Bft) 96,23 %
02.01.2019 21:59 -1,4 C 3,9 C -2,8 C 81 % 1029,1 hPa 0,0 l/m 16,5 km/h (3 Bft) W 273 0 min 0,000 mm 0,0 UV-I 0 W/m -4,2 C -9,6 C 27,4 km/h (4 Bft) 98,63 %
02.01.2019 22:00 -1,4 C 3,9 C -2,8 C 81 % 1029,1 hPa 0,0 l/m 14,7 km/h (3 Bft) W 271 0 min 0,000 mm 0,0 UV-I 0 W/m -4,2 C -8,5 C 17,7 km/h (3 Bft) 100,00 %
02.01.2019 22:02 -1,4 C 3,9 C -2,8 C 80 % 1029,0 hPa 0,0 l/m 17,3 km/h (3 Bft) W 270 0 min 0,025 mm 0,0 UV-I 0 W/m -4,4 C -10,0 C 30,6 km/h (5 Bft) 100,00 %
02.01.2019 22:04 -1,4 C 3,9 C -2,8 C 80 % 1029,1 hPa 0,0 l/m 14,8 km/h (3 Bft) W 278 0 min 0,000 mm 0,0 UV-I 0 W/m -4,4 C -8,6 C 25,7 km/h (4 Bft) 100,00 %
02.01.2019 22:06 -1,4 C 3,9 C -2,8 C 80 % 1029,1 hPa 0,0 l/m 18,9 km/h (3 Bft) W 281 0 min 0,000 mm 0,0 UV-I 0 W/m -4,4 C -10,9 C 29,0 km/h (5 Bft) 100,00 %
02.01.2019 22:09 -1,4 C 3,9 C -2,8 C 80 % 1029,1 hPa 0,0 l/m 15,8 km/h (3 Bft) W 264 0 min 0,000 mm 0,0 UV-I 0 W/m -4,4 C -9,2 C 25,7 km/h (4 Bft) 100,00 %
02.01.2019 22:10 -1,4 C 3,9 C -2,8 C 80 % 1029,1 hPa 0,0 l/m 15,2 km/h (3 Bft) W-NW 284 0 min 0,000 mm 0,0 UV-I 0 W/m -4,4 C -8,8 C 19,3 km/h (3 Bft) 100,00 %
02.01.2019 22:12 -1,4 C 3,9 C -2,8 C 80 % 1029,0 hPa 0,0 l/m 12,2 km/h (2 Bft) W-NW 295 0 min 0,000 mm 0,0 UV-I 0 W/m -4,4 C -6,8 C 17,7 km/h (3 Bft) 98,00 %
02.01.2019 22:14 -1,4 C 3,9 C -2,8 C 80 % 1029,0 hPa 0,0 l/m 13,3 km/h (3 Bft) W 273 0 min 0,000 mm 0,0 UV-I 0 W/m -4,4 C -7,6 C 20,9 km/h (4 Bft) 98,00 %
02.01.2019 22:16 -1,4 C 3,9 C -2,8 C 81 % 1029,0 hPa 0,0 l/m 14,7 km/h (3 Bft) W-NW 294 0 min 0,000 mm 0,0 UV-I 0 W/m -4,2 C -8,5 C 24,1 km/h (4 Bft) 100,00 %
02.01.2019 22:18 -1,4 C 3,9 C -2,2 C 80 % 1029,0 hPa 0,0 l/m 17,3 km/h (3 Bft) W 279 0 min 0,000 mm 0,0 UV-I 0 W/m -4,4 C -10,0 C 30,6 km/h (5 Bft) 100,00 %
02.01.2019 22:20 -1,4 C 3,9 C -2,2 C 80 % 1029,0 hPa 0,0 l/m 17,4 km/h (3 Bft) W-SW 251 0 min 0,000 mm 0,0 UV-I 0 W/m -4,4 C -10,1 C 25,7 km/h (4 Bft) 100,00 %
02.01.2019 22:22 -1,3 C 3,9 C -2,2 C 80 % 1029,0 hPa 0,0 l/m 17,0 km/h (3 Bft) W 279 0 min 0,000 mm 0,0 UV-I 0 W/m -4,3 C -9,7 C 24,1 km/h (4 Bft) 100,00 %
02.01.2019 22:24 -1,3 C 3,9 C -2,2 C 80 % 1029,0 hPa 0,0 l/m 19,3 km/h (3 Bft) W-SW 255 0 min 0,000 mm 0,0 UV-I 0 W/m -4,3 C -11,0 C 32,2 km/h (5 Bft) 100,00 %
02.01.2019 22:26 -1,3 C 3,9 C -2,2 C 80 % 1029,0 hPa 0,0 l/m 19,3 km/h (3 Bft) W 261 0 min 0,000 mm 0,0 UV-I 0 W/m -4,3 C -11,0 C 27,4 km/h (4 Bft) 100,00 %
02.01.2019 22:28 -1,3 C 3,9 C -2,2 C 80 % 1029,0 hPa 0,0 l/m 25,5 km/h (4 Bft) W 268 0 min 0,000 mm 0,0 UV-I 0 W/m -4,3 C -13,7 C 41,8 km/h (6 Bft) 97,87 %
02.01.2019 22:30 -1,3 C 3,9 C -2,2 C 81 % 1029,1 hPa 0,0 l/m 20,5 km/h (4 Bft) W 271 0 min 0,000 mm 0,0 UV-I 0 W/m -4,1 C -11,6 C 37,0 km/h (5 Bft) 100,00 %
02.01.2019 22:32 -1,3 C 3,9 C -2,2 C 81 % 1029,1 hPa 0,0 l/m 19,2 km/h (3 Bft) W 269 0 min 0,000 mm 0,0 UV-I 0 W/m -4,1 C -10,9 C 27,4 km/h (4 Bft) 100,00 %
02.01.2019 22:34 -1,4 C 3,9 C -2,2 C 82 % 1029,2 hPa 0,0 l/m 15,4 km/h (3 Bft) W 261 0 min 0,000 mm 0,0 UV-I 0 W/m -4,1 C -8,9 C 27,4 km/h (4 Bft) 100,00 %
02.01.2019 22:36 -1,5 C 3,9 C -2,2 C 83 % 1029,1 hPa 0,0 l/m 14,7 km/h (3 Bft) NW 311 0 min 0,000 mm 0,0 UV-I 0 W/m -4,0 C -8,6 C 27,4 km/h (4 Bft) 97,87 %
02.01.2019 22:38 -1,7 C 3,9 C -2,8 C 84 % 1029,1 hPa 0,0 l/m 16,5 km/h (3 Bft) W-NW 289 0 min 0,000 mm 0,0 UV-I 0 W/m -4,0 C -10,0 C 25,7 km/h (4 Bft) 97,87 %
02.01.2019 22:40 -1,8 C 3,9 C -2,8 C 86 % 1029,1 hPa 0,0 l/m 11,5 km/h (2 Bft) W 279 0 min 0,000 mm 0,0 UV-I 0 W/m -3,8 C -6,7 C 20,9 km/h (4 Bft) 97,87 %
02.01.2019 22:42 -1,9 C 3,9 C -2,8 C 86 % 1029,1 hPa 0,0 l/m 14,7 km/h (3 Bft) W 267 0 min 0,000 mm 0,0 UV-I 0 W/m -3,9 C -9,1 C 22,5 km/h (4 Bft) 98,11 %
02.01.2019 22:44 -2,0 C 3,9 C -2,8 C 87 % 1029,1 hPa 0,0 l/m 12,6 km/h (3 Bft) W 263 0 min 0,000 mm 0,0 UV-I 0 W/m -3,9 C -7,8 C 20,9 km/h (4 Bft) 97,87 %
02.01.2019 22:46 -2,1 C 3,9 C -3,3 C 88 % 1029,1 hPa 0,0 l/m 13,6 km/h (3 Bft) W-NW 295 0 min 0,000 mm 0,0 UV-I 0 W/m -3,8 C -8,6 C 20,9 km/h (4 Bft) 97,87 %
02.01.2019 22:48 -2,1 C 3,9 C -3,3 C 89 % 1029,1 hPa 0,0 l/m 12,8 km/h (3 Bft) W 265 0 min 0,000 mm 0,0 UV-I 0 W/m -3,7 C -8,0 C 17,7 km/h (3 Bft) 95,12 %
02.01.2019 22:50 -2,2 C 3,9 C -3,3 C 89 % 1029,0 hPa 0,0 l/m 10,8 km/h (2 Bft) W-NW 286 0 min 0,000 mm 0,0 UV-I 0 W/m -3,8 C -6,6 C 16,1 km/h (3 Bft) 97,56 %
02.01.2019 22:52 -2,2 C 3,9 C -3,3 C 89 % 1029,1 hPa 0,0 l/m 14,6 km/h (3 Bft) W 265 0 min 0,000 mm 0,0 UV-I 0 W/m -3,8 C -9,4 C 19,3 km/h (3 Bft) 92,45 %
02.01.2019 22:54 -2,2 C 3,9 C -2,8 C 90 % 1029,0 hPa 0,0 l/m 14,6 km/h (3 Bft) W 266 0 min 0,000 mm 0,0 UV-I 0 W/m -3,6 C -9,4 C 20,9 km/h (4 Bft) 95,12 %
02.01.2019 22:56 -2,2 C 3,9 C -2,8 C 90 % 1029,0 hPa 0,0 l/m 14,7 km/h (3 Bft) W 266 0 min 0,000 mm 0,0 UV-I 0 W/m -3,6 C -9,5 C 22,5 km/h (4 Bft) 94,34 %
02.01.2019 22:58 -2,1 C 3,9 C -2,8 C 90 % 1029,0 hPa 0,0 l/m 13,6 km/h (3 Bft) W 279 0 min 0,000 mm 0,0 UV-I 0 W/m -3,5 C -8,6 C 20,9 km/h (4 Bft) 97,22 %
02.01.2019 23:00 -2,1 C 3,9 C -2,8 C 90 % 1029,0 hPa 0,0 l/m 10,2 km/h (2 Bft) W 275 0 min 0,000 mm 0,0 UV-I 0 W/m -3,5 C -5,9 C 14,5 km/h (3 Bft) 93,44 %
02.01.2019 23:02 -2,1 C 3,9 C -2,8 C 90 % 1029,0 hPa 0,0 l/m 11,1 km/h (2 Bft) W 280 0 min 0,026 mm 0,0 UV-I 0 W/m -3,5 C -6,7 C 16,1 km/h (3 Bft) 94,87 %
02.01.2019 23:04 -2,1 C 3,9 C -2,8 C 90 % 1029,0 hPa 0,0 l/m 10,1 km/h (2 Bft) W-SW 258 0 min 0,000 mm 0,0 UV-I 0 W/m -3,5 C -5,9 C 17,7 km/h (3 Bft) 98,11 %
02.01.2019 23:06 -2,1 C 3,9 C -2,8 C 90 % 1029,0 hPa 0,0 l/m 11,5 km/h (2 Bft) W 275 0 min 0,000 mm 0,0 UV-I 0 W/m -3,5 C -7,0 C 16,1 km/h (3 Bft) 97,37 %
02.01.2019 23:08 -2,1 C 3,9 C -2,8 C 90 % 1029,0 hPa 0,0 l/m 9,7 km/h (2 Bft) W-SW 256 0 min 0,000 mm 0,0 UV-I 0 W/m -3,5 C -5,5 C 14,5 km/h (3 Bft) 98,11 %
02.01.2019 23:10 -2,1 C 3,9 C -2,8 C 90 % 1028,9 hPa 0,0 l/m 12,1 km/h (2 Bft) W 261 0 min 0,000 mm 0,0 UV-I 0 W/m -3,5 C -7,5 C 14,5 km/h (3 Bft) 98,00 %
02.01.2019 23:12 -2,0 C 3,9 C -2,8 C 90 % 1028,9 hPa 0,0 l/m 16,7 km/h (3 Bft) W 275 0 min 0,000 mm 0,0 UV-I 0 W/m -3,4 C -10,4 C 22,5 km/h (4 Bft) 97,87 %
02.01.2019 23:14 -1,9 C 3,9 C -2,8 C 90 % 1028,9 hPa 0,0 l/m 13,5 km/h (3 Bft) W 261 0 min 0,000 mm 0,0 UV-I 0 W/m -3,3 C -8,3 C 19,3 km/h (3 Bft) 96,00 %
02.01.2019 23:16 -1,9 C 3,9 C -2,2 C 89 % 1028,9 hPa 0,0 l/m 13,9 km/h (3 Bft) W 275 0 min 0,000 mm 0,0 UV-I 0 W/m -3,5 C -8,6 C 20,9 km/h (4 Bft) 100,00 %
02.01.2019 23:18 -1,9 C 3,9 C -2,2 C 89 % 1028,9 hPa 0,0 l/m 16,2 km/h (3 Bft) W-SW 253 0 min 0,000 mm 0,0 UV-I 0 W/m -3,5 C -10,0 C 24,1 km/h (4 Bft) 94,00 %
02.01.2019 23:20 -1,8 C 3,9 C -2,2 C 89 % 1028,9 hPa 0,0 l/m 18,7 km/h (3 Bft) W 261 0 min 0,000 mm 0,0 UV-I 0 W/m -3,4 C -11,3 C 30,6 km/h (5 Bft) 95,12 %
02.01.2019 23:22 -1,7 C 3,9 C -2,2 C 88 % 1028,9 hPa 0,0 l/m 17,0 km/h (3 Bft) W-NW 285 0 min 0,000 mm 0,0 UV-I 0 W/m -3,4 C -10,2 C 27,4 km/h (4 Bft) 92,00 %
02.01.2019 23:24 -1,7 C 3,9 C -2,2 C 88 % 1028,9 hPa 0,0 l/m 14,8 km/h (3 Bft) W-SW 253 0 min 0,000 mm 0,0 UV-I 0 W/m -3,4 C -8,9 C 22,5 km/h (4 Bft) 96,00 %
02.01.2019 23:26 -1,6 C 3,9 C -2,2 C 87 % 1028,9 hPa 0,0 l/m 17,0 km/h (3 Bft) W 275 0 min 0,000 mm 0,0 UV-I 0 W/m -3,5 C -10,1 C 25,7 km/h (4 Bft) 97,56 %
02.01.2019 23:29 -1,5 C 3,9 C -2,2 C 87 % 1028,9 hPa 0,0 l/m 18,1 km/h (3 Bft) W-SW 257 0 min 0,000 mm 0,0 UV-I 0 W/m -3,4 C -10,6 C 25,7 km/h (4 Bft) 98,65 %
02.01.2019 23:30 -1,5 C 3,9 C -2,2 C 87 % 1028,9 hPa 0,0 l/m 11,8 km/h (2 Bft) W 261 0 min 0,000 mm 0,0 UV-I 0 W/m -3,4 C -6,6 C 20,9 km/h (4 Bft) 100,00 %
02.01.2019 23:32 -1,5 C 3,9 C -2,2 C 87 % 1028,9 hPa 0,0 l/m 14,9 km/h (3 Bft) W 268 0 min 0,000 mm 0,0 UV-I 0 W/m -3,4 C -8,7 C 24,1 km/h (4 Bft) 100,00 %
02.01.2019 23:34 -1,5 C 3,9 C -1,7 C 86 % 1029,0 hPa 0,0 l/m 18,2 km/h (3 Bft) W-NW 292 0 min 0,000 mm 0,0 UV-I 0 W/m -3,5 C -10,7 C 30,6 km/h (5 Bft) 100,00 %
02.01.2019 23:36 -1,4 C 3,9 C -1,7 C 86 % 1029,0 hPa 0,0 l/m 15,8 km/h (3 Bft) W-NW 283 0 min 0,000 mm 0,0 UV-I 0 W/m -3,4 C -9,2 C 25,7 km/h (4 Bft) 98,18 %
02.01.2019 23:38 -1,4 C 3,9 C -1,7 C 87 % 1029,0 hPa 0,0 l/m 13,2 km/h (3 Bft) W 272 0 min 0,000 mm 0,0 UV-I 0 W/m -3,3 C -7,5 C 19,3 km/h (3 Bft) 100,00 %
02.01.2019 23:40 -1,4 C 3,9 C -1,7 C 87 % 1029,0 hPa 0,0 l/m 15,0 km/h (3 Bft) W 267 0 min 0,000 mm 0,0 UV-I 0 W/m -3,3 C -8,7 C 20,9 km/h (4 Bft) 97,87 %
02.01.2019 23:42 -1,4 C 3,9 C -1,7 C 87 % 1029,0 hPa 0,0 l/m 17,6 km/h (3 Bft) W 279 0 min 0,000 mm 0,0 UV-I 0 W/m -3,3 C -10,2 C 24,1 km/h (4 Bft) 100,00 %
02.01.2019 23:44 -1,5 C 3,9 C -1,7 C 87 % 1029,0 hPa 0,0 l/m 19,2 km/h (3 Bft) W 277 0 min 0,000 mm 0,0 UV-I 0 W/m -3,4 C -11,2 C 33,8 km/h (5 Bft) 100,00 %
02.01.2019 23:46 -1,6 C 3,9 C -2,2 C 87 % 1028,9 hPa 0,0 l/m 19,7 km/h (3 Bft) W-SW 252 0 min 0,000 mm 0,0 UV-I 0 W/m -3,5 C -11,6 C 25,7 km/h (4 Bft) 100,00 %
02.01.2019 23:48 -1,6 C 3,9 C -2,2 C 88 % 1029,0 hPa 0,0 l/m 18,0 km/h (3 Bft) W-NW 283 0 min 0,000 mm 0,0 UV-I 0 W/m -3,3 C -10,7 C 25,7 km/h (4 Bft) 97,56 %
02.01.2019 23:50 -1,6 C 3,9 C -2,2 C 88 % 1028,9 hPa 0,0 l/m 17,4 km/h (3 Bft) NW 315 0 min 0,000 mm 0,0 UV-I 0 W/m -3,3 C -10,3 C 22,5 km/h (4 Bft) 94,34 %
02.01.2019 23:52 -1,6 C 3,9 C -1,7 C 88 % 1029,0 hPa 0,0 l/m 18,0 km/h (3 Bft) W 281 0 min 0,000 mm 0,0 UV-I 0 W/m -3,3 C -10,7 C 27,4 km/h (4 Bft) 97,56 %
02.01.2019 23:54 -1,6 C 3,9 C -1,7 C 88 % 1029,0 hPa 0,0 l/m 18,7 km/h (3 Bft) W-NW 284 0 min 0,000 mm 0,0 UV-I 0 W/m -3,3 C -11,0 C 29,0 km/h (5 Bft) 94,00 %
02.01.2019 23:56 -1,6 C 3,9 C -1,7 C 88 % 1029,1 hPa 0,0 l/m 17,3 km/h (3 Bft) W-NW 294 0 min 0,000 mm 0,0 UV-I 0 W/m -3,3 C -10,3 C 25,7 km/h (4 Bft) 98,00 %
02.01.2019 23:58 -1,6 C 3,9 C -1,7 C 89 % 1029,1 hPa 0,0 l/m 18,5 km/h (3 Bft) W 266 0 min 0,000 mm 0,0 UV-I 0 W/m -3,2 C -10,9 C 29,0 km/h (5 Bft) 97,87 %
_ Min-Zeit 22:50 06:32 21:00 13:50 01:34 - 15:44 - - - - - - 22:02 22:28 15:52 04:02
Minimum _ -2,2 C 3,9 C -3,3 C 65 % 1018,8 hPa - 5,1 km/h (1 Bft) - - - - - - -4,4 C -13,7 C 9,7 km/h (2 Bft) 80,00 %
_ Max-Zeit 00:00 00:00 13:48 00:36 21:52 00:20 04:36 - - 10:28 12:00 11:24 13:46 00:02 00:04 12:28 00:00
Maximum _ 4,9 C 4,4 C 6,1 C 94 % 1029,2 hPa 0,2 l/m 31,5 km/h
W (5 Bft)
- - 2 min 0,152 mm 0,5 UV-I 373 W/m 2,9 C 4,0 C 66,0 km/h
W-NW (8 Bft)
100,00 %
Durchschnitt _ 1,0 C 4,0 C 0,5 C 84 % 1023,4 hPa #3,2 l/m 17,1 km/h (3 Bft) W - #2:53 h #0,864 mm 0,4 UV-I 115 W/m -1,4 C -6,6 C 28,5 km/h (4 Bft) 97,15 %